<?xml version="1.0" encoding="UTF-8" standalone="no" ?>
<gpx xmlns="http://www.topografix.com/GPX/1/1" xmlns:xsi="http://www.w3.org/2001/XMLSchema-instance" xsi:schemaLocation="http://www.topografix.com/GPX/1/1 http://www.topografix.com/GPX/1/1/gpx.xsd" version="1.1" creator="VisuGPX - https://www.visugpx.com">
  <metadata>
    <name>Sun Trip 2019</name>
    <desc><![CDATA[Le parcours du Sun Trip 2019]]></desc>
  </metadata>
  <trk>
    <name><![CDATA[J13]]></name>
    <trkseg>
      <trkpt lat="44.55131" lon="6.48212">
        <ele>786</ele>
        <time>2019-04-18T09:45:45Z</time>
      </trkpt>
      <trkpt lat="44.55157" lon="6.48335">
        <ele>790</ele>
        <time>2019-04-18T09:46:45Z</time>
      </trkpt>
      <trkpt lat="44.55243" lon="6.48319">
        <ele>795</ele>
        <time>2019-04-18T09:47:45Z</time>
      </trkpt>
      <trkpt lat="44.55275" lon="6.48309">
        <ele>797</ele>
        <time>2019-04-18T09:48:45Z</time>
      </trkpt>
      <trkpt lat="44.55381" lon="6.4826">
        <ele>807</ele>
        <time>2019-04-18T09:49:45Z</time>
      </trkpt>
      <trkpt lat="44.55414" lon="6.48243">
        <ele>811</ele>
        <time>2019-04-18T09:50:45Z</time>
      </trkpt>
      <trkpt lat="44.55431" lon="6.48229">
        <ele>813</ele>
        <time>2019-04-18T09:51:45Z</time>
      </trkpt>
      <trkpt lat="44.5545" lon="6.48206">
        <ele>815</ele>
        <time>2019-04-18T09:52:45Z</time>
      </trkpt>
      <trkpt lat="44.55506" lon="6.48128">
        <ele>824</ele>
        <time>2019-04-18T09:53:45Z</time>
      </trkpt>
      <trkpt lat="44.55537" lon="6.48099">
        <ele>827</ele>
        <time>2019-04-18T09:54:45Z</time>
      </trkpt>
      <trkpt lat="44.55628" lon="6.48059">
        <ele>833</ele>
        <time>2019-04-18T09:55:45Z</time>
      </trkpt>
      <trkpt lat="44.5567" lon="6.48037">
        <ele>835</ele>
        <time>2019-04-18T09:56:45Z</time>
      </trkpt>
      <trkpt lat="44.55678" lon="6.48035">
        <ele>836</ele>
        <time>2019-04-18T09:57:45Z</time>
      </trkpt>
      <trkpt lat="44.55686" lon="6.4804">
        <ele>837</ele>
        <time>2019-04-18T09:58:45Z</time>
      </trkpt>
      <trkpt lat="44.55774" lon="6.48213">
        <ele>842</ele>
        <time>2019-04-18T09:59:45Z</time>
      </trkpt>
      <trkpt lat="44.55778" lon="6.48216">
        <ele>842</ele>
        <time>2019-04-18T10:00:45Z</time>
      </trkpt>
      <trkpt lat="44.55783" lon="6.48216">
        <ele>843</ele>
        <time>2019-04-18T10:01:45Z</time>
      </trkpt>
      <trkpt lat="44.55803" lon="6.48191">
        <ele>846</ele>
        <time>2019-04-18T10:02:45Z</time>
      </trkpt>
      <trkpt lat="44.55815" lon="6.48199">
        <ele>847</ele>
        <time>2019-04-18T10:03:45Z</time>
      </trkpt>
      <trkpt lat="44.55871" lon="6.48268">
        <ele>848</ele>
        <time>2019-04-18T10:04:45Z</time>
      </trkpt>
      <trkpt lat="44.55902" lon="6.483">
        <ele>849</ele>
        <time>2019-04-18T10:05:45Z</time>
      </trkpt>
      <trkpt lat="44.55924" lon="6.48315">
        <ele>851</ele>
        <time>2019-04-18T10:06:45Z</time>
      </trkpt>
      <trkpt lat="44.55937" lon="6.48294">
        <ele>855</ele>
        <time>2019-04-18T10:07:45Z</time>
      </trkpt>
      <trkpt lat="44.55948" lon="6.48269">
        <ele>858</ele>
        <time>2019-04-18T10:08:45Z</time>
      </trkpt>
      <trkpt lat="44.55955" lon="6.4814">
        <ele>867</ele>
        <time>2019-04-18T10:09:45Z</time>
      </trkpt>
      <trkpt lat="44.55961" lon="6.48114">
        <ele>868</ele>
        <time>2019-04-18T10:10:45Z</time>
      </trkpt>
      <trkpt lat="44.56006" lon="6.48016">
        <ele>874</ele>
        <time>2019-04-18T10:11:45Z</time>
      </trkpt>
      <trkpt lat="44.56013" lon="6.48009">
        <ele>875</ele>
        <time>2019-04-18T10:12:45Z</time>
      </trkpt>
      <trkpt lat="44.56045" lon="6.47992">
        <ele>880</ele>
        <time>2019-04-18T10:13:45Z</time>
      </trkpt>
      <trkpt lat="44.56053" lon="6.47979">
        <ele>881</ele>
        <time>2019-04-18T10:14:45Z</time>
      </trkpt>
      <trkpt lat="44.56057" lon="6.47964">
        <ele>882</ele>
        <time>2019-04-18T10:15:45Z</time>
      </trkpt>
      <trkpt lat="44.56057" lon="6.47947">
        <ele>883</ele>
        <time>2019-04-18T10:16:45Z</time>
      </trkpt>
      <trkpt lat="44.56053" lon="6.47934">
        <ele>883</ele>
        <time>2019-04-18T10:17:45Z</time>
      </trkpt>
      <trkpt lat="44.56046" lon="6.47923">
        <ele>883</ele>
        <time>2019-04-18T10:18:45Z</time>
      </trkpt>
      <trkpt lat="44.56037" lon="6.47914">
        <ele>883</ele>
        <time>2019-04-18T10:19:45Z</time>
      </trkpt>
      <trkpt lat="44.55995" lon="6.47899">
        <ele>883</ele>
        <time>2019-04-18T10:20:45Z</time>
      </trkpt>
      <trkpt lat="44.55964" lon="6.47893">
        <ele>881</ele>
        <time>2019-04-18T10:21:45Z</time>
      </trkpt>
      <trkpt lat="44.55903" lon="6.47892">
        <ele>874</ele>
        <time>2019-04-18T10:22:45Z</time>
      </trkpt>
      <trkpt lat="44.55894" lon="6.47887">
        <ele>874</ele>
        <time>2019-04-18T10:23:45Z</time>
      </trkpt>
      <trkpt lat="44.55887" lon="6.47872">
        <ele>877</ele>
        <time>2019-04-18T10:24:45Z</time>
      </trkpt>
      <trkpt lat="44.5588" lon="6.47847">
        <ele>881</ele>
        <time>2019-04-18T10:25:45Z</time>
      </trkpt>
      <trkpt lat="44.55876" lon="6.47824">
        <ele>885</ele>
        <time>2019-04-18T10:26:45Z</time>
      </trkpt>
      <trkpt lat="44.55881" lon="6.47775">
        <ele>893</ele>
        <time>2019-04-18T10:27:45Z</time>
      </trkpt>
      <trkpt lat="44.55877" lon="6.47763">
        <ele>895</ele>
        <time>2019-04-18T10:28:45Z</time>
      </trkpt>
      <trkpt lat="44.55868" lon="6.47755">
        <ele>895</ele>
        <time>2019-04-18T10:29:45Z</time>
      </trkpt>
      <trkpt lat="44.55858" lon="6.47754">
        <ele>895</ele>
        <time>2019-04-18T10:30:45Z</time>
      </trkpt>
      <trkpt lat="44.55842" lon="6.47758">
        <ele>893</ele>
        <time>2019-04-18T10:31:45Z</time>
      </trkpt>
      <trkpt lat="44.55833" lon="6.47756">
        <ele>893</ele>
        <time>2019-04-18T10:32:45Z</time>
      </trkpt>
      <trkpt lat="44.55786" lon="6.47724">
        <ele>891</ele>
        <time>2019-04-18T10:33:45Z</time>
      </trkpt>
      <trkpt lat="44.55779" lon="6.47715">
        <ele>892</ele>
        <time>2019-04-18T10:34:45Z</time>
      </trkpt>
      <trkpt lat="44.55772" lon="6.47699">
        <ele>893</ele>
        <time>2019-04-18T10:35:45Z</time>
      </trkpt>
      <trkpt lat="44.5575" lon="6.4761">
        <ele>903</ele>
        <time>2019-04-18T10:36:45Z</time>
      </trkpt>
      <trkpt lat="44.55731" lon="6.47585">
        <ele>903</ele>
        <time>2019-04-18T10:37:45Z</time>
      </trkpt>
      <trkpt lat="44.55719" lon="6.47565">
        <ele>904</ele>
        <time>2019-04-18T10:38:45Z</time>
      </trkpt>
      <trkpt lat="44.55714" lon="6.47551">
        <ele>905</ele>
        <time>2019-04-18T10:39:45Z</time>
      </trkpt>
      <trkpt lat="44.55713" lon="6.4754">
        <ele>907</ele>
        <time>2019-04-18T10:40:45Z</time>
      </trkpt>
      <trkpt lat="44.55717" lon="6.47513">
        <ele>912</ele>
        <time>2019-04-18T10:41:45Z</time>
      </trkpt>
      <trkpt lat="44.55718" lon="6.47499">
        <ele>915</ele>
        <time>2019-04-18T10:42:45Z</time>
      </trkpt>
      <trkpt lat="44.55717" lon="6.47486">
        <ele>916</ele>
        <time>2019-04-18T10:43:45Z</time>
      </trkpt>
      <trkpt lat="44.55694" lon="6.47433">
        <ele>918</ele>
        <time>2019-04-18T10:44:45Z</time>
      </trkpt>
      <trkpt lat="44.55689" lon="6.47416">
        <ele>919</ele>
        <time>2019-04-18T10:45:45Z</time>
      </trkpt>
      <trkpt lat="44.5569" lon="6.47405">
        <ele>920</ele>
        <time>2019-04-18T10:46:45Z</time>
      </trkpt>
      <trkpt lat="44.55694" lon="6.47387">
        <ele>922</ele>
        <time>2019-04-18T10:47:45Z</time>
      </trkpt>
      <trkpt lat="44.55696" lon="6.47373">
        <ele>923</ele>
        <time>2019-04-18T10:48:45Z</time>
      </trkpt>
      <trkpt lat="44.55696" lon="6.47355">
        <ele>924</ele>
        <time>2019-04-18T10:49:45Z</time>
      </trkpt>
      <trkpt lat="44.55692" lon="6.47339">
        <ele>924</ele>
        <time>2019-04-18T10:50:45Z</time>
      </trkpt>
      <trkpt lat="44.55671" lon="6.47287">
        <ele>925</ele>
        <time>2019-04-18T10:51:45Z</time>
      </trkpt>
      <trkpt lat="44.55655" lon="6.47232">
        <ele>925</ele>
        <time>2019-04-18T10:52:45Z</time>
      </trkpt>
      <trkpt lat="44.55647" lon="6.47194">
        <ele>925</ele>
        <time>2019-04-18T10:53:45Z</time>
      </trkpt>
      <trkpt lat="44.55645" lon="6.47177">
        <ele>925</ele>
        <time>2019-04-18T10:54:45Z</time>
      </trkpt>
      <trkpt lat="44.55647" lon="6.47158">
        <ele>926</ele>
        <time>2019-04-18T10:55:45Z</time>
      </trkpt>
      <trkpt lat="44.55655" lon="6.47138">
        <ele>929</ele>
        <time>2019-04-18T10:56:45Z</time>
      </trkpt>
      <trkpt lat="44.55671" lon="6.47107">
        <ele>933</ele>
        <time>2019-04-18T10:57:45Z</time>
      </trkpt>
      <trkpt lat="44.55691" lon="6.47057">
        <ele>937</ele>
        <time>2019-04-18T10:58:45Z</time>
      </trkpt>
      <trkpt lat="44.55727" lon="6.46957">
        <ele>945</ele>
        <time>2019-04-18T10:59:45Z</time>
      </trkpt>
      <trkpt lat="44.55739" lon="6.46881">
        <ele>948</ele>
        <time>2019-04-18T11:00:45Z</time>
      </trkpt>
      <trkpt lat="44.55745" lon="6.46858">
        <ele>950</ele>
        <time>2019-04-18T11:01:45Z</time>
      </trkpt>
      <trkpt lat="44.55753" lon="6.46843">
        <ele>951</ele>
        <time>2019-04-18T11:02:45Z</time>
      </trkpt>
      <trkpt lat="44.55812" lon="6.46776">
        <ele>965</ele>
        <time>2019-04-18T11:03:45Z</time>
      </trkpt>
      <trkpt lat="44.55815" lon="6.46764">
        <ele>965</ele>
        <time>2019-04-18T11:04:45Z</time>
      </trkpt>
      <trkpt lat="44.55815" lon="6.4675">
        <ele>965</ele>
        <time>2019-04-18T11:05:45Z</time>
      </trkpt>
      <trkpt lat="44.55807" lon="6.46717">
        <ele>967</ele>
        <time>2019-04-18T11:06:45Z</time>
      </trkpt>
      <trkpt lat="44.55803" lon="6.46666">
        <ele>972</ele>
        <time>2019-04-18T11:07:45Z</time>
      </trkpt>
      <trkpt lat="44.55799" lon="6.46652">
        <ele>973</ele>
        <time>2019-04-18T11:08:45Z</time>
      </trkpt>
      <trkpt lat="44.55795" lon="6.46645">
        <ele>974</ele>
        <time>2019-04-18T11:09:45Z</time>
      </trkpt>
      <trkpt lat="44.55762" lon="6.46617">
        <ele>973</ele>
        <time>2019-04-18T11:10:45Z</time>
      </trkpt>
      <trkpt lat="44.55754" lon="6.46606">
        <ele>973</ele>
        <time>2019-04-18T11:11:45Z</time>
      </trkpt>
      <trkpt lat="44.5574" lon="6.46579">
        <ele>973</ele>
        <time>2019-04-18T11:12:45Z</time>
      </trkpt>
      <trkpt lat="44.55731" lon="6.46549">
        <ele>974</ele>
        <time>2019-04-18T11:13:45Z</time>
      </trkpt>
      <trkpt lat="44.55729" lon="6.46534">
        <ele>974</ele>
        <time>2019-04-18T11:14:45Z</time>
      </trkpt>
      <trkpt lat="44.5573" lon="6.46515">
        <ele>976</ele>
        <time>2019-04-18T11:15:45Z</time>
      </trkpt>
      <trkpt lat="44.55735" lon="6.46491">
        <ele>979</ele>
        <time>2019-04-18T11:16:45Z</time>
      </trkpt>
      <trkpt lat="44.55754" lon="6.46435">
        <ele>989</ele>
        <time>2019-04-18T11:17:45Z</time>
      </trkpt>
      <trkpt lat="44.5576" lon="6.46401">
        <ele>992</ele>
        <time>2019-04-18T11:18:45Z</time>
      </trkpt>
      <trkpt lat="44.55762" lon="6.46366">
        <ele>994</ele>
        <time>2019-04-18T11:19:45Z</time>
      </trkpt>
      <trkpt lat="44.5576" lon="6.46328">
        <ele>995</ele>
        <time>2019-04-18T11:20:45Z</time>
      </trkpt>
      <trkpt lat="44.55765" lon="6.46303">
        <ele>999</ele>
        <time>2019-04-18T11:21:45Z</time>
      </trkpt>
      <trkpt lat="44.55765" lon="6.46286">
        <ele>1001</ele>
        <time>2019-04-18T11:22:45Z</time>
      </trkpt>
      <trkpt lat="44.55744" lon="6.46195">
        <ele>1004</ele>
        <time>2019-04-18T11:23:45Z</time>
      </trkpt>
      <trkpt lat="44.55737" lon="6.46156">
        <ele>1005</ele>
        <time>2019-04-18T11:24:45Z</time>
      </trkpt>
      <trkpt lat="44.55736" lon="6.46136">
        <ele>1004</ele>
        <time>2019-04-18T11:25:45Z</time>
      </trkpt>
      <trkpt lat="44.55737" lon="6.46116">
        <ele>1004</ele>
        <time>2019-04-18T11:26:45Z</time>
      </trkpt>
      <trkpt lat="44.55742" lon="6.46097">
        <ele>1006</ele>
        <time>2019-04-18T11:27:45Z</time>
      </trkpt>
      <trkpt lat="44.55758" lon="6.4606">
        <ele>1013</ele>
        <time>2019-04-18T11:28:45Z</time>
      </trkpt>
      <trkpt lat="44.55777" lon="6.46039">
        <ele>1022</ele>
        <time>2019-04-18T11:29:45Z</time>
      </trkpt>
      <trkpt lat="44.5578" lon="6.4603">
        <ele>1024</ele>
        <time>2019-04-18T11:30:45Z</time>
      </trkpt>
      <trkpt lat="44.55781" lon="6.4602">
        <ele>1024</ele>
        <time>2019-04-18T11:31:45Z</time>
      </trkpt>
      <trkpt lat="44.55779" lon="6.46005">
        <ele>1024</ele>
        <time>2019-04-18T11:32:45Z</time>
      </trkpt>
      <trkpt lat="44.55782" lon="6.45987">
        <ele>1027</ele>
        <time>2019-04-18T11:33:45Z</time>
      </trkpt>
      <trkpt lat="44.55782" lon="6.45977">
        <ele>1028</ele>
        <time>2019-04-18T11:34:45Z</time>
      </trkpt>
      <trkpt lat="44.5578" lon="6.45969">
        <ele>1028</ele>
        <time>2019-04-18T11:35:45Z</time>
      </trkpt>
      <trkpt lat="44.55774" lon="6.45963">
        <ele>1026</ele>
        <time>2019-04-18T11:36:45Z</time>
      </trkpt>
      <trkpt lat="44.55765" lon="6.45959">
        <ele>1022</ele>
        <time>2019-04-18T11:37:45Z</time>
      </trkpt>
      <trkpt lat="44.55757" lon="6.45945">
        <ele>1021</ele>
        <time>2019-04-18T11:38:45Z</time>
      </trkpt>
      <trkpt lat="44.55755" lon="6.45935">
        <ele>1021</ele>
        <time>2019-04-18T11:39:45Z</time>
      </trkpt>
      <trkpt lat="44.55759" lon="6.45916">
        <ele>1025</ele>
        <time>2019-04-18T11:40:45Z</time>
      </trkpt>
      <trkpt lat="44.55766" lon="6.45907">
        <ele>1027</ele>
        <time>2019-04-18T11:41:45Z</time>
      </trkpt>
      <trkpt lat="44.55781" lon="6.45897">
        <ele>1032</ele>
        <time>2019-04-18T11:42:45Z</time>
      </trkpt>
      <trkpt lat="44.55786" lon="6.4589">
        <ele>1033</ele>
        <time>2019-04-18T11:43:45Z</time>
      </trkpt>
      <trkpt lat="44.55792" lon="6.45868">
        <ele>1032</ele>
        <time>2019-04-18T11:44:45Z</time>
      </trkpt>
      <trkpt lat="44.558" lon="6.45855">
        <ele>1033</ele>
        <time>2019-04-18T11:45:45Z</time>
      </trkpt>
      <trkpt lat="44.55821" lon="6.45835">
        <ele>1038</ele>
        <time>2019-04-18T11:46:45Z</time>
      </trkpt>
      <trkpt lat="44.55835" lon="6.45805">
        <ele>1038</ele>
        <time>2019-04-18T11:47:45Z</time>
      </trkpt>
      <trkpt lat="44.55854" lon="6.45788">
        <ele>1041</ele>
        <time>2019-04-18T11:48:45Z</time>
      </trkpt>
      <trkpt lat="44.55869" lon="6.45771">
        <ele>1043</ele>
        <time>2019-04-18T11:49:45Z</time>
      </trkpt>
      <trkpt lat="44.55884" lon="6.45744">
        <ele>1042</ele>
        <time>2019-04-18T11:50:45Z</time>
      </trkpt>
      <trkpt lat="44.55891" lon="6.45736">
        <ele>1043</ele>
        <time>2019-04-18T11:51:45Z</time>
      </trkpt>
      <trkpt lat="44.55898" lon="6.45731">
        <ele>1044</ele>
        <time>2019-04-18T11:52:45Z</time>
      </trkpt>
      <trkpt lat="44.55923" lon="6.45724">
        <ele>1051</ele>
        <time>2019-04-18T11:53:45Z</time>
      </trkpt>
      <trkpt lat="44.55931" lon="6.45719">
        <ele>1053</ele>
        <time>2019-04-18T11:54:45Z</time>
      </trkpt>
      <trkpt lat="44.5594" lon="6.45707">
        <ele>1055</ele>
        <time>2019-04-18T11:55:45Z</time>
      </trkpt>
      <trkpt lat="44.55951" lon="6.45696">
        <ele>1058</ele>
        <time>2019-04-18T11:56:45Z</time>
      </trkpt>
      <trkpt lat="44.55981" lon="6.45652">
        <ele>1063</ele>
        <time>2019-04-18T11:57:45Z</time>
      </trkpt>
      <trkpt lat="44.55987" lon="6.45639">
        <ele>1064</ele>
        <time>2019-04-18T11:58:45Z</time>
      </trkpt>
      <trkpt lat="44.55989" lon="6.45624">
        <ele>1063</ele>
        <time>2019-04-18T11:59:45Z</time>
      </trkpt>
      <trkpt lat="44.55988" lon="6.45612">
        <ele>1062</ele>
        <time>2019-04-18T12:00:45Z</time>
      </trkpt>
      <trkpt lat="44.55969" lon="6.45565">
        <ele>1055</ele>
        <time>2019-04-18T12:01:45Z</time>
      </trkpt>
      <trkpt lat="44.55957" lon="6.45522">
        <ele>1056</ele>
        <time>2019-04-18T12:02:45Z</time>
      </trkpt>
      <trkpt lat="44.55939" lon="6.45492">
        <ele>1056</ele>
        <time>2019-04-18T12:03:45Z</time>
      </trkpt>
      <trkpt lat="44.55917" lon="6.45442">
        <ele>1064</ele>
        <time>2019-04-18T12:04:45Z</time>
      </trkpt>
      <trkpt lat="44.55894" lon="6.45381">
        <ele>1075</ele>
        <time>2019-04-18T12:05:45Z</time>
      </trkpt>
      <trkpt lat="44.55835" lon="6.45271">
        <ele>1079</ele>
        <time>2019-04-18T12:06:45Z</time>
      </trkpt>
      <trkpt lat="44.55812" lon="6.45219">
        <ele>1088</ele>
        <time>2019-04-18T12:07:45Z</time>
      </trkpt>
      <trkpt lat="44.55807" lon="6.45213">
        <ele>1089</ele>
        <time>2019-04-18T12:08:45Z</time>
      </trkpt>
      <trkpt lat="44.55775" lon="6.45195">
        <ele>1088</ele>
        <time>2019-04-18T12:09:45Z</time>
      </trkpt>
      <trkpt lat="44.55722" lon="6.45156">
        <ele>1093</ele>
        <time>2019-04-18T12:10:45Z</time>
      </trkpt>
      <trkpt lat="44.55661" lon="6.45127">
        <ele>1095</ele>
        <time>2019-04-18T12:11:45Z</time>
      </trkpt>
      <trkpt lat="44.55641" lon="6.45121">
        <ele>1097</ele>
        <time>2019-04-18T12:12:45Z</time>
      </trkpt>
      <trkpt lat="44.55625" lon="6.45122">
        <ele>1096</ele>
        <time>2019-04-18T12:13:45Z</time>
      </trkpt>
      <trkpt lat="44.55613" lon="6.45126">
        <ele>1094</ele>
        <time>2019-04-18T12:14:45Z</time>
      </trkpt>
      <trkpt lat="44.55595" lon="6.45139">
        <ele>1089</ele>
        <time>2019-04-18T12:15:45Z</time>
      </trkpt>
      <trkpt lat="44.55576" lon="6.4514">
        <ele>1088</ele>
        <time>2019-04-18T12:16:45Z</time>
      </trkpt>
      <trkpt lat="44.55556" lon="6.45136">
        <ele>1087</ele>
        <time>2019-04-18T12:17:45Z</time>
      </trkpt>
      <trkpt lat="44.55542" lon="6.45129">
        <ele>1087</ele>
        <time>2019-04-18T12:18:45Z</time>
      </trkpt>
      <trkpt lat="44.55536" lon="6.45121">
        <ele>1089</ele>
        <time>2019-04-18T12:19:45Z</time>
      </trkpt>
      <trkpt lat="44.55533" lon="6.45109">
        <ele>1091</ele>
        <time>2019-04-18T12:20:45Z</time>
      </trkpt>
      <trkpt lat="44.55528" lon="6.44897">
        <ele>1112</ele>
        <time>2019-04-18T12:21:45Z</time>
      </trkpt>
      <trkpt lat="44.55529" lon="6.44876">
        <ele>1113</ele>
        <time>2019-04-18T12:22:45Z</time>
      </trkpt>
      <trkpt lat="44.55548" lon="6.44789">
        <ele>1123</ele>
        <time>2019-04-18T12:23:45Z</time>
      </trkpt>
      <trkpt lat="44.55548" lon="6.44771">
        <ele>1124</ele>
        <time>2019-04-18T12:24:45Z</time>
      </trkpt>
      <trkpt lat="44.55543" lon="6.44732">
        <ele>1125</ele>
        <time>2019-04-18T12:25:45Z</time>
      </trkpt>
      <trkpt lat="44.55542" lon="6.44701">
        <ele>1126</ele>
        <time>2019-04-18T12:26:45Z</time>
      </trkpt>
      <trkpt lat="44.55553" lon="6.44624">
        <ele>1134</ele>
        <time>2019-04-18T12:27:45Z</time>
      </trkpt>
      <trkpt lat="44.55551" lon="6.44587">
        <ele>1136</ele>
        <time>2019-04-18T12:28:45Z</time>
      </trkpt>
      <trkpt lat="44.55541" lon="6.44506">
        <ele>1139</ele>
        <time>2019-04-18T12:29:45Z</time>
      </trkpt>
      <trkpt lat="44.55538" lon="6.44462">
        <ele>1142</ele>
        <time>2019-04-18T12:30:45Z</time>
      </trkpt>
      <trkpt lat="44.55537" lon="6.44409">
        <ele>1145</ele>
        <time>2019-04-18T12:31:45Z</time>
      </trkpt>
      <trkpt lat="44.55544" lon="6.44362">
        <ele>1148</ele>
        <time>2019-04-18T12:32:45Z</time>
      </trkpt>
      <trkpt lat="44.55577" lon="6.44214">
        <ele>1159</ele>
        <time>2019-04-18T12:33:45Z</time>
      </trkpt>
      <trkpt lat="44.55582" lon="6.44162">
        <ele>1161</ele>
        <time>2019-04-18T12:34:45Z</time>
      </trkpt>
      <trkpt lat="44.55583" lon="6.44122">
        <ele>1160</ele>
        <time>2019-04-18T12:35:45Z</time>
      </trkpt>
      <trkpt lat="44.55579" lon="6.44066">
        <ele>1160</ele>
        <time>2019-04-18T12:36:45Z</time>
      </trkpt>
      <trkpt lat="44.5557" lon="6.44002">
        <ele>1160</ele>
        <time>2019-04-18T12:37:45Z</time>
      </trkpt>
      <trkpt lat="44.55562" lon="6.43912">
        <ele>1158</ele>
        <time>2019-04-18T12:38:45Z</time>
      </trkpt>
      <trkpt lat="44.55559" lon="6.43858">
        <ele>1158</ele>
        <time>2019-04-18T12:39:45Z</time>
      </trkpt>
      <trkpt lat="44.55562" lon="6.43836">
        <ele>1159</ele>
        <time>2019-04-18T12:40:45Z</time>
      </trkpt>
      <trkpt lat="44.55586" lon="6.4379">
        <ele>1162</ele>
        <time>2019-04-18T12:41:45Z</time>
      </trkpt>
      <trkpt lat="44.55629" lon="6.43728">
        <ele>1167</ele>
        <time>2019-04-18T12:42:45Z</time>
      </trkpt>
      <trkpt lat="44.55652" lon="6.43689">
        <ele>1169</ele>
        <time>2019-04-18T12:43:45Z</time>
      </trkpt>
      <trkpt lat="44.55668" lon="6.4365">
        <ele>1169</ele>
        <time>2019-04-18T12:44:45Z</time>
      </trkpt>
      <trkpt lat="44.55684" lon="6.43602">
        <ele>1169</ele>
        <time>2019-04-18T12:45:45Z</time>
      </trkpt>
      <trkpt lat="44.55696" lon="6.43582">
        <ele>1169</ele>
        <time>2019-04-18T12:46:45Z</time>
      </trkpt>
      <trkpt lat="44.55758" lon="6.43488">
        <ele>1172</ele>
        <time>2019-04-18T12:47:45Z</time>
      </trkpt>
      <trkpt lat="44.55766" lon="6.4347">
        <ele>1174</ele>
        <time>2019-04-18T12:48:45Z</time>
      </trkpt>
      <trkpt lat="44.55779" lon="6.43409">
        <ele>1176</ele>
        <time>2019-04-18T12:49:45Z</time>
      </trkpt>
      <trkpt lat="44.55782" lon="6.434">
        <ele>1176</ele>
        <time>2019-04-18T12:50:45Z</time>
      </trkpt>
      <trkpt lat="44.55815" lon="6.43361">
        <ele>1180</ele>
        <time>2019-04-18T12:51:45Z</time>
      </trkpt>
      <trkpt lat="44.5582" lon="6.43351">
        <ele>1180</ele>
        <time>2019-04-18T12:52:45Z</time>
      </trkpt>
      <trkpt lat="44.55824" lon="6.43339">
        <ele>1180</ele>
        <time>2019-04-18T12:53:45Z</time>
      </trkpt>
      <trkpt lat="44.55833" lon="6.43285">
        <ele>1179</ele>
        <time>2019-04-18T12:54:45Z</time>
      </trkpt>
      <trkpt lat="44.55839" lon="6.43244">
        <ele>1179</ele>
        <time>2019-04-18T12:55:45Z</time>
      </trkpt>
      <trkpt lat="44.55839" lon="6.43219">
        <ele>1179</ele>
        <time>2019-04-18T12:56:45Z</time>
      </trkpt>
      <trkpt lat="44.55819" lon="6.43092">
        <ele>1179</ele>
        <time>2019-04-18T12:57:45Z</time>
      </trkpt>
      <trkpt lat="44.55821" lon="6.43022">
        <ele>1179</ele>
        <time>2019-04-18T12:58:45Z</time>
      </trkpt>
      <trkpt lat="44.55821" lon="6.42937">
        <ele>1180</ele>
        <time>2019-04-18T12:59:45Z</time>
      </trkpt>
      <trkpt lat="44.55839" lon="6.42863">
        <ele>1184</ele>
        <time>2019-04-18T13:00:45Z</time>
      </trkpt>
      <trkpt lat="44.55853" lon="6.42786">
        <ele>1190</ele>
        <time>2019-04-18T13:01:45Z</time>
      </trkpt>
      <trkpt lat="44.55855" lon="6.42769">
        <ele>1191</ele>
        <time>2019-04-18T13:02:45Z</time>
      </trkpt>
      <trkpt lat="44.55855" lon="6.42753">
        <ele>1192</ele>
        <time>2019-04-18T13:03:45Z</time>
      </trkpt>
      <trkpt lat="44.55848" lon="6.42707">
        <ele>1193</ele>
        <time>2019-04-18T13:04:45Z</time>
      </trkpt>
      <trkpt lat="44.55847" lon="6.42685">
        <ele>1194</ele>
        <time>2019-04-18T13:05:45Z</time>
      </trkpt>
      <trkpt lat="44.55847" lon="6.42653">
        <ele>1195</ele>
        <time>2019-04-18T13:06:45Z</time>
      </trkpt>
      <trkpt lat="44.5585" lon="6.42625">
        <ele>1197</ele>
        <time>2019-04-18T13:07:45Z</time>
      </trkpt>
      <trkpt lat="44.55867" lon="6.42576">
        <ele>1200</ele>
        <time>2019-04-18T13:08:45Z</time>
      </trkpt>
      <trkpt lat="44.55875" lon="6.4256">
        <ele>1201</ele>
        <time>2019-04-18T13:09:45Z</time>
      </trkpt>
      <trkpt lat="44.55888" lon="6.42543">
        <ele>1202</ele>
        <time>2019-04-18T13:10:45Z</time>
      </trkpt>
      <trkpt lat="44.55919" lon="6.42519">
        <ele>1206</ele>
        <time>2019-04-18T13:11:45Z</time>
      </trkpt>
      <trkpt lat="44.55955" lon="6.42512">
        <ele>1211</ele>
        <time>2019-04-18T13:12:45Z</time>
      </trkpt>
      <trkpt lat="44.55972" lon="6.42505">
        <ele>1214</ele>
        <time>2019-04-18T13:13:45Z</time>
      </trkpt>
      <trkpt lat="44.55999" lon="6.42487">
        <ele>1217</ele>
        <time>2019-04-18T13:14:45Z</time>
      </trkpt>
      <trkpt lat="44.56011" lon="6.42476">
        <ele>1220</ele>
        <time>2019-04-18T13:15:45Z</time>
      </trkpt>
      <trkpt lat="44.5602" lon="6.42459">
        <ele>1221</ele>
        <time>2019-04-18T13:16:45Z</time>
      </trkpt>
      <trkpt lat="44.56026" lon="6.42438">
        <ele>1221</ele>
        <time>2019-04-18T13:17:45Z</time>
      </trkpt>
      <trkpt lat="44.56031" lon="6.42416">
        <ele>1220</ele>
        <time>2019-04-18T13:18:45Z</time>
      </trkpt>
      <trkpt lat="44.56032" lon="6.42395">
        <ele>1221</ele>
        <time>2019-04-18T13:19:45Z</time>
      </trkpt>
      <trkpt lat="44.56031" lon="6.42369">
        <ele>1221</ele>
        <time>2019-04-18T13:20:45Z</time>
      </trkpt>
      <trkpt lat="44.56027" lon="6.42339">
        <ele>1220</ele>
        <time>2019-04-18T13:21:45Z</time>
      </trkpt>
      <trkpt lat="44.5602" lon="6.42304">
        <ele>1219</ele>
        <time>2019-04-18T13:22:45Z</time>
      </trkpt>
      <trkpt lat="44.56012" lon="6.4228">
        <ele>1218</ele>
        <time>2019-04-18T13:23:45Z</time>
      </trkpt>
      <trkpt lat="44.55997" lon="6.42244">
        <ele>1216</ele>
        <time>2019-04-18T13:24:45Z</time>
      </trkpt>
      <trkpt lat="44.55992" lon="6.42225">
        <ele>1215</ele>
        <time>2019-04-18T13:25:45Z</time>
      </trkpt>
      <trkpt lat="44.55992" lon="6.42192">
        <ele>1215</ele>
        <time>2019-04-18T13:26:45Z</time>
      </trkpt>
      <trkpt lat="44.5601" lon="6.42098">
        <ele>1213</ele>
        <time>2019-04-18T13:27:45Z</time>
      </trkpt>
      <trkpt lat="44.56035" lon="6.42045">
        <ele>1212</ele>
        <time>2019-04-18T13:28:45Z</time>
      </trkpt>
      <trkpt lat="44.56042" lon="6.42022">
        <ele>1211</ele>
        <time>2019-04-18T13:29:45Z</time>
      </trkpt>
      <trkpt lat="44.56099" lon="6.41778">
        <ele>1199</ele>
        <time>2019-04-18T13:30:45Z</time>
      </trkpt>
      <trkpt lat="44.56109" lon="6.4171">
        <ele>1195</ele>
        <time>2019-04-18T13:31:45Z</time>
      </trkpt>
      <trkpt lat="44.56122" lon="6.4151">
        <ele>1187</ele>
        <time>2019-04-18T13:32:45Z</time>
      </trkpt>
      <trkpt lat="44.56132" lon="6.41427">
        <ele>1186</ele>
        <time>2019-04-18T13:33:45Z</time>
      </trkpt>
      <trkpt lat="44.56139" lon="6.41394">
        <ele>1186</ele>
        <time>2019-04-18T13:34:45Z</time>
      </trkpt>
      <trkpt lat="44.56155" lon="6.41346">
        <ele>1187</ele>
        <time>2019-04-18T13:35:45Z</time>
      </trkpt>
      <trkpt lat="44.56167" lon="6.41303">
        <ele>1186</ele>
        <time>2019-04-18T13:36:45Z</time>
      </trkpt>
      <trkpt lat="44.56182" lon="6.41263">
        <ele>1186</ele>
        <time>2019-04-18T13:37:45Z</time>
      </trkpt>
      <trkpt lat="44.56201" lon="6.41222">
        <ele>1186</ele>
        <time>2019-04-18T13:38:45Z</time>
      </trkpt>
      <trkpt lat="44.5626" lon="6.4111">
        <ele>1188</ele>
        <time>2019-04-18T13:39:45Z</time>
      </trkpt>
      <trkpt lat="44.563" lon="6.41046">
        <ele>1192</ele>
        <time>2019-04-18T13:40:45Z</time>
      </trkpt>
      <trkpt lat="44.56305" lon="6.41031">
        <ele>1193</ele>
        <time>2019-04-18T13:41:45Z</time>
      </trkpt>
      <trkpt lat="44.56318" lon="6.40905">
        <ele>1188</ele>
        <time>2019-04-18T13:42:45Z</time>
      </trkpt>
      <trkpt lat="44.56321" lon="6.40885">
        <ele>1187</ele>
        <time>2019-04-18T13:43:45Z</time>
      </trkpt>
      <trkpt lat="44.56328" lon="6.40868">
        <ele>1187</ele>
        <time>2019-04-18T13:44:45Z</time>
      </trkpt>
      <trkpt lat="44.56338" lon="6.40853">
        <ele>1187</ele>
        <time>2019-04-18T13:45:45Z</time>
      </trkpt>
      <trkpt lat="44.56369" lon="6.40832">
        <ele>1190</ele>
        <time>2019-04-18T13:46:45Z</time>
      </trkpt>
      <trkpt lat="44.56381" lon="6.40819">
        <ele>1190</ele>
        <time>2019-04-18T13:47:45Z</time>
      </trkpt>
      <trkpt lat="44.56387" lon="6.40805">
        <ele>1190</ele>
        <time>2019-04-18T13:48:45Z</time>
      </trkpt>
      <trkpt lat="44.56388" lon="6.4079">
        <ele>1190</ele>
        <time>2019-04-18T13:49:45Z</time>
      </trkpt>
      <trkpt lat="44.56388" lon="6.40764">
        <ele>1188</ele>
        <time>2019-04-18T13:50:45Z</time>
      </trkpt>
      <trkpt lat="44.56367" lon="6.40615">
        <ele>1174</ele>
        <time>2019-04-18T13:51:45Z</time>
      </trkpt>
      <trkpt lat="44.56371" lon="6.40563">
        <ele>1171</ele>
        <time>2019-04-18T13:52:45Z</time>
      </trkpt>
      <trkpt lat="44.56373" lon="6.4052">
        <ele>1168</ele>
        <time>2019-04-18T13:53:45Z</time>
      </trkpt>
      <trkpt lat="44.56379" lon="6.40493">
        <ele>1167</ele>
        <time>2019-04-18T13:54:45Z</time>
      </trkpt>
      <trkpt lat="44.56387" lon="6.40478">
        <ele>1167</ele>
        <time>2019-04-18T13:55:45Z</time>
      </trkpt>
      <trkpt lat="44.56395" lon="6.40469">
        <ele>1168</ele>
        <time>2019-04-18T13:56:45Z</time>
      </trkpt>
      <trkpt lat="44.56406" lon="6.40464">
        <ele>1170</ele>
        <time>2019-04-18T13:57:45Z</time>
      </trkpt>
      <trkpt lat="44.5645" lon="6.40464">
        <ele>1176</ele>
        <time>2019-04-18T13:58:45Z</time>
      </trkpt>
      <trkpt lat="44.56459" lon="6.40459">
        <ele>1176</ele>
        <time>2019-04-18T13:59:45Z</time>
      </trkpt>
      <trkpt lat="44.56466" lon="6.4045">
        <ele>1175</ele>
        <time>2019-04-18T14:00:45Z</time>
      </trkpt>
      <trkpt lat="44.56473" lon="6.40435">
        <ele>1174</ele>
        <time>2019-04-18T14:01:45Z</time>
      </trkpt>
      <trkpt lat="44.56495" lon="6.40334">
        <ele>1168</ele>
        <time>2019-04-18T14:02:45Z</time>
      </trkpt>
      <trkpt lat="44.565" lon="6.40319">
        <ele>1167</ele>
        <time>2019-04-18T14:03:45Z</time>
      </trkpt>
      <trkpt lat="44.56527" lon="6.40276">
        <ele>1164</ele>
        <time>2019-04-18T14:04:45Z</time>
      </trkpt>
      <trkpt lat="44.56537" lon="6.40267">
        <ele>1164</ele>
        <time>2019-04-18T14:05:45Z</time>
      </trkpt>
      <trkpt lat="44.56546" lon="6.40263">
        <ele>1164</ele>
        <time>2019-04-18T14:06:45Z</time>
      </trkpt>
      <trkpt lat="44.56555" lon="6.40262">
        <ele>1164</ele>
        <time>2019-04-18T14:07:45Z</time>
      </trkpt>
      <trkpt lat="44.56583" lon="6.4027">
        <ele>1167</ele>
        <time>2019-04-18T14:08:45Z</time>
      </trkpt>
      <trkpt lat="44.56601" lon="6.4027">
        <ele>1167</ele>
        <time>2019-04-18T14:09:45Z</time>
      </trkpt>
      <trkpt lat="44.56624" lon="6.40263">
        <ele>1166</ele>
        <time>2019-04-18T14:10:45Z</time>
      </trkpt>
      <trkpt lat="44.56637" lon="6.40256">
        <ele>1165</ele>
        <time>2019-04-18T14:11:45Z</time>
      </trkpt>
      <trkpt lat="44.56649" lon="6.40242">
        <ele>1164</ele>
        <time>2019-04-18T14:12:45Z</time>
      </trkpt>
      <trkpt lat="44.56672" lon="6.40181">
        <ele>1161</ele>
        <time>2019-04-18T14:13:45Z</time>
      </trkpt>
      <trkpt lat="44.5669" lon="6.40122">
        <ele>1161</ele>
        <time>2019-04-18T14:14:45Z</time>
      </trkpt>
      <trkpt lat="44.56701" lon="6.40118">
        <ele>1162</ele>
        <time>2019-04-18T14:15:45Z</time>
      </trkpt>
      <trkpt lat="44.56726" lon="6.40118">
        <ele>1162</ele>
        <time>2019-04-18T14:16:45Z</time>
      </trkpt>
      <trkpt lat="44.5674" lon="6.4012">
        <ele>1163</ele>
        <time>2019-04-18T14:17:45Z</time>
      </trkpt>
      <trkpt lat="44.56771" lon="6.40131">
        <ele>1162</ele>
        <time>2019-04-18T14:18:45Z</time>
      </trkpt>
      <trkpt lat="44.56807" lon="6.4013">
        <ele>1161</ele>
        <time>2019-04-18T14:19:45Z</time>
      </trkpt>
      <trkpt lat="44.56844" lon="6.40146">
        <ele>1161</ele>
        <time>2019-04-18T14:20:45Z</time>
      </trkpt>
      <trkpt lat="44.56866" lon="6.40153">
        <ele>1160</ele>
        <time>2019-04-18T14:21:45Z</time>
      </trkpt>
      <trkpt lat="44.56896" lon="6.40167">
        <ele>1160</ele>
        <time>2019-04-18T14:22:45Z</time>
      </trkpt>
      <trkpt lat="44.56903" lon="6.40169">
        <ele>1160</ele>
        <time>2019-04-18T14:23:45Z</time>
      </trkpt>
      <trkpt lat="44.56937" lon="6.40168">
        <ele>1160</ele>
        <time>2019-04-18T14:24:45Z</time>
      </trkpt>
      <trkpt lat="44.57007" lon="6.40194">
        <ele>1166</ele>
        <time>2019-04-18T14:25:45Z</time>
      </trkpt>
      <trkpt lat="44.57062" lon="6.40194">
        <ele>1167</ele>
        <time>2019-04-18T14:26:45Z</time>
      </trkpt>
      <trkpt lat="44.57144" lon="6.40181">
        <ele>1164</ele>
        <time>2019-04-18T14:27:45Z</time>
      </trkpt>
      <trkpt lat="44.5716" lon="6.40176">
        <ele>1163</ele>
        <time>2019-04-18T14:28:45Z</time>
      </trkpt>
      <trkpt lat="44.57173" lon="6.40164">
        <ele>1161</ele>
        <time>2019-04-18T14:29:45Z</time>
      </trkpt>
      <trkpt lat="44.57191" lon="6.40138">
        <ele>1157</ele>
        <time>2019-04-18T14:30:45Z</time>
      </trkpt>
      <trkpt lat="44.57197" lon="6.40132">
        <ele>1156</ele>
        <time>2019-04-18T14:31:45Z</time>
      </trkpt>
      <trkpt lat="44.57205" lon="6.40128">
        <ele>1156</ele>
        <time>2019-04-18T14:32:45Z</time>
      </trkpt>
      <trkpt lat="44.57213" lon="6.40128">
        <ele>1157</ele>
        <time>2019-04-18T14:33:45Z</time>
      </trkpt>
      <trkpt lat="44.57249" lon="6.40146">
        <ele>1163</ele>
        <time>2019-04-18T14:34:45Z</time>
      </trkpt>
      <trkpt lat="44.57264" lon="6.40151">
        <ele>1165</ele>
        <time>2019-04-18T14:35:45Z</time>
      </trkpt>
      <trkpt lat="44.57326" lon="6.40149">
        <ele>1169</ele>
        <time>2019-04-18T14:36:45Z</time>
      </trkpt>
      <trkpt lat="44.57376" lon="6.40141">
        <ele>1174</ele>
        <time>2019-04-18T14:37:45Z</time>
      </trkpt>
      <trkpt lat="44.57389" lon="6.4013">
        <ele>1174</ele>
        <time>2019-04-18T14:38:45Z</time>
      </trkpt>
      <trkpt lat="44.57411" lon="6.40098">
        <ele>1170</ele>
        <time>2019-04-18T14:39:45Z</time>
      </trkpt>
      <trkpt lat="44.57424" lon="6.40088">
        <ele>1169</ele>
        <time>2019-04-18T14:40:45Z</time>
      </trkpt>
      <trkpt lat="44.57474" lon="6.4007">
        <ele>1170</ele>
        <time>2019-04-18T14:41:45Z</time>
      </trkpt>
      <trkpt lat="44.57493" lon="6.40055">
        <ele>1169</ele>
        <time>2019-04-18T14:42:45Z</time>
      </trkpt>
      <trkpt lat="44.57509" lon="6.40046">
        <ele>1169</ele>
        <time>2019-04-18T14:43:45Z</time>
      </trkpt>
      <trkpt lat="44.57551" lon="6.4004">
        <ele>1171</ele>
        <time>2019-04-18T14:44:45Z</time>
      </trkpt>
      <trkpt lat="44.57579" lon="6.40045">
        <ele>1174</ele>
        <time>2019-04-18T14:45:45Z</time>
      </trkpt>
      <trkpt lat="44.57612" lon="6.40069">
        <ele>1182</ele>
        <time>2019-04-18T14:46:45Z</time>
      </trkpt>
      <trkpt lat="44.57623" lon="6.40082">
        <ele>1185</ele>
        <time>2019-04-18T14:47:45Z</time>
      </trkpt>
      <trkpt lat="44.57635" lon="6.40108">
        <ele>1191</ele>
        <time>2019-04-18T14:48:45Z</time>
      </trkpt>
      <trkpt lat="44.57649" lon="6.40134">
        <ele>1198</ele>
        <time>2019-04-18T14:49:45Z</time>
      </trkpt>
      <trkpt lat="44.57654" lon="6.4014">
        <ele>1200</ele>
        <time>2019-04-18T14:50:45Z</time>
      </trkpt>
      <trkpt lat="44.57659" lon="6.40141">
        <ele>1200</ele>
        <time>2019-04-18T14:51:45Z</time>
      </trkpt>
      <trkpt lat="44.57664" lon="6.40136">
        <ele>1200</ele>
        <time>2019-04-18T14:52:45Z</time>
      </trkpt>
      <trkpt lat="44.57669" lon="6.40125">
        <ele>1199</ele>
        <time>2019-04-18T14:53:45Z</time>
      </trkpt>
      <trkpt lat="44.57676" lon="6.4006">
        <ele>1190</ele>
        <time>2019-04-18T14:54:45Z</time>
      </trkpt>
      <trkpt lat="44.5768" lon="6.4005">
        <ele>1190</ele>
        <time>2019-04-18T14:55:45Z</time>
      </trkpt>
      <trkpt lat="44.57734" lon="6.39974">
        <ele>1196</ele>
        <time>2019-04-18T14:56:45Z</time>
      </trkpt>
      <trkpt lat="44.57748" lon="6.39948">
        <ele>1197</ele>
        <time>2019-04-18T14:57:45Z</time>
      </trkpt>
      <trkpt lat="44.5776" lon="6.39937">
        <ele>1198</ele>
        <time>2019-04-18T14:58:45Z</time>
      </trkpt>
      <trkpt lat="44.57789" lon="6.3993">
        <ele>1203</ele>
        <time>2019-04-18T14:59:45Z</time>
      </trkpt>
      <trkpt lat="44.57803" lon="6.39924">
        <ele>1205</ele>
        <time>2019-04-18T15:00:45Z</time>
      </trkpt>
      <trkpt lat="44.57815" lon="6.39912">
        <ele>1206</ele>
        <time>2019-04-18T15:01:45Z</time>
      </trkpt>
      <trkpt lat="44.57829" lon="6.39888">
        <ele>1208</ele>
        <time>2019-04-18T15:02:45Z</time>
      </trkpt>
      <trkpt lat="44.57842" lon="6.39863">
        <ele>1212</ele>
        <time>2019-04-18T15:03:45Z</time>
      </trkpt>
      <trkpt lat="44.57851" lon="6.3983">
        <ele>1214</ele>
        <time>2019-04-18T15:04:45Z</time>
      </trkpt>
      <trkpt lat="44.57854" lon="6.39789">
        <ele>1210</ele>
        <time>2019-04-18T15:05:45Z</time>
      </trkpt>
      <trkpt lat="44.57853" lon="6.39749">
        <ele>1205</ele>
        <time>2019-04-18T15:06:45Z</time>
      </trkpt>
      <trkpt lat="44.57855" lon="6.39741">
        <ele>1203</ele>
        <time>2019-04-18T15:07:45Z</time>
      </trkpt>
      <trkpt lat="44.57859" lon="6.39734">
        <ele>1202</ele>
        <time>2019-04-18T15:08:45Z</time>
      </trkpt>
      <trkpt lat="44.5787" lon="6.39723">
        <ele>1199</ele>
        <time>2019-04-18T15:09:45Z</time>
      </trkpt>
      <trkpt lat="44.57883" lon="6.39719">
        <ele>1199</ele>
        <time>2019-04-18T15:10:45Z</time>
      </trkpt>
      <trkpt lat="44.57932" lon="6.39722">
        <ele>1203</ele>
        <time>2019-04-18T15:11:45Z</time>
      </trkpt>
      <trkpt lat="44.57966" lon="6.39728">
        <ele>1205</ele>
        <time>2019-04-18T15:12:45Z</time>
      </trkpt>
      <trkpt lat="44.57983" lon="6.39734">
        <ele>1208</ele>
        <time>2019-04-18T15:13:45Z</time>
      </trkpt>
      <trkpt lat="44.58007" lon="6.39748">
        <ele>1213</ele>
        <time>2019-04-18T15:14:45Z</time>
      </trkpt>
      <trkpt lat="44.58022" lon="6.39759">
        <ele>1212</ele>
        <time>2019-04-18T15:15:45Z</time>
      </trkpt>
      <trkpt lat="44.58037" lon="6.39773">
        <ele>1211</ele>
        <time>2019-04-18T15:16:45Z</time>
      </trkpt>
      <trkpt lat="44.58057" lon="6.39798">
        <ele>1213</ele>
        <time>2019-04-18T15:17:45Z</time>
      </trkpt>
      <trkpt lat="44.58065" lon="6.39805">
        <ele>1213</ele>
        <time>2019-04-18T15:18:45Z</time>
      </trkpt>
      <trkpt lat="44.58073" lon="6.3981">
        <ele>1213</ele>
        <time>2019-04-18T15:19:45Z</time>
      </trkpt>
      <trkpt lat="44.58115" lon="6.39822">
        <ele>1206</ele>
        <time>2019-04-18T15:20:45Z</time>
      </trkpt>
      <trkpt lat="44.58124" lon="6.39831">
        <ele>1207</ele>
        <time>2019-04-18T15:21:45Z</time>
      </trkpt>
      <trkpt lat="44.58135" lon="6.39848">
        <ele>1208</ele>
        <time>2019-04-18T15:22:45Z</time>
      </trkpt>
      <trkpt lat="44.58143" lon="6.39894">
        <ele>1218</ele>
        <time>2019-04-18T15:23:45Z</time>
      </trkpt>
      <trkpt lat="44.58154" lon="6.39919">
        <ele>1222</ele>
        <time>2019-04-18T15:24:45Z</time>
      </trkpt>
      <trkpt lat="44.58163" lon="6.39934">
        <ele>1226</ele>
        <time>2019-04-18T15:25:45Z</time>
      </trkpt>
      <trkpt lat="44.58182" lon="6.39948">
        <ele>1228</ele>
        <time>2019-04-18T15:26:45Z</time>
      </trkpt>
      <trkpt lat="44.58191" lon="6.39951">
        <ele>1228</ele>
        <time>2019-04-18T15:27:45Z</time>
      </trkpt>
      <trkpt lat="44.58212" lon="6.39951">
        <ele>1225</ele>
        <time>2019-04-18T15:28:45Z</time>
      </trkpt>
      <trkpt lat="44.58249" lon="6.39946">
        <ele>1216</ele>
        <time>2019-04-18T15:29:45Z</time>
      </trkpt>
      <trkpt lat="44.58256" lon="6.39947">
        <ele>1216</ele>
        <time>2019-04-18T15:30:45Z</time>
      </trkpt>
      <trkpt lat="44.58277" lon="6.39964">
        <ele>1221</ele>
        <time>2019-04-18T15:31:45Z</time>
      </trkpt>
      <trkpt lat="44.58289" lon="6.3997">
        <ele>1221</ele>
        <time>2019-04-18T15:32:45Z</time>
      </trkpt>
      <trkpt lat="44.58302" lon="6.39966">
        <ele>1218</ele>
        <time>2019-04-18T15:33:45Z</time>
      </trkpt>
      <trkpt lat="44.58325" lon="6.39941">
        <ele>1206</ele>
        <time>2019-04-18T15:34:45Z</time>
      </trkpt>
      <trkpt lat="44.58335" lon="6.39938">
        <ele>1204</ele>
        <time>2019-04-18T15:35:45Z</time>
      </trkpt>
      <trkpt lat="44.58339" lon="6.39939">
        <ele>1204</ele>
        <time>2019-04-18T15:36:45Z</time>
      </trkpt>
      <trkpt lat="44.58355" lon="6.39952">
        <ele>1208</ele>
        <time>2019-04-18T15:37:45Z</time>
      </trkpt>
      <trkpt lat="44.58402" lon="6.39978">
        <ele>1210</ele>
        <time>2019-04-18T15:38:45Z</time>
      </trkpt>
      <trkpt lat="44.58407" lon="6.39976">
        <ele>1209</ele>
        <time>2019-04-18T15:39:45Z</time>
      </trkpt>
      <trkpt lat="44.58425" lon="6.39962">
        <ele>1211</ele>
        <time>2019-04-18T15:40:45Z</time>
      </trkpt>
      <trkpt lat="44.58429" lon="6.39955">
        <ele>1213</ele>
        <time>2019-04-18T15:41:45Z</time>
      </trkpt>
      <trkpt lat="44.58432" lon="6.39942">
        <ele>1215</ele>
        <time>2019-04-18T15:42:45Z</time>
      </trkpt>
      <trkpt lat="44.58407" lon="6.39859">
        <ele>1216</ele>
        <time>2019-04-18T15:43:45Z</time>
      </trkpt>
      <trkpt lat="44.58392" lon="6.3983">
        <ele>1215</ele>
        <time>2019-04-18T15:44:45Z</time>
      </trkpt>
      <trkpt lat="44.58376" lon="6.39808">
        <ele>1214</ele>
        <time>2019-04-18T15:45:45Z</time>
      </trkpt>
      <trkpt lat="44.58358" lon="6.39795">
        <ele>1209</ele>
        <time>2019-04-18T15:46:45Z</time>
      </trkpt>
      <trkpt lat="44.58343" lon="6.39776">
        <ele>1205</ele>
        <time>2019-04-18T15:47:45Z</time>
      </trkpt>
      <trkpt lat="44.58333" lon="6.39746">
        <ele>1206</ele>
        <time>2019-04-18T15:48:45Z</time>
      </trkpt>
      <trkpt lat="44.58326" lon="6.39719">
        <ele>1207</ele>
        <time>2019-04-18T15:49:45Z</time>
      </trkpt>
      <trkpt lat="44.58324" lon="6.39699">
        <ele>1208</ele>
        <time>2019-04-18T15:50:45Z</time>
      </trkpt>
      <trkpt lat="44.58326" lon="6.39687">
        <ele>1211</ele>
        <time>2019-04-18T15:51:45Z</time>
      </trkpt>
      <trkpt lat="44.58333" lon="6.3967">
        <ele>1216</ele>
        <time>2019-04-18T15:52:45Z</time>
      </trkpt>
      <trkpt lat="44.58347" lon="6.39645">
        <ele>1227</ele>
        <time>2019-04-18T15:53:45Z</time>
      </trkpt>
      <trkpt lat="44.58354" lon="6.39624">
        <ele>1234</ele>
        <time>2019-04-18T15:54:45Z</time>
      </trkpt>
      <trkpt lat="44.58346" lon="6.39603">
        <ele>1233</ele>
        <time>2019-04-18T15:55:45Z</time>
      </trkpt>
      <trkpt lat="44.58339" lon="6.39597">
        <ele>1231</ele>
        <time>2019-04-18T15:56:45Z</time>
      </trkpt>
      <trkpt lat="44.58316" lon="6.39584">
        <ele>1223</ele>
        <time>2019-04-18T15:57:45Z</time>
      </trkpt>
      <trkpt lat="44.58307" lon="6.39571">
        <ele>1223</ele>
        <time>2019-04-18T15:58:45Z</time>
      </trkpt>
      <trkpt lat="44.58284" lon="6.39528">
        <ele>1221</ele>
        <time>2019-04-18T15:59:45Z</time>
      </trkpt>
      <trkpt lat="44.58278" lon="6.39497">
        <ele>1224</ele>
        <time>2019-04-18T16:00:45Z</time>
      </trkpt>
      <trkpt lat="44.58276" lon="6.39473">
        <ele>1227</ele>
        <time>2019-04-18T16:01:45Z</time>
      </trkpt>
      <trkpt lat="44.58276" lon="6.39456">
        <ele>1230</ele>
        <time>2019-04-18T16:02:45Z</time>
      </trkpt>
      <trkpt lat="44.58275" lon="6.39446">
        <ele>1231</ele>
        <time>2019-04-18T16:03:45Z</time>
      </trkpt>
      <trkpt lat="44.58269" lon="6.39434">
        <ele>1230</ele>
        <time>2019-04-18T16:04:45Z</time>
      </trkpt>
      <trkpt lat="44.58264" lon="6.39426">
        <ele>1228</ele>
        <time>2019-04-18T16:05:45Z</time>
      </trkpt>
      <trkpt lat="44.58259" lon="6.39413">
        <ele>1227</ele>
        <time>2019-04-18T16:06:45Z</time>
      </trkpt>
      <trkpt lat="44.58254" lon="6.39386">
        <ele>1230</ele>
        <time>2019-04-18T16:07:45Z</time>
      </trkpt>
      <trkpt lat="44.58251" lon="6.39353">
        <ele>1235</ele>
        <time>2019-04-18T16:08:45Z</time>
      </trkpt>
      <trkpt lat="44.58238" lon="6.3929">
        <ele>1241</ele>
        <time>2019-04-18T16:09:45Z</time>
      </trkpt>
      <trkpt lat="44.58233" lon="6.39276">
        <ele>1242</ele>
        <time>2019-04-18T16:10:45Z</time>
      </trkpt>
      <trkpt lat="44.58219" lon="6.39252">
        <ele>1241</ele>
        <time>2019-04-18T16:11:45Z</time>
      </trkpt>
      <trkpt lat="44.58208" lon="6.39243">
        <ele>1239</ele>
        <time>2019-04-18T16:12:45Z</time>
      </trkpt>
      <trkpt lat="44.58189" lon="6.39236">
        <ele>1234</ele>
        <time>2019-04-18T16:13:45Z</time>
      </trkpt>
      <trkpt lat="44.58179" lon="6.39229">
        <ele>1233</ele>
        <time>2019-04-18T16:14:45Z</time>
      </trkpt>
      <trkpt lat="44.58171" lon="6.39219">
        <ele>1232</ele>
        <time>2019-04-18T16:15:45Z</time>
      </trkpt>
      <trkpt lat="44.58166" lon="6.39207">
        <ele>1233</ele>
        <time>2019-04-18T16:16:45Z</time>
      </trkpt>
      <trkpt lat="44.58161" lon="6.39186">
        <ele>1236</ele>
        <time>2019-04-18T16:17:45Z</time>
      </trkpt>
      <trkpt lat="44.58154" lon="6.39137">
        <ele>1241</ele>
        <time>2019-04-18T16:18:45Z</time>
      </trkpt>
      <trkpt lat="44.58133" lon="6.391">
        <ele>1238</ele>
        <time>2019-04-18T16:19:45Z</time>
      </trkpt>
      <trkpt lat="44.58131" lon="6.39086">
        <ele>1239</ele>
        <time>2019-04-18T16:20:45Z</time>
      </trkpt>
      <trkpt lat="44.58131" lon="6.39068">
        <ele>1239</ele>
        <time>2019-04-18T16:21:45Z</time>
      </trkpt>
      <trkpt lat="44.58138" lon="6.39041">
        <ele>1239</ele>
        <time>2019-04-18T16:22:45Z</time>
      </trkpt>
      <trkpt lat="44.58186" lon="6.38929">
        <ele>1249</ele>
        <time>2019-04-18T16:23:45Z</time>
      </trkpt>
      <trkpt lat="44.58192" lon="6.38907">
        <ele>1250</ele>
        <time>2019-04-18T16:24:45Z</time>
      </trkpt>
      <trkpt lat="44.58199" lon="6.38832">
        <ele>1247</ele>
        <time>2019-04-18T16:25:45Z</time>
      </trkpt>
      <trkpt lat="44.58203" lon="6.38805">
        <ele>1248</ele>
        <time>2019-04-18T16:26:45Z</time>
      </trkpt>
      <trkpt lat="44.58214" lon="6.38777">
        <ele>1251</ele>
        <time>2019-04-18T16:27:45Z</time>
      </trkpt>
      <trkpt lat="44.58338" lon="6.38589">
        <ele>1270</ele>
        <time>2019-04-18T16:28:45Z</time>
      </trkpt>
      <trkpt lat="44.58355" lon="6.38574">
        <ele>1271</ele>
        <time>2019-04-18T16:29:45Z</time>
      </trkpt>
      <trkpt lat="44.58407" lon="6.38538">
        <ele>1276</ele>
        <time>2019-04-18T16:30:45Z</time>
      </trkpt>
      <trkpt lat="44.5843" lon="6.38505">
        <ele>1278</ele>
        <time>2019-04-18T16:31:45Z</time>
      </trkpt>
      <trkpt lat="44.58436" lon="6.3849">
        <ele>1278</ele>
        <time>2019-04-18T16:32:45Z</time>
      </trkpt>
      <trkpt lat="44.5844" lon="6.38418">
        <ele>1273</ele>
        <time>2019-04-18T16:33:45Z</time>
      </trkpt>
      <trkpt lat="44.58446" lon="6.38393">
        <ele>1269</ele>
        <time>2019-04-18T16:34:45Z</time>
      </trkpt>
      <trkpt lat="44.58476" lon="6.38342">
        <ele>1267</ele>
        <time>2019-04-18T16:35:45Z</time>
      </trkpt>
      <trkpt lat="44.58522" lon="6.38288">
        <ele>1271</ele>
        <time>2019-04-18T16:36:45Z</time>
      </trkpt>
      <trkpt lat="44.58526" lon="6.38279">
        <ele>1270</ele>
        <time>2019-04-18T16:37:45Z</time>
      </trkpt>
      <trkpt lat="44.58528" lon="6.38263">
        <ele>1268</ele>
        <time>2019-04-18T16:38:45Z</time>
      </trkpt>
      <trkpt lat="44.58528" lon="6.38246">
        <ele>1266</ele>
        <time>2019-04-18T16:39:45Z</time>
      </trkpt>
      <trkpt lat="44.58518" lon="6.38194">
        <ele>1260</ele>
        <time>2019-04-18T16:40:45Z</time>
      </trkpt>
      <trkpt lat="44.58515" lon="6.38183">
        <ele>1259</ele>
        <time>2019-04-18T16:41:45Z</time>
      </trkpt>
      <trkpt lat="44.58509" lon="6.38169">
        <ele>1256</ele>
        <time>2019-04-18T16:42:45Z</time>
      </trkpt>
      <trkpt lat="44.58481" lon="6.38146">
        <ele>1249</ele>
        <time>2019-04-18T16:43:45Z</time>
      </trkpt>
      <trkpt lat="44.58471" lon="6.38132">
        <ele>1248</ele>
        <time>2019-04-18T16:44:45Z</time>
      </trkpt>
      <trkpt lat="44.58445" lon="6.38081">
        <ele>1246</ele>
        <time>2019-04-18T16:45:45Z</time>
      </trkpt>
      <trkpt lat="44.5841" lon="6.3803">
        <ele>1242</ele>
        <time>2019-04-18T16:46:45Z</time>
      </trkpt>
      <trkpt lat="44.58397" lon="6.38006">
        <ele>1239</ele>
        <time>2019-04-18T16:47:45Z</time>
      </trkpt>
      <trkpt lat="44.58391" lon="6.37988">
        <ele>1237</ele>
        <time>2019-04-18T16:48:45Z</time>
      </trkpt>
      <trkpt lat="44.58387" lon="6.37971">
        <ele>1233</ele>
        <time>2019-04-18T16:49:45Z</time>
      </trkpt>
      <trkpt lat="44.58388" lon="6.37952">
        <ele>1231</ele>
        <time>2019-04-18T16:50:45Z</time>
      </trkpt>
      <trkpt lat="44.58395" lon="6.37928">
        <ele>1230</ele>
        <time>2019-04-18T16:51:45Z</time>
      </trkpt>
      <trkpt lat="44.58406" lon="6.37906">
        <ele>1230</ele>
        <time>2019-04-18T16:52:45Z</time>
      </trkpt>
      <trkpt lat="44.58457" lon="6.37849">
        <ele>1228</ele>
        <time>2019-04-18T16:53:45Z</time>
      </trkpt>
      <trkpt lat="44.58543" lon="6.37783">
        <ele>1237</ele>
        <time>2019-04-18T16:54:45Z</time>
      </trkpt>
      <trkpt lat="44.58577" lon="6.37744">
        <ele>1239</ele>
        <time>2019-04-18T16:55:45Z</time>
      </trkpt>
      <trkpt lat="44.58597" lon="6.377">
        <ele>1237</ele>
        <time>2019-04-18T16:56:45Z</time>
      </trkpt>
      <trkpt lat="44.58612" lon="6.37653">
        <ele>1234</ele>
        <time>2019-04-18T16:57:45Z</time>
      </trkpt>
      <trkpt lat="44.58628" lon="6.37582">
        <ele>1231</ele>
        <time>2019-04-18T16:58:45Z</time>
      </trkpt>
      <trkpt lat="44.58636" lon="6.37552">
        <ele>1233</ele>
        <time>2019-04-18T16:59:45Z</time>
      </trkpt>
      <trkpt lat="44.58654" lon="6.37507">
        <ele>1238</ele>
        <time>2019-04-18T17:00:45Z</time>
      </trkpt>
      <trkpt lat="44.58657" lon="6.37492">
        <ele>1239</ele>
        <time>2019-04-18T17:01:45Z</time>
      </trkpt>
      <trkpt lat="44.58658" lon="6.37479">
        <ele>1238</ele>
        <time>2019-04-18T17:02:45Z</time>
      </trkpt>
      <trkpt lat="44.58651" lon="6.37464">
        <ele>1236</ele>
        <time>2019-04-18T17:03:45Z</time>
      </trkpt>
      <trkpt lat="44.58643" lon="6.37455">
        <ele>1234</ele>
        <time>2019-04-18T17:04:45Z</time>
      </trkpt>
      <trkpt lat="44.58622" lon="6.37448">
        <ele>1228</ele>
        <time>2019-04-18T17:05:45Z</time>
      </trkpt>
      <trkpt lat="44.58583" lon="6.37437">
        <ele>1220</ele>
        <time>2019-04-18T17:06:45Z</time>
      </trkpt>
      <trkpt lat="44.58572" lon="6.37439">
        <ele>1222</ele>
        <time>2019-04-18T17:07:45Z</time>
      </trkpt>
      <trkpt lat="44.58559" lon="6.37448">
        <ele>1224</ele>
        <time>2019-04-18T17:08:45Z</time>
      </trkpt>
      <trkpt lat="44.58546" lon="6.37467">
        <ele>1225</ele>
        <time>2019-04-18T17:09:45Z</time>
      </trkpt>
      <trkpt lat="44.58536" lon="6.37493">
        <ele>1224</ele>
        <time>2019-04-18T17:10:45Z</time>
      </trkpt>
      <trkpt lat="44.58525" lon="6.37528">
        <ele>1223</ele>
        <time>2019-04-18T17:11:45Z</time>
      </trkpt>
      <trkpt lat="44.58495" lon="6.37593">
        <ele>1219</ele>
        <time>2019-04-18T17:12:45Z</time>
      </trkpt>
      <trkpt lat="44.58474" lon="6.37631">
        <ele>1218</ele>
        <time>2019-04-18T17:13:45Z</time>
      </trkpt>
      <trkpt lat="44.58464" lon="6.37644">
        <ele>1217</ele>
        <time>2019-04-18T17:14:45Z</time>
      </trkpt>
      <trkpt lat="44.58447" lon="6.37655">
        <ele>1217</ele>
        <time>2019-04-18T17:15:45Z</time>
      </trkpt>
      <trkpt lat="44.58433" lon="6.37661">
        <ele>1217</ele>
        <time>2019-04-18T17:16:45Z</time>
      </trkpt>
      <trkpt lat="44.58409" lon="6.37662">
        <ele>1219</ele>
        <time>2019-04-18T17:17:45Z</time>
      </trkpt>
      <trkpt lat="44.58382" lon="6.37658">
        <ele>1222</ele>
        <time>2019-04-18T17:18:45Z</time>
      </trkpt>
      <trkpt lat="44.58352" lon="6.37645">
        <ele>1228</ele>
        <time>2019-04-18T17:19:45Z</time>
      </trkpt>
      <trkpt lat="44.58337" lon="6.3764">
        <ele>1231</ele>
        <time>2019-04-18T17:20:45Z</time>
      </trkpt>
      <trkpt lat="44.58323" lon="6.37639">
        <ele>1232</ele>
        <time>2019-04-18T17:21:45Z</time>
      </trkpt>
      <trkpt lat="44.58307" lon="6.37644">
        <ele>1231</ele>
        <time>2019-04-18T17:22:45Z</time>
      </trkpt>
      <trkpt lat="44.58273" lon="6.37668">
        <ele>1225</ele>
        <time>2019-04-18T17:23:45Z</time>
      </trkpt>
      <trkpt lat="44.58257" lon="6.37672">
        <ele>1225</ele>
        <time>2019-04-18T17:24:45Z</time>
      </trkpt>
      <trkpt lat="44.58197" lon="6.37674">
        <ele>1231</ele>
        <time>2019-04-18T17:25:45Z</time>
      </trkpt>
      <trkpt lat="44.58182" lon="6.37676">
        <ele>1232</ele>
        <time>2019-04-18T17:26:45Z</time>
      </trkpt>
      <trkpt lat="44.5813" lon="6.37702">
        <ele>1236</ele>
        <time>2019-04-18T17:27:45Z</time>
      </trkpt>
      <trkpt lat="44.58111" lon="6.37709">
        <ele>1237</ele>
        <time>2019-04-18T17:28:45Z</time>
      </trkpt>
      <trkpt lat="44.58099" lon="6.3771">
        <ele>1238</ele>
        <time>2019-04-18T17:29:45Z</time>
      </trkpt>
      <trkpt lat="44.58056" lon="6.37703">
        <ele>1244</ele>
        <time>2019-04-18T17:30:45Z</time>
      </trkpt>
      <trkpt lat="44.58033" lon="6.37705">
        <ele>1246</ele>
        <time>2019-04-18T17:31:45Z</time>
      </trkpt>
      <trkpt lat="44.58002" lon="6.37715">
        <ele>1249</ele>
        <time>2019-04-18T17:32:45Z</time>
      </trkpt>
      <trkpt lat="44.5799" lon="6.37724">
        <ele>1249</ele>
        <time>2019-04-18T17:33:45Z</time>
      </trkpt>
      <trkpt lat="44.5797" lon="6.37749">
        <ele>1248</ele>
        <time>2019-04-18T17:34:45Z</time>
      </trkpt>
      <trkpt lat="44.57945" lon="6.37773">
        <ele>1247</ele>
        <time>2019-04-18T17:35:45Z</time>
      </trkpt>
      <trkpt lat="44.5793" lon="6.37784">
        <ele>1247</ele>
        <time>2019-04-18T17:36:45Z</time>
      </trkpt>
      <trkpt lat="44.57911" lon="6.37791">
        <ele>1247</ele>
        <time>2019-04-18T17:37:45Z</time>
      </trkpt>
      <trkpt lat="44.57871" lon="6.37795">
        <ele>1246</ele>
        <time>2019-04-18T17:38:45Z</time>
      </trkpt>
      <trkpt lat="44.57853" lon="6.37795">
        <ele>1246</ele>
        <time>2019-04-18T17:39:45Z</time>
      </trkpt>
      <trkpt lat="44.57811" lon="6.37778">
        <ele>1246</ele>
        <time>2019-04-18T17:40:45Z</time>
      </trkpt>
      <trkpt lat="44.57774" lon="6.37766">
        <ele>1247</ele>
        <time>2019-04-18T17:41:45Z</time>
      </trkpt>
      <trkpt lat="44.57752" lon="6.37757">
        <ele>1248</ele>
        <time>2019-04-18T17:42:45Z</time>
      </trkpt>
      <trkpt lat="44.5773" lon="6.37744">
        <ele>1251</ele>
        <time>2019-04-18T17:43:45Z</time>
      </trkpt>
      <trkpt lat="44.57707" lon="6.37733">
        <ele>1255</ele>
        <time>2019-04-18T17:44:45Z</time>
      </trkpt>
      <trkpt lat="44.57687" lon="6.37727">
        <ele>1258</ele>
        <time>2019-04-18T17:45:45Z</time>
      </trkpt>
      <trkpt lat="44.5767" lon="6.37733">
        <ele>1258</ele>
        <time>2019-04-18T17:46:45Z</time>
      </trkpt>
      <trkpt lat="44.57649" lon="6.37753">
        <ele>1256</ele>
        <time>2019-04-18T17:47:45Z</time>
      </trkpt>
      <trkpt lat="44.5764" lon="6.37768">
        <ele>1254</ele>
        <time>2019-04-18T17:48:45Z</time>
      </trkpt>
      <trkpt lat="44.57635" lon="6.37787">
        <ele>1250</ele>
        <time>2019-04-18T17:49:45Z</time>
      </trkpt>
      <trkpt lat="44.5762" lon="6.37816">
        <ele>1244</ele>
        <time>2019-04-18T17:50:45Z</time>
      </trkpt>
      <trkpt lat="44.57604" lon="6.37833">
        <ele>1242</ele>
        <time>2019-04-18T17:51:45Z</time>
      </trkpt>
      <trkpt lat="44.57547" lon="6.37864">
        <ele>1240</ele>
        <time>2019-04-18T17:52:45Z</time>
      </trkpt>
      <trkpt lat="44.5753" lon="6.3787">
        <ele>1239</ele>
        <time>2019-04-18T17:53:45Z</time>
      </trkpt>
      <trkpt lat="44.57473" lon="6.37858">
        <ele>1243</ele>
        <time>2019-04-18T17:54:45Z</time>
      </trkpt>
      <trkpt lat="44.57454" lon="6.37862">
        <ele>1243</ele>
        <time>2019-04-18T17:55:45Z</time>
      </trkpt>
      <trkpt lat="44.57439" lon="6.37871">
        <ele>1242</ele>
        <time>2019-04-18T17:56:45Z</time>
      </trkpt>
      <trkpt lat="44.57388" lon="6.37923">
        <ele>1237</ele>
        <time>2019-04-18T17:57:45Z</time>
      </trkpt>
      <trkpt lat="44.57369" lon="6.37938">
        <ele>1236</ele>
        <time>2019-04-18T17:58:45Z</time>
      </trkpt>
      <trkpt lat="44.57315" lon="6.37963">
        <ele>1233</ele>
        <time>2019-04-18T17:59:45Z</time>
      </trkpt>
      <trkpt lat="44.57292" lon="6.37965">
        <ele>1233</ele>
        <time>2019-04-18T18:00:45Z</time>
      </trkpt>
      <trkpt lat="44.5728" lon="6.37962">
        <ele>1232</ele>
        <time>2019-04-18T18:01:45Z</time>
      </trkpt>
      <trkpt lat="44.5727" lon="6.37954">
        <ele>1233</ele>
        <time>2019-04-18T18:02:45Z</time>
      </trkpt>
      <trkpt lat="44.57269" lon="6.37943">
        <ele>1235</ele>
        <time>2019-04-18T18:03:45Z</time>
      </trkpt>
      <trkpt lat="44.57264" lon="6.37933">
        <ele>1236</ele>
        <time>2019-04-18T18:04:45Z</time>
      </trkpt>
      <trkpt lat="44.57254" lon="6.3793">
        <ele>1236</ele>
        <time>2019-04-18T18:05:45Z</time>
      </trkpt>
      <trkpt lat="44.57246" lon="6.37934">
        <ele>1236</ele>
        <time>2019-04-18T18:06:45Z</time>
      </trkpt>
      <trkpt lat="44.57241" lon="6.37944">
        <ele>1234</ele>
        <time>2019-04-18T18:07:45Z</time>
      </trkpt>
      <trkpt lat="44.57241" lon="6.37953">
        <ele>1233</ele>
        <time>2019-04-18T18:08:45Z</time>
      </trkpt>
      <trkpt lat="44.57234" lon="6.37956">
        <ele>1233</ele>
        <time>2019-04-18T18:09:45Z</time>
      </trkpt>
      <trkpt lat="44.57167" lon="6.37971">
        <ele>1232</ele>
        <time>2019-04-18T18:10:45Z</time>
      </trkpt>
      <trkpt lat="44.57154" lon="6.37971">
        <ele>1230</ele>
        <time>2019-04-18T18:11:45Z</time>
      </trkpt>
      <trkpt lat="44.57142" lon="6.37967">
        <ele>1229</ele>
        <time>2019-04-18T18:12:45Z</time>
      </trkpt>
      <trkpt lat="44.57119" lon="6.37952">
        <ele>1230</ele>
        <time>2019-04-18T18:13:45Z</time>
      </trkpt>
      <trkpt lat="44.57046" lon="6.37873">
        <ele>1241</ele>
        <time>2019-04-18T18:14:45Z</time>
      </trkpt>
      <trkpt lat="44.57035" lon="6.37866">
        <ele>1242</ele>
        <time>2019-04-18T18:15:45Z</time>
      </trkpt>
      <trkpt lat="44.57022" lon="6.37864">
        <ele>1242</ele>
        <time>2019-04-18T18:16:45Z</time>
      </trkpt>
      <trkpt lat="44.5701" lon="6.37866">
        <ele>1242</ele>
        <time>2019-04-18T18:17:45Z</time>
      </trkpt>
      <trkpt lat="44.56903" lon="6.37905">
        <ele>1233</ele>
        <time>2019-04-18T18:18:45Z</time>
      </trkpt>
      <trkpt lat="44.56835" lon="6.37941">
        <ele>1231</ele>
        <time>2019-04-18T18:19:45Z</time>
      </trkpt>
      <trkpt lat="44.568" lon="6.37949">
        <ele>1229</ele>
        <time>2019-04-18T18:20:45Z</time>
      </trkpt>
      <trkpt lat="44.56753" lon="6.3797">
        <ele>1225</ele>
        <time>2019-04-18T18:21:45Z</time>
      </trkpt>
      <trkpt lat="44.56729" lon="6.37974">
        <ele>1225</ele>
        <time>2019-04-18T18:22:45Z</time>
      </trkpt>
      <trkpt lat="44.56705" lon="6.37969">
        <ele>1226</ele>
        <time>2019-04-18T18:23:45Z</time>
      </trkpt>
      <trkpt lat="44.56681" lon="6.3796">
        <ele>1227</ele>
        <time>2019-04-18T18:24:45Z</time>
      </trkpt>
      <trkpt lat="44.56651" lon="6.37943">
        <ele>1227</ele>
        <time>2019-04-18T18:25:45Z</time>
      </trkpt>
      <trkpt lat="44.56626" lon="6.37919">
        <ele>1228</ele>
        <time>2019-04-18T18:26:45Z</time>
      </trkpt>
      <trkpt lat="44.56616" lon="6.37914">
        <ele>1228</ele>
        <time>2019-04-18T18:27:45Z</time>
      </trkpt>
      <trkpt lat="44.56605" lon="6.37911">
        <ele>1228</ele>
        <time>2019-04-18T18:28:45Z</time>
      </trkpt>
      <trkpt lat="44.56594" lon="6.37911">
        <ele>1228</ele>
        <time>2019-04-18T18:29:45Z</time>
      </trkpt>
      <trkpt lat="44.56561" lon="6.37917">
        <ele>1225</ele>
        <time>2019-04-18T18:30:45Z</time>
      </trkpt>
      <trkpt lat="44.56528" lon="6.37916">
        <ele>1225</ele>
        <time>2019-04-18T18:31:45Z</time>
      </trkpt>
      <trkpt lat="44.56492" lon="6.37905">
        <ele>1226</ele>
        <time>2019-04-18T18:32:45Z</time>
      </trkpt>
      <trkpt lat="44.56402" lon="6.3787">
        <ele>1226</ele>
        <time>2019-04-18T18:33:45Z</time>
      </trkpt>
      <trkpt lat="44.56334" lon="6.37825">
        <ele>1226</ele>
        <time>2019-04-18T18:34:45Z</time>
      </trkpt>
      <trkpt lat="44.5629" lon="6.37789">
        <ele>1224</ele>
        <time>2019-04-18T18:35:45Z</time>
      </trkpt>
      <trkpt lat="44.5626" lon="6.3776">
        <ele>1224</ele>
        <time>2019-04-18T18:36:45Z</time>
      </trkpt>
      <trkpt lat="44.56244" lon="6.37737">
        <ele>1225</ele>
        <time>2019-04-18T18:37:45Z</time>
      </trkpt>
      <trkpt lat="44.56232" lon="6.37713">
        <ele>1228</ele>
        <time>2019-04-18T18:38:45Z</time>
      </trkpt>
      <trkpt lat="44.56216" lon="6.37691">
        <ele>1229</ele>
        <time>2019-04-18T18:39:45Z</time>
      </trkpt>
      <trkpt lat="44.562" lon="6.37678">
        <ele>1228</ele>
        <time>2019-04-18T18:40:45Z</time>
      </trkpt>
      <trkpt lat="44.56174" lon="6.37665">
        <ele>1225</ele>
        <time>2019-04-18T18:41:45Z</time>
      </trkpt>
      <trkpt lat="44.56152" lon="6.37651">
        <ele>1223</ele>
        <time>2019-04-18T18:42:45Z</time>
      </trkpt>
      <trkpt lat="44.56086" lon="6.37594">
        <ele>1226</ele>
        <time>2019-04-18T18:43:45Z</time>
      </trkpt>
      <trkpt lat="44.56043" lon="6.37567">
        <ele>1222</ele>
        <time>2019-04-18T18:44:45Z</time>
      </trkpt>
      <trkpt lat="44.56029" lon="6.3755">
        <ele>1222</ele>
        <time>2019-04-18T18:45:45Z</time>
      </trkpt>
      <trkpt lat="44.56016" lon="6.37491">
        <ele>1229</ele>
        <time>2019-04-18T18:46:45Z</time>
      </trkpt>
      <trkpt lat="44.56001" lon="6.37437">
        <ele>1231</ele>
        <time>2019-04-18T18:47:45Z</time>
      </trkpt>
      <trkpt lat="44.55995" lon="6.37319">
        <ele>1239</ele>
        <time>2019-04-18T18:48:45Z</time>
      </trkpt>
      <trkpt lat="44.5599" lon="6.37261">
        <ele>1243</ele>
        <time>2019-04-18T18:49:45Z</time>
      </trkpt>
      <trkpt lat="44.55968" lon="6.3717">
        <ele>1248</ele>
        <time>2019-04-18T18:50:45Z</time>
      </trkpt>
      <trkpt lat="44.5596" lon="6.37142">
        <ele>1249</ele>
        <time>2019-04-18T18:51:45Z</time>
      </trkpt>
      <trkpt lat="44.55953" lon="6.37126">
        <ele>1249</ele>
        <time>2019-04-18T18:52:45Z</time>
      </trkpt>
      <trkpt lat="44.55944" lon="6.37114">
        <ele>1248</ele>
        <time>2019-04-18T18:53:45Z</time>
      </trkpt>
      <trkpt lat="44.55935" lon="6.37107">
        <ele>1246</ele>
        <time>2019-04-18T18:54:45Z</time>
      </trkpt>
      <trkpt lat="44.55919" lon="6.37102">
        <ele>1243</ele>
        <time>2019-04-18T18:55:45Z</time>
      </trkpt>
      <trkpt lat="44.55897" lon="6.37104">
        <ele>1241</ele>
        <time>2019-04-18T18:56:45Z</time>
      </trkpt>
      <trkpt lat="44.55877" lon="6.37103">
        <ele>1240</ele>
        <time>2019-04-18T18:57:45Z</time>
      </trkpt>
      <trkpt lat="44.55866" lon="6.37098">
        <ele>1240</ele>
        <time>2019-04-18T18:58:45Z</time>
      </trkpt>
      <trkpt lat="44.55855" lon="6.37088">
        <ele>1241</ele>
        <time>2019-04-18T18:59:45Z</time>
      </trkpt>
      <trkpt lat="44.55847" lon="6.37077">
        <ele>1242</ele>
        <time>2019-04-18T19:00:45Z</time>
      </trkpt>
      <trkpt lat="44.55842" lon="6.37062">
        <ele>1243</ele>
        <time>2019-04-18T19:01:45Z</time>
      </trkpt>
      <trkpt lat="44.55837" lon="6.37035">
        <ele>1244</ele>
        <time>2019-04-18T19:02:45Z</time>
      </trkpt>
      <trkpt lat="44.55832" lon="6.36972">
        <ele>1249</ele>
        <time>2019-04-18T19:03:45Z</time>
      </trkpt>
      <trkpt lat="44.55828" lon="6.36955">
        <ele>1251</ele>
        <time>2019-04-18T19:04:45Z</time>
      </trkpt>
      <trkpt lat="44.55815" lon="6.36924">
        <ele>1253</ele>
        <time>2019-04-18T19:05:45Z</time>
      </trkpt>
      <trkpt lat="44.55797" lon="6.36898">
        <ele>1256</ele>
        <time>2019-04-18T19:06:45Z</time>
      </trkpt>
      <trkpt lat="44.55759" lon="6.36853">
        <ele>1258</ele>
        <time>2019-04-18T19:07:45Z</time>
      </trkpt>
      <trkpt lat="44.55718" lon="6.36825">
        <ele>1257</ele>
        <time>2019-04-18T19:08:45Z</time>
      </trkpt>
      <trkpt lat="44.55699" lon="6.36809">
        <ele>1257</ele>
        <time>2019-04-18T19:09:45Z</time>
      </trkpt>
      <trkpt lat="44.55677" lon="6.36778">
        <ele>1258</ele>
        <time>2019-04-18T19:10:45Z</time>
      </trkpt>
      <trkpt lat="44.55675" lon="6.36769">
        <ele>1258</ele>
        <time>2019-04-18T19:11:45Z</time>
      </trkpt>
      <trkpt lat="44.55657" lon="6.36729">
        <ele>1257</ele>
        <time>2019-04-18T19:12:45Z</time>
      </trkpt>
      <trkpt lat="44.5565" lon="6.36704">
        <ele>1256</ele>
        <time>2019-04-18T19:13:45Z</time>
      </trkpt>
      <trkpt lat="44.55646" lon="6.36677">
        <ele>1256</ele>
        <time>2019-04-18T19:14:45Z</time>
      </trkpt>
      <trkpt lat="44.55643" lon="6.36608">
        <ele>1255</ele>
        <time>2019-04-18T19:15:45Z</time>
      </trkpt>
      <trkpt lat="44.55647" lon="6.36585">
        <ele>1256</ele>
        <time>2019-04-18T19:16:45Z</time>
      </trkpt>
      <trkpt lat="44.55651" lon="6.36575">
        <ele>1258</ele>
        <time>2019-04-18T19:17:45Z</time>
      </trkpt>
      <trkpt lat="44.55657" lon="6.36567">
        <ele>1260</ele>
        <time>2019-04-18T19:18:45Z</time>
      </trkpt>
      <trkpt lat="44.55708" lon="6.36525">
        <ele>1272</ele>
        <time>2019-04-18T19:19:45Z</time>
      </trkpt>
      <trkpt lat="44.55714" lon="6.36517">
        <ele>1273</ele>
        <time>2019-04-18T19:20:45Z</time>
      </trkpt>
      <trkpt lat="44.55719" lon="6.36509">
        <ele>1273</ele>
        <time>2019-04-18T19:21:45Z</time>
      </trkpt>
      <trkpt lat="44.55721" lon="6.36498">
        <ele>1274</ele>
        <time>2019-04-18T19:22:45Z</time>
      </trkpt>
      <trkpt lat="44.5572" lon="6.36488">
        <ele>1275</ele>
        <time>2019-04-18T19:23:45Z</time>
      </trkpt>
      <trkpt lat="44.55717" lon="6.36479">
        <ele>1275</ele>
        <time>2019-04-18T19:24:45Z</time>
      </trkpt>
      <trkpt lat="44.5571" lon="6.36471">
        <ele>1274</ele>
        <time>2019-04-18T19:25:45Z</time>
      </trkpt>
      <trkpt lat="44.55685" lon="6.36453">
        <ele>1270</ele>
        <time>2019-04-18T19:26:45Z</time>
      </trkpt>
      <trkpt lat="44.55672" lon="6.36435">
        <ele>1270</ele>
        <time>2019-04-18T19:27:45Z</time>
      </trkpt>
      <trkpt lat="44.55669" lon="6.36423">
        <ele>1271</ele>
        <time>2019-04-18T19:28:45Z</time>
      </trkpt>
      <trkpt lat="44.55668" lon="6.3639">
        <ele>1274</ele>
        <time>2019-04-18T19:29:45Z</time>
      </trkpt>
      <trkpt lat="44.55667" lon="6.36377">
        <ele>1275</ele>
        <time>2019-04-18T19:30:45Z</time>
      </trkpt>
      <trkpt lat="44.55663" lon="6.36369">
        <ele>1275</ele>
        <time>2019-04-18T19:31:45Z</time>
      </trkpt>
      <trkpt lat="44.55657" lon="6.36361">
        <ele>1275</ele>
        <time>2019-04-18T19:32:45Z</time>
      </trkpt>
      <trkpt lat="44.55633" lon="6.36344">
        <ele>1273</ele>
        <time>2019-04-18T19:33:45Z</time>
      </trkpt>
      <trkpt lat="44.55627" lon="6.36337">
        <ele>1273</ele>
        <time>2019-04-18T19:34:45Z</time>
      </trkpt>
      <trkpt lat="44.55609" lon="6.36306">
        <ele>1276</ele>
        <time>2019-04-18T19:35:45Z</time>
      </trkpt>
      <trkpt lat="44.55579" lon="6.36264">
        <ele>1279</ele>
        <time>2019-04-18T19:36:45Z</time>
      </trkpt>
      <trkpt lat="44.55556" lon="6.36236">
        <ele>1278</ele>
        <time>2019-04-18T19:37:45Z</time>
      </trkpt>
      <trkpt lat="44.55539" lon="6.3622">
        <ele>1275</ele>
        <time>2019-04-18T19:38:45Z</time>
      </trkpt>
      <trkpt lat="44.55533" lon="6.362">
        <ele>1275</ele>
        <time>2019-04-18T19:39:45Z</time>
      </trkpt>
      <trkpt lat="44.5553" lon="6.36178">
        <ele>1276</ele>
        <time>2019-04-18T19:40:45Z</time>
      </trkpt>
      <trkpt lat="44.5553" lon="6.36164">
        <ele>1277</ele>
        <time>2019-04-18T19:41:45Z</time>
      </trkpt>
      <trkpt lat="44.55537" lon="6.36094">
        <ele>1279</ele>
        <time>2019-04-18T19:42:45Z</time>
      </trkpt>
      <trkpt lat="44.55546" lon="6.36059">
        <ele>1281</ele>
        <time>2019-04-18T19:43:45Z</time>
      </trkpt>
      <trkpt lat="44.55564" lon="6.36015">
        <ele>1283</ele>
        <time>2019-04-18T19:44:45Z</time>
      </trkpt>
      <trkpt lat="44.55569" lon="6.35991">
        <ele>1283</ele>
        <time>2019-04-18T19:45:45Z</time>
      </trkpt>
      <trkpt lat="44.55571" lon="6.35957">
        <ele>1281</ele>
        <time>2019-04-18T19:46:45Z</time>
      </trkpt>
      <trkpt lat="44.55574" lon="6.35943">
        <ele>1281</ele>
        <time>2019-04-18T19:47:45Z</time>
      </trkpt>
      <trkpt lat="44.55582" lon="6.35921">
        <ele>1281</ele>
        <time>2019-04-18T19:48:45Z</time>
      </trkpt>
      <trkpt lat="44.55593" lon="6.35901">
        <ele>1283</ele>
        <time>2019-04-18T19:49:45Z</time>
      </trkpt>
      <trkpt lat="44.55598" lon="6.35879">
        <ele>1283</ele>
        <time>2019-04-18T19:50:45Z</time>
      </trkpt>
      <trkpt lat="44.55598" lon="6.35854">
        <ele>1282</ele>
        <time>2019-04-18T19:51:45Z</time>
      </trkpt>
      <trkpt lat="44.55596" lon="6.35841">
        <ele>1281</ele>
        <time>2019-04-18T19:52:45Z</time>
      </trkpt>
      <trkpt lat="44.55589" lon="6.35817">
        <ele>1279</ele>
        <time>2019-04-18T19:53:45Z</time>
      </trkpt>
      <trkpt lat="44.55573" lon="6.3577">
        <ele>1278</ele>
        <time>2019-04-18T19:54:45Z</time>
      </trkpt>
      <trkpt lat="44.55571" lon="6.35752">
        <ele>1278</ele>
        <time>2019-04-18T19:55:45Z</time>
      </trkpt>
      <trkpt lat="44.55578" lon="6.3568">
        <ele>1277</ele>
        <time>2019-04-18T19:56:45Z</time>
      </trkpt>
      <trkpt lat="44.55575" lon="6.35656">
        <ele>1277</ele>
        <time>2019-04-18T19:57:45Z</time>
      </trkpt>
      <trkpt lat="44.55555" lon="6.35587">
        <ele>1274</ele>
        <time>2019-04-18T19:58:45Z</time>
      </trkpt>
      <trkpt lat="44.55545" lon="6.35543">
        <ele>1274</ele>
        <time>2019-04-18T19:59:45Z</time>
      </trkpt>
      <trkpt lat="44.55526" lon="6.35413">
        <ele>1274</ele>
        <time>2019-04-18T20:00:45Z</time>
      </trkpt>
      <trkpt lat="44.55524" lon="6.35386">
        <ele>1273</ele>
        <time>2019-04-18T20:01:45Z</time>
      </trkpt>
      <trkpt lat="44.55524" lon="6.35353">
        <ele>1272</ele>
        <time>2019-04-18T20:02:45Z</time>
      </trkpt>
      <trkpt lat="44.55528" lon="6.35321">
        <ele>1272</ele>
        <time>2019-04-18T20:03:45Z</time>
      </trkpt>
      <trkpt lat="44.55536" lon="6.3529">
        <ele>1272</ele>
        <time>2019-04-18T20:04:45Z</time>
      </trkpt>
      <trkpt lat="44.55549" lon="6.35263">
        <ele>1274</ele>
        <time>2019-04-18T20:05:45Z</time>
      </trkpt>
      <trkpt lat="44.55588" lon="6.3522">
        <ele>1283</ele>
        <time>2019-04-18T20:06:45Z</time>
      </trkpt>
      <trkpt lat="44.55595" lon="6.35207">
        <ele>1284</ele>
        <time>2019-04-18T20:07:45Z</time>
      </trkpt>
      <trkpt lat="44.55599" lon="6.35193">
        <ele>1283</ele>
        <time>2019-04-18T20:08:45Z</time>
      </trkpt>
      <trkpt lat="44.55599" lon="6.35178">
        <ele>1282</ele>
        <time>2019-04-18T20:09:45Z</time>
      </trkpt>
      <trkpt lat="44.55592" lon="6.35145">
        <ele>1279</ele>
        <time>2019-04-18T20:10:45Z</time>
      </trkpt>
      <trkpt lat="44.55585" lon="6.35132">
        <ele>1277</ele>
        <time>2019-04-18T20:11:45Z</time>
      </trkpt>
      <trkpt lat="44.55545" lon="6.35074">
        <ele>1273</ele>
        <time>2019-04-18T20:12:45Z</time>
      </trkpt>
      <trkpt lat="44.55517" lon="6.35031">
        <ele>1273</ele>
        <time>2019-04-18T20:13:45Z</time>
      </trkpt>
      <trkpt lat="44.55497" lon="6.35003">
        <ele>1272</ele>
        <time>2019-04-18T20:14:45Z</time>
      </trkpt>
      <trkpt lat="44.55439" lon="6.34935">
        <ele>1265</ele>
        <time>2019-04-18T20:15:45Z</time>
      </trkpt>
      <trkpt lat="44.5543" lon="6.3492">
        <ele>1264</ele>
        <time>2019-04-18T20:16:45Z</time>
      </trkpt>
      <trkpt lat="44.55418" lon="6.34888">
        <ele>1261</ele>
        <time>2019-04-18T20:17:45Z</time>
      </trkpt>
      <trkpt lat="44.55411" lon="6.34854">
        <ele>1259</ele>
        <time>2019-04-18T20:18:45Z</time>
      </trkpt>
      <trkpt lat="44.55411" lon="6.34821">
        <ele>1259</ele>
        <time>2019-04-18T20:19:45Z</time>
      </trkpt>
      <trkpt lat="44.55432" lon="6.34682">
        <ele>1254</ele>
        <time>2019-04-18T20:20:45Z</time>
      </trkpt>
      <trkpt lat="44.5545" lon="6.34582">
        <ele>1250</ele>
        <time>2019-04-18T20:21:45Z</time>
      </trkpt>
      <trkpt lat="44.55452" lon="6.34564">
        <ele>1249</ele>
        <time>2019-04-18T20:22:45Z</time>
      </trkpt>
      <trkpt lat="44.55456" lon="6.34392">
        <ele>1236</ele>
        <time>2019-04-18T20:23:45Z</time>
      </trkpt>
      <trkpt lat="44.55461" lon="6.34358">
        <ele>1235</ele>
        <time>2019-04-18T20:24:45Z</time>
      </trkpt>
      <trkpt lat="44.55471" lon="6.34309">
        <ele>1235</ele>
        <time>2019-04-18T20:25:45Z</time>
      </trkpt>
      <trkpt lat="44.55487" lon="6.34275">
        <ele>1239</ele>
        <time>2019-04-18T20:26:45Z</time>
      </trkpt>
      <trkpt lat="44.5549" lon="6.34263">
        <ele>1239</ele>
        <time>2019-04-18T20:27:45Z</time>
      </trkpt>
      <trkpt lat="44.55488" lon="6.34251">
        <ele>1238</ele>
        <time>2019-04-18T20:28:45Z</time>
      </trkpt>
      <trkpt lat="44.55485" lon="6.34242">
        <ele>1237</ele>
        <time>2019-04-18T20:29:45Z</time>
      </trkpt>
      <trkpt lat="44.55464" lon="6.34221">
        <ele>1230</ele>
        <time>2019-04-18T20:30:45Z</time>
      </trkpt>
      <trkpt lat="44.55457" lon="6.3421">
        <ele>1227</ele>
        <time>2019-04-18T20:31:45Z</time>
      </trkpt>
      <trkpt lat="44.55448" lon="6.34181">
        <ele>1224</ele>
        <time>2019-04-18T20:32:45Z</time>
      </trkpt>
      <trkpt lat="44.55438" lon="6.34125">
        <ele>1221</ele>
        <time>2019-04-18T20:33:45Z</time>
      </trkpt>
      <trkpt lat="44.55432" lon="6.34066">
        <ele>1219</ele>
        <time>2019-04-18T20:34:45Z</time>
      </trkpt>
      <trkpt lat="44.55423" lon="6.34007">
        <ele>1218</ele>
        <time>2019-04-18T20:35:45Z</time>
      </trkpt>
      <trkpt lat="44.55421" lon="6.3397">
        <ele>1217</ele>
        <time>2019-04-18T20:36:45Z</time>
      </trkpt>
      <trkpt lat="44.55422" lon="6.33953">
        <ele>1217</ele>
        <time>2019-04-18T20:37:45Z</time>
      </trkpt>
      <trkpt lat="44.55432" lon="6.33904">
        <ele>1218</ele>
        <time>2019-04-18T20:38:45Z</time>
      </trkpt>
      <trkpt lat="44.55435" lon="6.33853">
        <ele>1217</ele>
        <time>2019-04-18T20:39:45Z</time>
      </trkpt>
      <trkpt lat="44.55438" lon="6.33837">
        <ele>1217</ele>
        <time>2019-04-18T20:40:45Z</time>
      </trkpt>
      <trkpt lat="44.55448" lon="6.33805">
        <ele>1219</ele>
        <time>2019-04-18T20:41:45Z</time>
      </trkpt>
      <trkpt lat="44.55452" lon="6.33789">
        <ele>1219</ele>
        <time>2019-04-18T20:42:45Z</time>
      </trkpt>
      <trkpt lat="44.55452" lon="6.33774">
        <ele>1218</ele>
        <time>2019-04-18T20:43:45Z</time>
      </trkpt>
      <trkpt lat="44.55446" lon="6.33726">
        <ele>1214</ele>
        <time>2019-04-18T20:44:45Z</time>
      </trkpt>
      <trkpt lat="44.55447" lon="6.33712">
        <ele>1213</ele>
        <time>2019-04-18T20:45:45Z</time>
      </trkpt>
      <trkpt lat="44.55451" lon="6.33699">
        <ele>1213</ele>
        <time>2019-04-18T20:46:45Z</time>
      </trkpt>
      <trkpt lat="44.55456" lon="6.33689">
        <ele>1214</ele>
        <time>2019-04-18T20:47:45Z</time>
      </trkpt>
      <trkpt lat="44.5548" lon="6.33672">
        <ele>1217</ele>
        <time>2019-04-18T20:48:45Z</time>
      </trkpt>
      <trkpt lat="44.55486" lon="6.33664">
        <ele>1218</ele>
        <time>2019-04-18T20:49:45Z</time>
      </trkpt>
      <trkpt lat="44.55487" lon="6.33631">
        <ele>1223</ele>
        <time>2019-04-18T20:50:45Z</time>
      </trkpt>
      <trkpt lat="44.55482" lon="6.33624">
        <ele>1222</ele>
        <time>2019-04-18T20:51:45Z</time>
      </trkpt>
      <trkpt lat="44.55475" lon="6.33619">
        <ele>1222</ele>
        <time>2019-04-18T20:52:45Z</time>
      </trkpt>
      <trkpt lat="44.55442" lon="6.33617">
        <ele>1215</ele>
        <time>2019-04-18T20:53:45Z</time>
      </trkpt>
      <trkpt lat="44.5543" lon="6.33613">
        <ele>1213</ele>
        <time>2019-04-18T20:54:45Z</time>
      </trkpt>
      <trkpt lat="44.55393" lon="6.33591">
        <ele>1206</ele>
        <time>2019-04-18T20:55:45Z</time>
      </trkpt>
      <trkpt lat="44.55371" lon="6.3357">
        <ele>1201</ele>
        <time>2019-04-18T20:56:45Z</time>
      </trkpt>
      <trkpt lat="44.55361" lon="6.33557">
        <ele>1199</ele>
        <time>2019-04-18T20:57:45Z</time>
      </trkpt>
      <trkpt lat="44.55355" lon="6.33542">
        <ele>1198</ele>
        <time>2019-04-18T20:58:45Z</time>
      </trkpt>
      <trkpt lat="44.5535" lon="6.33526">
        <ele>1199</ele>
        <time>2019-04-18T20:59:45Z</time>
      </trkpt>
      <trkpt lat="44.55342" lon="6.33475">
        <ele>1199</ele>
        <time>2019-04-18T21:00:45Z</time>
      </trkpt>
      <trkpt lat="44.55341" lon="6.33458">
        <ele>1199</ele>
        <time>2019-04-18T21:01:45Z</time>
      </trkpt>
      <trkpt lat="44.55343" lon="6.33423">
        <ele>1200</ele>
        <time>2019-04-18T21:02:45Z</time>
      </trkpt>
      <trkpt lat="44.55345" lon="6.33407">
        <ele>1200</ele>
        <time>2019-04-18T21:03:45Z</time>
      </trkpt>
      <trkpt lat="44.55349" lon="6.3339">
        <ele>1201</ele>
        <time>2019-04-18T21:04:45Z</time>
      </trkpt>
      <trkpt lat="44.55355" lon="6.33376">
        <ele>1202</ele>
        <time>2019-04-18T21:05:45Z</time>
      </trkpt>
      <trkpt lat="44.55369" lon="6.33351">
        <ele>1205</ele>
        <time>2019-04-18T21:06:45Z</time>
      </trkpt>
      <trkpt lat="44.55375" lon="6.33337">
        <ele>1206</ele>
        <time>2019-04-18T21:07:45Z</time>
      </trkpt>
      <trkpt lat="44.55379" lon="6.33322">
        <ele>1207</ele>
        <time>2019-04-18T21:08:45Z</time>
      </trkpt>
      <trkpt lat="44.55382" lon="6.33306">
        <ele>1209</ele>
        <time>2019-04-18T21:09:45Z</time>
      </trkpt>
      <trkpt lat="44.55382" lon="6.33291">
        <ele>1209</ele>
        <time>2019-04-18T21:10:45Z</time>
      </trkpt>
      <trkpt lat="44.5538" lon="6.33276">
        <ele>1209</ele>
        <time>2019-04-18T21:11:45Z</time>
      </trkpt>
      <trkpt lat="44.55376" lon="6.33264">
        <ele>1209</ele>
        <time>2019-04-18T21:12:45Z</time>
      </trkpt>
      <trkpt lat="44.55369" lon="6.33256">
        <ele>1208</ele>
        <time>2019-04-18T21:13:45Z</time>
      </trkpt>
      <trkpt lat="44.55361" lon="6.33253">
        <ele>1207</ele>
        <time>2019-04-18T21:14:45Z</time>
      </trkpt>
      <trkpt lat="44.55352" lon="6.33254">
        <ele>1205</ele>
        <time>2019-04-18T21:15:45Z</time>
      </trkpt>
      <trkpt lat="44.55322" lon="6.33266">
        <ele>1200</ele>
        <time>2019-04-18T21:16:45Z</time>
      </trkpt>
      <trkpt lat="44.5526" lon="6.33287">
        <ele>1193</ele>
        <time>2019-04-18T21:17:45Z</time>
      </trkpt>
      <trkpt lat="44.55206" lon="6.33301">
        <ele>1190</ele>
        <time>2019-04-18T21:18:45Z</time>
      </trkpt>
      <trkpt lat="44.55192" lon="6.333">
        <ele>1190</ele>
        <time>2019-04-18T21:19:45Z</time>
      </trkpt>
      <trkpt lat="44.55181" lon="6.33294">
        <ele>1190</ele>
        <time>2019-04-18T21:20:45Z</time>
      </trkpt>
      <trkpt lat="44.5517" lon="6.33285">
        <ele>1191</ele>
        <time>2019-04-18T21:21:45Z</time>
      </trkpt>
      <trkpt lat="44.55119" lon="6.3323">
        <ele>1190</ele>
        <time>2019-04-18T21:22:45Z</time>
      </trkpt>
      <trkpt lat="44.55106" lon="6.33215">
        <ele>1190</ele>
        <time>2019-04-18T21:23:45Z</time>
      </trkpt>
      <trkpt lat="44.551" lon="6.33206">
        <ele>1190</ele>
        <time>2019-04-18T21:24:45Z</time>
      </trkpt>
      <trkpt lat="44.55095" lon="6.33193">
        <ele>1190</ele>
        <time>2019-04-18T21:25:45Z</time>
      </trkpt>
      <trkpt lat="44.55078" lon="6.33142">
        <ele>1191</ele>
        <time>2019-04-18T21:26:45Z</time>
      </trkpt>
      <trkpt lat="44.55071" lon="6.33124">
        <ele>1191</ele>
        <time>2019-04-18T21:27:45Z</time>
      </trkpt>
      <trkpt lat="44.55053" lon="6.3309">
        <ele>1191</ele>
        <time>2019-04-18T21:28:45Z</time>
      </trkpt>
      <trkpt lat="44.55013" lon="6.33029">
        <ele>1187</ele>
        <time>2019-04-18T21:29:45Z</time>
      </trkpt>
      <trkpt lat="44.5495" lon="6.32895">
        <ele>1174</ele>
        <time>2019-04-18T21:30:45Z</time>
      </trkpt>
      <trkpt lat="44.54946" lon="6.3286">
        <ele>1169</ele>
        <time>2019-04-18T21:31:45Z</time>
      </trkpt>
      <trkpt lat="44.54958" lon="6.32733">
        <ele>1161</ele>
        <time>2019-04-18T21:32:45Z</time>
      </trkpt>
      <trkpt lat="44.54967" lon="6.32666">
        <ele>1158</ele>
        <time>2019-04-18T21:33:45Z</time>
      </trkpt>
      <trkpt lat="44.54978" lon="6.32571">
        <ele>1154</ele>
        <time>2019-04-18T21:34:45Z</time>
      </trkpt>
      <trkpt lat="44.54995" lon="6.32484">
        <ele>1154</ele>
        <time>2019-04-18T21:35:45Z</time>
      </trkpt>
      <trkpt lat="44.54995" lon="6.32466">
        <ele>1156</ele>
        <time>2019-04-18T21:36:45Z</time>
      </trkpt>
      <trkpt lat="44.54991" lon="6.32459">
        <ele>1155</ele>
        <time>2019-04-18T21:37:45Z</time>
      </trkpt>
      <trkpt lat="44.54985" lon="6.32453">
        <ele>1154</ele>
        <time>2019-04-18T21:38:45Z</time>
      </trkpt>
      <trkpt lat="44.54957" lon="6.3243">
        <ele>1145</ele>
        <time>2019-04-18T21:39:45Z</time>
      </trkpt>
      <trkpt lat="44.54947" lon="6.32419">
        <ele>1142</ele>
        <time>2019-04-18T21:40:45Z</time>
      </trkpt>
      <trkpt lat="44.54939" lon="6.32407">
        <ele>1139</ele>
        <time>2019-04-18T21:41:45Z</time>
      </trkpt>
      <trkpt lat="44.54932" lon="6.32394">
        <ele>1137</ele>
        <time>2019-04-18T21:42:45Z</time>
      </trkpt>
      <trkpt lat="44.54922" lon="6.32362">
        <ele>1134</ele>
        <time>2019-04-18T21:43:45Z</time>
      </trkpt>
      <trkpt lat="44.54915" lon="6.32324">
        <ele>1131</ele>
        <time>2019-04-18T21:44:45Z</time>
      </trkpt>
      <trkpt lat="44.54913" lon="6.32304">
        <ele>1130</ele>
        <time>2019-04-18T21:45:45Z</time>
      </trkpt>
      <trkpt lat="44.54912" lon="6.32212">
        <ele>1126</ele>
        <time>2019-04-18T21:46:45Z</time>
      </trkpt>
      <trkpt lat="44.54914" lon="6.32141">
        <ele>1121</ele>
        <time>2019-04-18T21:47:45Z</time>
      </trkpt>
      <trkpt lat="44.54922" lon="6.3202">
        <ele>1111</ele>
        <time>2019-04-18T21:48:45Z</time>
      </trkpt>
      <trkpt lat="44.54928" lon="6.31973">
        <ele>1108</ele>
        <time>2019-04-18T21:49:45Z</time>
      </trkpt>
      <trkpt lat="44.54946" lon="6.31858">
        <ele>1101</ele>
        <time>2019-04-18T21:50:45Z</time>
      </trkpt>
      <trkpt lat="44.54962" lon="6.31798">
        <ele>1099</ele>
        <time>2019-04-18T21:51:45Z</time>
      </trkpt>
      <trkpt lat="44.54975" lon="6.31719">
        <ele>1093</ele>
        <time>2019-04-18T21:52:45Z</time>
      </trkpt>
      <trkpt lat="44.54989" lon="6.31672">
        <ele>1091</ele>
        <time>2019-04-18T21:53:45Z</time>
      </trkpt>
      <trkpt lat="44.54991" lon="6.31656">
        <ele>1090</ele>
        <time>2019-04-18T21:54:45Z</time>
      </trkpt>
      <trkpt lat="44.54989" lon="6.3164">
        <ele>1088</ele>
        <time>2019-04-18T21:55:45Z</time>
      </trkpt>
      <trkpt lat="44.54984" lon="6.31624">
        <ele>1086</ele>
        <time>2019-04-18T21:56:45Z</time>
      </trkpt>
      <trkpt lat="44.54964" lon="6.31581">
        <ele>1077</ele>
        <time>2019-04-18T21:57:45Z</time>
      </trkpt>
      <trkpt lat="44.54959" lon="6.31562">
        <ele>1075</ele>
        <time>2019-04-18T21:58:45Z</time>
      </trkpt>
      <trkpt lat="44.54956" lon="6.31541">
        <ele>1075</ele>
        <time>2019-04-18T21:59:45Z</time>
      </trkpt>
      <trkpt lat="44.54954" lon="6.31499">
        <ele>1074</ele>
        <time>2019-04-18T22:00:45Z</time>
      </trkpt>
      <trkpt lat="44.54952" lon="6.31391">
        <ele>1066</ele>
        <time>2019-04-18T22:01:45Z</time>
      </trkpt>
      <trkpt lat="44.54954" lon="6.31336">
        <ele>1062</ele>
        <time>2019-04-18T22:02:45Z</time>
      </trkpt>
      <trkpt lat="44.54958" lon="6.3132">
        <ele>1062</ele>
        <time>2019-04-18T22:03:45Z</time>
      </trkpt>
      <trkpt lat="44.54963" lon="6.31307">
        <ele>1063</ele>
        <time>2019-04-18T22:04:45Z</time>
      </trkpt>
      <trkpt lat="44.54975" lon="6.31287">
        <ele>1066</ele>
        <time>2019-04-18T22:05:45Z</time>
      </trkpt>
      <trkpt lat="44.54979" lon="6.31275">
        <ele>1066</ele>
        <time>2019-04-18T22:06:45Z</time>
      </trkpt>
      <trkpt lat="44.54978" lon="6.31263">
        <ele>1066</ele>
        <time>2019-04-18T22:07:45Z</time>
      </trkpt>
      <trkpt lat="44.54975" lon="6.31252">
        <ele>1065</ele>
        <time>2019-04-18T22:08:45Z</time>
      </trkpt>
      <trkpt lat="44.54968" lon="6.31244">
        <ele>1063</ele>
        <time>2019-04-18T22:09:45Z</time>
      </trkpt>
      <trkpt lat="44.54922" lon="6.31216">
        <ele>1054</ele>
        <time>2019-04-18T22:10:45Z</time>
      </trkpt>
      <trkpt lat="44.5491" lon="6.31205">
        <ele>1052</ele>
        <time>2019-04-18T22:11:45Z</time>
      </trkpt>
      <trkpt lat="44.54898" lon="6.31189">
        <ele>1051</ele>
        <time>2019-04-18T22:12:45Z</time>
      </trkpt>
      <trkpt lat="44.54877" lon="6.31154">
        <ele>1049</ele>
        <time>2019-04-18T22:13:45Z</time>
      </trkpt>
      <trkpt lat="44.54849" lon="6.31093">
        <ele>1047</ele>
        <time>2019-04-18T22:14:45Z</time>
      </trkpt>
      <trkpt lat="44.54821" lon="6.31015">
        <ele>1043</ele>
        <time>2019-04-18T22:15:45Z</time>
      </trkpt>
      <trkpt lat="44.54816" lon="6.30994">
        <ele>1043</ele>
        <time>2019-04-18T22:16:45Z</time>
      </trkpt>
      <trkpt lat="44.54807" lon="6.30939">
        <ele>1040</ele>
        <time>2019-04-18T22:17:45Z</time>
      </trkpt>
      <trkpt lat="44.5481" lon="6.309">
        <ele>1040</ele>
        <time>2019-04-18T22:18:45Z</time>
      </trkpt>
      <trkpt lat="44.5483" lon="6.30745">
        <ele>1034</ele>
        <time>2019-04-18T22:19:45Z</time>
      </trkpt>
      <trkpt lat="44.54836" lon="6.30643">
        <ele>1032</ele>
        <time>2019-04-18T22:20:45Z</time>
      </trkpt>
      <trkpt lat="44.54836" lon="6.3058">
        <ele>1029</ele>
        <time>2019-04-18T22:21:45Z</time>
      </trkpt>
      <trkpt lat="44.54839" lon="6.30553">
        <ele>1028</ele>
        <time>2019-04-18T22:22:45Z</time>
      </trkpt>
      <trkpt lat="44.54849" lon="6.30503">
        <ele>1027</ele>
        <time>2019-04-18T22:23:45Z</time>
      </trkpt>
      <trkpt lat="44.54873" lon="6.30433">
        <ele>1027</ele>
        <time>2019-04-18T22:24:45Z</time>
      </trkpt>
      <trkpt lat="44.54885" lon="6.30384">
        <ele>1026</ele>
        <time>2019-04-18T22:25:45Z</time>
      </trkpt>
      <trkpt lat="44.54889" lon="6.30358">
        <ele>1025</ele>
        <time>2019-04-18T22:26:45Z</time>
      </trkpt>
      <trkpt lat="44.54891" lon="6.3029">
        <ele>1023</ele>
        <time>2019-04-18T22:27:45Z</time>
      </trkpt>
      <trkpt lat="44.5488" lon="6.30179">
        <ele>1019</ele>
        <time>2019-04-18T22:28:45Z</time>
      </trkpt>
      <trkpt lat="44.54878" lon="6.30154">
        <ele>1019</ele>
        <time>2019-04-18T22:29:45Z</time>
      </trkpt>
      <trkpt lat="44.54879" lon="6.3013">
        <ele>1018</ele>
        <time>2019-04-18T22:30:45Z</time>
      </trkpt>
      <trkpt lat="44.54883" lon="6.30106">
        <ele>1018</ele>
        <time>2019-04-18T22:31:45Z</time>
      </trkpt>
      <trkpt lat="44.54889" lon="6.30082">
        <ele>1018</ele>
        <time>2019-04-18T22:32:45Z</time>
      </trkpt>
      <trkpt lat="44.54897" lon="6.30058">
        <ele>1018</ele>
        <time>2019-04-18T22:33:45Z</time>
      </trkpt>
      <trkpt lat="44.54952" lon="6.29945">
        <ele>1014</ele>
        <time>2019-04-18T22:34:45Z</time>
      </trkpt>
      <trkpt lat="44.54983" lon="6.29876">
        <ele>1010</ele>
        <time>2019-04-18T22:35:45Z</time>
      </trkpt>
      <trkpt lat="44.5499" lon="6.29852">
        <ele>1008</ele>
        <time>2019-04-18T22:36:45Z</time>
      </trkpt>
      <trkpt lat="44.54994" lon="6.29828">
        <ele>1005</ele>
        <time>2019-04-18T22:37:45Z</time>
      </trkpt>
      <trkpt lat="44.54996" lon="6.29805">
        <ele>1003</ele>
        <time>2019-04-18T22:38:45Z</time>
      </trkpt>
      <trkpt lat="44.54995" lon="6.29782">
        <ele>1002</ele>
        <time>2019-04-18T22:39:45Z</time>
      </trkpt>
      <trkpt lat="44.5498" lon="6.29714">
        <ele>999</ele>
        <time>2019-04-18T22:40:45Z</time>
      </trkpt>
      <trkpt lat="44.54976" lon="6.2969">
        <ele>998</ele>
        <time>2019-04-18T22:41:45Z</time>
      </trkpt>
      <trkpt lat="44.54976" lon="6.29667">
        <ele>997</ele>
        <time>2019-04-18T22:42:45Z</time>
      </trkpt>
      <trkpt lat="44.54978" lon="6.29643">
        <ele>996</ele>
        <time>2019-04-18T22:43:45Z</time>
      </trkpt>
      <trkpt lat="44.54983" lon="6.2962">
        <ele>994</ele>
        <time>2019-04-18T22:44:45Z</time>
      </trkpt>
      <trkpt lat="44.54991" lon="6.29599">
        <ele>992</ele>
        <time>2019-04-18T22:45:45Z</time>
      </trkpt>
      <trkpt lat="44.5502" lon="6.29547">
        <ele>992</ele>
        <time>2019-04-18T22:46:45Z</time>
      </trkpt>
      <trkpt lat="44.55028" lon="6.29529">
        <ele>992</ele>
        <time>2019-04-18T22:47:45Z</time>
      </trkpt>
      <trkpt lat="44.55041" lon="6.29485">
        <ele>990</ele>
        <time>2019-04-18T22:48:45Z</time>
      </trkpt>
      <trkpt lat="44.55057" lon="6.29443">
        <ele>987</ele>
        <time>2019-04-18T22:49:45Z</time>
      </trkpt>
      <trkpt lat="44.55083" lon="6.29398">
        <ele>984</ele>
        <time>2019-04-18T22:50:45Z</time>
      </trkpt>
      <trkpt lat="44.5509" lon="6.29375">
        <ele>984</ele>
        <time>2019-04-18T22:51:45Z</time>
      </trkpt>
      <trkpt lat="44.55092" lon="6.29355">
        <ele>982</ele>
        <time>2019-04-18T22:52:45Z</time>
      </trkpt>
      <trkpt lat="44.55089" lon="6.29334">
        <ele>979</ele>
        <time>2019-04-18T22:53:45Z</time>
      </trkpt>
      <trkpt lat="44.55081" lon="6.29312">
        <ele>978</ele>
        <time>2019-04-18T22:54:45Z</time>
      </trkpt>
      <trkpt lat="44.5506" lon="6.29269">
        <ele>976</ele>
        <time>2019-04-18T22:55:45Z</time>
      </trkpt>
      <trkpt lat="44.55026" lon="6.29212">
        <ele>971</ele>
        <time>2019-04-18T22:56:45Z</time>
      </trkpt>
      <trkpt lat="44.55007" lon="6.29192">
        <ele>968</ele>
        <time>2019-04-18T22:57:45Z</time>
      </trkpt>
      <trkpt lat="44.54991" lon="6.2918">
        <ele>966</ele>
        <time>2019-04-18T22:58:45Z</time>
      </trkpt>
      <trkpt lat="44.54975" lon="6.2917">
        <ele>964</ele>
        <time>2019-04-18T22:59:45Z</time>
      </trkpt>
      <trkpt lat="44.54957" lon="6.29164">
        <ele>962</ele>
        <time>2019-04-18T23:00:45Z</time>
      </trkpt>
      <trkpt lat="44.54928" lon="6.29159">
        <ele>959</ele>
        <time>2019-04-18T23:01:45Z</time>
      </trkpt>
      <trkpt lat="44.549" lon="6.29162">
        <ele>957</ele>
        <time>2019-04-18T23:02:45Z</time>
      </trkpt>
      <trkpt lat="44.54841" lon="6.29174">
        <ele>952</ele>
        <time>2019-04-18T23:03:45Z</time>
      </trkpt>
      <trkpt lat="44.5482" lon="6.29175">
        <ele>950</ele>
        <time>2019-04-18T23:04:45Z</time>
      </trkpt>
      <trkpt lat="44.54799" lon="6.29173">
        <ele>947</ele>
        <time>2019-04-18T23:05:45Z</time>
      </trkpt>
      <trkpt lat="44.54779" lon="6.29168">
        <ele>945</ele>
        <time>2019-04-18T23:06:45Z</time>
      </trkpt>
      <trkpt lat="44.5474" lon="6.29155">
        <ele>941</ele>
        <time>2019-04-18T23:07:45Z</time>
      </trkpt>
      <trkpt lat="44.54703" lon="6.29136">
        <ele>938</ele>
        <time>2019-04-18T23:08:45Z</time>
      </trkpt>
      <trkpt lat="44.54686" lon="6.29125">
        <ele>936</ele>
        <time>2019-04-18T23:09:45Z</time>
      </trkpt>
      <trkpt lat="44.5467" lon="6.29111">
        <ele>935</ele>
        <time>2019-04-18T23:10:45Z</time>
      </trkpt>
      <trkpt lat="44.54656" lon="6.29093">
        <ele>934</ele>
        <time>2019-04-18T23:11:45Z</time>
      </trkpt>
      <trkpt lat="44.54647" lon="6.29072">
        <ele>934</ele>
        <time>2019-04-18T23:12:45Z</time>
      </trkpt>
      <trkpt lat="44.54638" lon="6.29049">
        <ele>932</ele>
        <time>2019-04-18T23:13:45Z</time>
      </trkpt>
      <trkpt lat="44.54608" lon="6.2895">
        <ele>927</ele>
        <time>2019-04-18T23:14:45Z</time>
      </trkpt>
      <trkpt lat="44.54599" lon="6.28927">
        <ele>925</ele>
        <time>2019-04-18T23:15:45Z</time>
      </trkpt>
      <trkpt lat="44.54588" lon="6.28906">
        <ele>923</ele>
        <time>2019-04-18T23:16:45Z</time>
      </trkpt>
      <trkpt lat="44.54574" lon="6.28889">
        <ele>922</ele>
        <time>2019-04-18T23:17:45Z</time>
      </trkpt>
      <trkpt lat="44.54558" lon="6.28877">
        <ele>920</ele>
        <time>2019-04-18T23:18:45Z</time>
      </trkpt>
      <trkpt lat="44.54523" lon="6.2886">
        <ele>917</ele>
        <time>2019-04-18T23:19:45Z</time>
      </trkpt>
      <trkpt lat="44.54337" lon="6.28795">
        <ele>905</ele>
        <time>2019-04-18T23:20:45Z</time>
      </trkpt>
      <trkpt lat="44.5432" lon="6.28786">
        <ele>904</ele>
        <time>2019-04-18T23:21:45Z</time>
      </trkpt>
      <trkpt lat="44.54304" lon="6.28775">
        <ele>904</ele>
        <time>2019-04-18T23:22:45Z</time>
      </trkpt>
      <trkpt lat="44.54291" lon="6.2876">
        <ele>903</ele>
        <time>2019-04-18T23:23:45Z</time>
      </trkpt>
      <trkpt lat="44.54279" lon="6.28742">
        <ele>902</ele>
        <time>2019-04-18T23:24:45Z</time>
      </trkpt>
      <trkpt lat="44.54272" lon="6.28723">
        <ele>900</ele>
        <time>2019-04-18T23:25:45Z</time>
      </trkpt>
      <trkpt lat="44.54266" lon="6.28701">
        <ele>899</ele>
        <time>2019-04-18T23:26:45Z</time>
      </trkpt>
      <trkpt lat="44.54262" lon="6.28677">
        <ele>897</ele>
        <time>2019-04-18T23:27:45Z</time>
      </trkpt>
      <trkpt lat="44.54257" lon="6.28604">
        <ele>892</ele>
        <time>2019-04-18T23:28:45Z</time>
      </trkpt>
      <trkpt lat="44.54244" lon="6.28506">
        <ele>886</ele>
        <time>2019-04-18T23:29:45Z</time>
      </trkpt>
      <trkpt lat="44.54238" lon="6.28395">
        <ele>882</ele>
        <time>2019-04-18T23:30:45Z</time>
      </trkpt>
      <trkpt lat="44.5423" lon="6.28371">
        <ele>880</ele>
        <time>2019-04-18T23:31:45Z</time>
      </trkpt>
      <trkpt lat="44.54299" lon="6.28246">
        <ele>874</ele>
        <time>2019-04-18T23:32:45Z</time>
      </trkpt>
      <trkpt lat="44.5431" lon="6.2823">
        <ele>873</ele>
        <time>2019-04-18T23:33:45Z</time>
      </trkpt>
      <trkpt lat="44.54327" lon="6.28211">
        <ele>871</ele>
        <time>2019-04-18T23:34:45Z</time>
      </trkpt>
      <trkpt lat="44.54373" lon="6.28176">
        <ele>869</ele>
        <time>2019-04-18T23:35:45Z</time>
      </trkpt>
      <trkpt lat="44.5439" lon="6.28157">
        <ele>867</ele>
        <time>2019-04-18T23:36:45Z</time>
      </trkpt>
      <trkpt lat="44.54406" lon="6.28121">
        <ele>867</ele>
        <time>2019-04-18T23:37:45Z</time>
      </trkpt>
      <trkpt lat="44.54502" lon="6.27807">
        <ele>868</ele>
        <time>2019-04-18T23:38:45Z</time>
      </trkpt>
      <trkpt lat="44.54584" lon="6.27838">
        <ele>869</ele>
        <time>2019-04-18T23:39:45Z</time>
      </trkpt>
      <trkpt lat="44.54653" lon="6.27876">
        <ele>874</ele>
        <time>2019-04-18T23:40:45Z</time>
      </trkpt>
      <trkpt lat="44.54706" lon="6.27888">
        <ele>877</ele>
        <time>2019-04-18T23:41:45Z</time>
      </trkpt>
      <trkpt lat="44.5471" lon="6.27838">
        <ele>876</ele>
        <time>2019-04-18T23:42:45Z</time>
      </trkpt>
      <trkpt lat="44.54727" lon="6.2778">
        <ele>875</ele>
        <time>2019-04-18T23:43:45Z</time>
      </trkpt>
      <trkpt lat="44.54729" lon="6.27766">
        <ele>874</ele>
        <time>2019-04-18T23:44:45Z</time>
      </trkpt>
      <trkpt lat="44.54738" lon="6.2776">
        <ele>874</ele>
        <time>2019-04-18T23:45:45Z</time>
      </trkpt>
      <trkpt lat="44.54767" lon="6.27728">
        <ele>874</ele>
        <time>2019-04-18T23:46:45Z</time>
      </trkpt>
      <trkpt lat="44.548" lon="6.27722">
        <ele>875</ele>
        <time>2019-04-18T23:47:45Z</time>
      </trkpt>
      <trkpt lat="44.54833" lon="6.27662">
        <ele>876</ele>
        <time>2019-04-18T23:48:45Z</time>
      </trkpt>
      <trkpt lat="44.54898" lon="6.27554">
        <ele>876</ele>
        <time>2019-04-18T23:49:45Z</time>
      </trkpt>
      <trkpt lat="44.54939" lon="6.27496">
        <ele>876</ele>
        <time>2019-04-18T23:50:45Z</time>
      </trkpt>
      <trkpt lat="44.54976" lon="6.27439">
        <ele>875</ele>
        <time>2019-04-18T23:51:45Z</time>
      </trkpt>
      <trkpt lat="44.55015" lon="6.27384">
        <ele>875</ele>
        <time>2019-04-18T23:52:45Z</time>
      </trkpt>
      <trkpt lat="44.55039" lon="6.27344">
        <ele>874</ele>
        <time>2019-04-18T23:53:45Z</time>
      </trkpt>
      <trkpt lat="44.55074" lon="6.27273">
        <ele>872</ele>
        <time>2019-04-18T23:54:45Z</time>
      </trkpt>
      <trkpt lat="44.55095" lon="6.27247">
        <ele>871</ele>
        <time>2019-04-18T23:55:45Z</time>
      </trkpt>
      <trkpt lat="44.55156" lon="6.2719">
        <ele>871</ele>
        <time>2019-04-18T23:56:45Z</time>
      </trkpt>
      <trkpt lat="44.5522" lon="6.27136">
        <ele>870</ele>
        <time>2019-04-18T23:57:45Z</time>
      </trkpt>
      <trkpt lat="44.55247" lon="6.27109">
        <ele>870</ele>
        <time>2019-04-18T23:58:45Z</time>
      </trkpt>
      <trkpt lat="44.55259" lon="6.27086">
        <ele>869</ele>
        <time>2019-04-18T23:59:45Z</time>
      </trkpt>
      <trkpt lat="44.55314" lon="6.26972">
        <ele>868</ele>
        <time>2019-04-19T00:00:45Z</time>
      </trkpt>
      <trkpt lat="44.5532" lon="6.26946">
        <ele>867</ele>
        <time>2019-04-19T00:01:45Z</time>
      </trkpt>
      <trkpt lat="44.55324" lon="6.26923">
        <ele>867</ele>
        <time>2019-04-19T00:02:45Z</time>
      </trkpt>
      <trkpt lat="44.55333" lon="6.26818">
        <ele>865</ele>
        <time>2019-04-19T00:03:45Z</time>
      </trkpt>
      <trkpt lat="44.55334" lon="6.26694">
        <ele>864</ele>
        <time>2019-04-19T00:04:45Z</time>
      </trkpt>
      <trkpt lat="44.55336" lon="6.2667">
        <ele>864</ele>
        <time>2019-04-19T00:05:45Z</time>
      </trkpt>
      <trkpt lat="44.55369" lon="6.26553">
        <ele>868</ele>
        <time>2019-04-19T00:06:45Z</time>
      </trkpt>
      <trkpt lat="44.55412" lon="6.26434">
        <ele>872</ele>
        <time>2019-04-19T00:07:45Z</time>
      </trkpt>
      <trkpt lat="44.5542" lon="6.26314">
        <ele>871</ele>
        <time>2019-04-19T00:08:45Z</time>
      </trkpt>
      <trkpt lat="44.55419" lon="6.26234">
        <ele>873</ele>
        <time>2019-04-19T00:09:45Z</time>
      </trkpt>
      <trkpt lat="44.55421" lon="6.26195">
        <ele>874</ele>
        <time>2019-04-19T00:10:45Z</time>
      </trkpt>
      <trkpt lat="44.55425" lon="6.26156">
        <ele>876</ele>
        <time>2019-04-19T00:11:45Z</time>
      </trkpt>
      <trkpt lat="44.5543" lon="6.26134">
        <ele>877</ele>
        <time>2019-04-19T00:12:45Z</time>
      </trkpt>
      <trkpt lat="44.55435" lon="6.26125">
        <ele>878</ele>
        <time>2019-04-19T00:13:45Z</time>
      </trkpt>
      <trkpt lat="44.5545" lon="6.26113">
        <ele>879</ele>
        <time>2019-04-19T00:14:45Z</time>
      </trkpt>
      <trkpt lat="44.55461" lon="6.26102">
        <ele>880</ele>
        <time>2019-04-19T00:15:45Z</time>
      </trkpt>
      <trkpt lat="44.55474" lon="6.26076">
        <ele>881</ele>
        <time>2019-04-19T00:16:45Z</time>
      </trkpt>
      <trkpt lat="44.55493" lon="6.26055">
        <ele>883</ele>
        <time>2019-04-19T00:17:45Z</time>
      </trkpt>
      <trkpt lat="44.55524" lon="6.26">
        <ele>887</ele>
        <time>2019-04-19T00:18:45Z</time>
      </trkpt>
      <trkpt lat="44.55541" lon="6.25984">
        <ele>888</ele>
        <time>2019-04-19T00:19:45Z</time>
      </trkpt>
      <trkpt lat="44.55634" lon="6.25919">
        <ele>896</ele>
        <time>2019-04-19T00:20:45Z</time>
      </trkpt>
      <trkpt lat="44.55652" lon="6.25889">
        <ele>898</ele>
        <time>2019-04-19T00:21:45Z</time>
      </trkpt>
      <trkpt lat="44.55671" lon="6.25842">
        <ele>901</ele>
        <time>2019-04-19T00:22:45Z</time>
      </trkpt>
      <trkpt lat="44.55678" lon="6.25824">
        <ele>902</ele>
        <time>2019-04-19T00:23:45Z</time>
      </trkpt>
      <trkpt lat="44.55682" lon="6.25794">
        <ele>902</ele>
        <time>2019-04-19T00:24:45Z</time>
      </trkpt>
      <trkpt lat="44.55702" lon="6.25745">
        <ele>904</ele>
        <time>2019-04-19T00:25:45Z</time>
      </trkpt>
      <trkpt lat="44.55727" lon="6.257">
        <ele>906</ele>
        <time>2019-04-19T00:26:45Z</time>
      </trkpt>
      <trkpt lat="44.55765" lon="6.25639">
        <ele>909</ele>
        <time>2019-04-19T00:27:45Z</time>
      </trkpt>
      <trkpt lat="44.55776" lon="6.25629">
        <ele>911</ele>
        <time>2019-04-19T00:28:45Z</time>
      </trkpt>
      <trkpt lat="44.558" lon="6.25597">
        <ele>913</ele>
        <time>2019-04-19T00:29:45Z</time>
      </trkpt>
      <trkpt lat="44.55837" lon="6.25498">
        <ele>919</ele>
        <time>2019-04-19T00:30:45Z</time>
      </trkpt>
      <trkpt lat="44.55855" lon="6.25431">
        <ele>921</ele>
        <time>2019-04-19T00:31:45Z</time>
      </trkpt>
      <trkpt lat="44.5587" lon="6.25393">
        <ele>924</ele>
        <time>2019-04-19T00:32:45Z</time>
      </trkpt>
      <trkpt lat="44.55936" lon="6.25322">
        <ele>931</ele>
        <time>2019-04-19T00:33:45Z</time>
      </trkpt>
      <trkpt lat="44.55943" lon="6.25289">
        <ele>930</ele>
        <time>2019-04-19T00:34:45Z</time>
      </trkpt>
      <trkpt lat="44.55947" lon="6.25278">
        <ele>930</ele>
        <time>2019-04-19T00:35:45Z</time>
      </trkpt>
      <trkpt lat="44.55956" lon="6.25271">
        <ele>931</ele>
        <time>2019-04-19T00:36:45Z</time>
      </trkpt>
      <trkpt lat="44.55988" lon="6.25266">
        <ele>933</ele>
        <time>2019-04-19T00:37:45Z</time>
      </trkpt>
      <trkpt lat="44.56011" lon="6.25256">
        <ele>935</ele>
        <time>2019-04-19T00:38:45Z</time>
      </trkpt>
      <trkpt lat="44.56067" lon="6.25241">
        <ele>942</ele>
        <time>2019-04-19T00:39:45Z</time>
      </trkpt>
      <trkpt lat="44.56072" lon="6.25237">
        <ele>943</ele>
        <time>2019-04-19T00:40:45Z</time>
      </trkpt>
      <trkpt lat="44.56075" lon="6.25228">
        <ele>943</ele>
        <time>2019-04-19T00:41:45Z</time>
      </trkpt>
      <trkpt lat="44.56067" lon="6.25193">
        <ele>942</ele>
        <time>2019-04-19T00:42:45Z</time>
      </trkpt>
      <trkpt lat="44.5607" lon="6.25151">
        <ele>942</ele>
        <time>2019-04-19T00:43:45Z</time>
      </trkpt>
      <trkpt lat="44.56091" lon="6.25104">
        <ele>946</ele>
        <time>2019-04-19T00:44:45Z</time>
      </trkpt>
      <trkpt lat="44.56113" lon="6.25078">
        <ele>950</ele>
        <time>2019-04-19T00:45:45Z</time>
      </trkpt>
      <trkpt lat="44.56128" lon="6.25053">
        <ele>952</ele>
        <time>2019-04-19T00:46:45Z</time>
      </trkpt>
      <trkpt lat="44.56145" lon="6.25043">
        <ele>955</ele>
        <time>2019-04-19T00:47:45Z</time>
      </trkpt>
      <trkpt lat="44.56171" lon="6.25018">
        <ele>960</ele>
        <time>2019-04-19T00:48:45Z</time>
      </trkpt>
      <trkpt lat="44.56192" lon="6.2498">
        <ele>961</ele>
        <time>2019-04-19T00:49:45Z</time>
      </trkpt>
      <trkpt lat="44.56217" lon="6.24932">
        <ele>964</ele>
        <time>2019-04-19T00:50:45Z</time>
      </trkpt>
      <trkpt lat="44.56241" lon="6.24853">
        <ele>967</ele>
        <time>2019-04-19T00:51:45Z</time>
      </trkpt>
      <trkpt lat="44.56249" lon="6.2481">
        <ele>968</ele>
        <time>2019-04-19T00:52:45Z</time>
      </trkpt>
      <trkpt lat="44.56273" lon="6.24784">
        <ele>971</ele>
        <time>2019-04-19T00:53:45Z</time>
      </trkpt>
      <trkpt lat="44.56322" lon="6.24761">
        <ele>979</ele>
        <time>2019-04-19T00:54:45Z</time>
      </trkpt>
      <trkpt lat="44.56398" lon="6.24709">
        <ele>985</ele>
        <time>2019-04-19T00:55:45Z</time>
      </trkpt>
      <trkpt lat="44.56449" lon="6.24669">
        <ele>985</ele>
        <time>2019-04-19T00:56:45Z</time>
      </trkpt>
      <trkpt lat="44.5649" lon="6.24641">
        <ele>986</ele>
        <time>2019-04-19T00:57:45Z</time>
      </trkpt>
      <trkpt lat="44.56531" lon="6.2462">
        <ele>987</ele>
        <time>2019-04-19T00:58:45Z</time>
      </trkpt>
      <trkpt lat="44.56571" lon="6.24609">
        <ele>990</ele>
        <time>2019-04-19T00:59:45Z</time>
      </trkpt>
      <trkpt lat="44.56636" lon="6.24578">
        <ele>991</ele>
        <time>2019-04-19T01:00:45Z</time>
      </trkpt>
      <trkpt lat="44.56731" lon="6.24515">
        <ele>995</ele>
        <time>2019-04-19T01:01:45Z</time>
      </trkpt>
      <trkpt lat="44.56765" lon="6.24464">
        <ele>997</ele>
        <time>2019-04-19T01:02:45Z</time>
      </trkpt>
      <trkpt lat="44.56804" lon="6.24409">
        <ele>1000</ele>
        <time>2019-04-19T01:03:45Z</time>
      </trkpt>
      <trkpt lat="44.56862" lon="6.24353">
        <ele>1002</ele>
        <time>2019-04-19T01:04:45Z</time>
      </trkpt>
      <trkpt lat="44.56912" lon="6.2433">
        <ele>1003</ele>
        <time>2019-04-19T01:05:45Z</time>
      </trkpt>
      <trkpt lat="44.56925" lon="6.2431">
        <ele>1002</ele>
        <time>2019-04-19T01:06:45Z</time>
      </trkpt>
      <trkpt lat="44.56957" lon="6.24247">
        <ele>1000</ele>
        <time>2019-04-19T01:07:45Z</time>
      </trkpt>
      <trkpt lat="44.56985" lon="6.24183">
        <ele>996</ele>
        <time>2019-04-19T01:08:45Z</time>
      </trkpt>
      <trkpt lat="44.57002" lon="6.24116">
        <ele>996</ele>
        <time>2019-04-19T01:09:45Z</time>
      </trkpt>
      <trkpt lat="44.57009" lon="6.24027">
        <ele>1000</ele>
        <time>2019-04-19T01:10:45Z</time>
      </trkpt>
      <trkpt lat="44.57009" lon="6.23954">
        <ele>1002</ele>
        <time>2019-04-19T01:11:45Z</time>
      </trkpt>
      <trkpt lat="44.57006" lon="6.23875">
        <ele>1004</ele>
        <time>2019-04-19T01:12:45Z</time>
      </trkpt>
      <trkpt lat="44.56989" lon="6.23827">
        <ele>1003</ele>
        <time>2019-04-19T01:13:45Z</time>
      </trkpt>
      <trkpt lat="44.56985" lon="6.2379">
        <ele>1003</ele>
        <time>2019-04-19T01:14:45Z</time>
      </trkpt>
      <trkpt lat="44.5699" lon="6.23759">
        <ele>1006</ele>
        <time>2019-04-19T01:15:45Z</time>
      </trkpt>
      <trkpt lat="44.56996" lon="6.23739">
        <ele>1007</ele>
        <time>2019-04-19T01:16:45Z</time>
      </trkpt>
      <trkpt lat="44.56999" lon="6.23647">
        <ele>1006</ele>
        <time>2019-04-19T01:17:45Z</time>
      </trkpt>
      <trkpt lat="44.57015" lon="6.23594">
        <ele>1006</ele>
        <time>2019-04-19T01:18:45Z</time>
      </trkpt>
      <trkpt lat="44.5702" lon="6.23567">
        <ele>1005</ele>
        <time>2019-04-19T01:19:45Z</time>
      </trkpt>
      <trkpt lat="44.57019" lon="6.23531">
        <ele>1002</ele>
        <time>2019-04-19T01:20:45Z</time>
      </trkpt>
      <trkpt lat="44.57025" lon="6.23478">
        <ele>1000</ele>
        <time>2019-04-19T01:21:45Z</time>
      </trkpt>
      <trkpt lat="44.57037" lon="6.23446">
        <ele>1001</ele>
        <time>2019-04-19T01:22:45Z</time>
      </trkpt>
      <trkpt lat="44.57079" lon="6.23379">
        <ele>1007</ele>
        <time>2019-04-19T01:23:45Z</time>
      </trkpt>
      <trkpt lat="44.57097" lon="6.23319">
        <ele>1006</ele>
        <time>2019-04-19T01:24:45Z</time>
      </trkpt>
      <trkpt lat="44.57158" lon="6.23169">
        <ele>1009</ele>
        <time>2019-04-19T01:25:45Z</time>
      </trkpt>
      <trkpt lat="44.57171" lon="6.23151">
        <ele>1009</ele>
        <time>2019-04-19T01:26:45Z</time>
      </trkpt>
      <trkpt lat="44.57204" lon="6.23125">
        <ele>1011</ele>
        <time>2019-04-19T01:27:45Z</time>
      </trkpt>
      <trkpt lat="44.57243" lon="6.23076">
        <ele>1011</ele>
        <time>2019-04-19T01:28:45Z</time>
      </trkpt>
      <trkpt lat="44.57279" lon="6.23011">
        <ele>1010</ele>
        <time>2019-04-19T01:29:45Z</time>
      </trkpt>
      <trkpt lat="44.57291" lon="6.22984">
        <ele>1009</ele>
        <time>2019-04-19T01:30:45Z</time>
      </trkpt>
      <trkpt lat="44.57321" lon="6.22871">
        <ele>1004</ele>
        <time>2019-04-19T01:31:45Z</time>
      </trkpt>
      <trkpt lat="44.57341" lon="6.22832">
        <ele>1002</ele>
        <time>2019-04-19T01:32:45Z</time>
      </trkpt>
      <trkpt lat="44.57344" lon="6.22799">
        <ele>1001</ele>
        <time>2019-04-19T01:33:45Z</time>
      </trkpt>
      <trkpt lat="44.57336" lon="6.22764">
        <ele>998</ele>
        <time>2019-04-19T01:34:45Z</time>
      </trkpt>
      <trkpt lat="44.57313" lon="6.22726">
        <ele>992</ele>
        <time>2019-04-19T01:35:45Z</time>
      </trkpt>
      <trkpt lat="44.57309" lon="6.22694">
        <ele>989</ele>
        <time>2019-04-19T01:36:45Z</time>
      </trkpt>
      <trkpt lat="44.57324" lon="6.22606">
        <ele>984</ele>
        <time>2019-04-19T01:37:45Z</time>
      </trkpt>
      <trkpt lat="44.5732" lon="6.22557">
        <ele>981</ele>
        <time>2019-04-19T01:38:45Z</time>
      </trkpt>
      <trkpt lat="44.57322" lon="6.22475">
        <ele>976</ele>
        <time>2019-04-19T01:39:45Z</time>
      </trkpt>
      <trkpt lat="44.5732" lon="6.22456">
        <ele>973</ele>
        <time>2019-04-19T01:40:45Z</time>
      </trkpt>
      <trkpt lat="44.57324" lon="6.22434">
        <ele>971</ele>
        <time>2019-04-19T01:41:45Z</time>
      </trkpt>
      <trkpt lat="44.57344" lon="6.22401">
        <ele>970</ele>
        <time>2019-04-19T01:42:45Z</time>
      </trkpt>
      <trkpt lat="44.57366" lon="6.2238">
        <ele>973</ele>
        <time>2019-04-19T01:43:45Z</time>
      </trkpt>
      <trkpt lat="44.57301" lon="6.22339">
        <ele>962</ele>
        <time>2019-04-19T01:44:45Z</time>
      </trkpt>
      <trkpt lat="44.57247" lon="6.22329">
        <ele>956</ele>
        <time>2019-04-19T01:45:45Z</time>
      </trkpt>
      <trkpt lat="44.57232" lon="6.2231">
        <ele>954</ele>
        <time>2019-04-19T01:46:45Z</time>
      </trkpt>
      <trkpt lat="44.57186" lon="6.22065">
        <ele>941</ele>
        <time>2019-04-19T01:47:45Z</time>
      </trkpt>
      <trkpt lat="44.57112" lon="6.21965">
        <ele>930</ele>
        <time>2019-04-19T01:48:45Z</time>
      </trkpt>
      <trkpt lat="44.57066" lon="6.21893">
        <ele>923</ele>
        <time>2019-04-19T01:49:45Z</time>
      </trkpt>
      <trkpt lat="44.5704" lon="6.2184">
        <ele>917</ele>
        <time>2019-04-19T01:50:45Z</time>
      </trkpt>
      <trkpt lat="44.5702" lon="6.21773">
        <ele>911</ele>
        <time>2019-04-19T01:51:45Z</time>
      </trkpt>
      <trkpt lat="44.57014" lon="6.21732">
        <ele>908</ele>
        <time>2019-04-19T01:52:45Z</time>
      </trkpt>
      <trkpt lat="44.57016" lon="6.21486">
        <ele>902</ele>
        <time>2019-04-19T01:53:45Z</time>
      </trkpt>
      <trkpt lat="44.57007" lon="6.21424">
        <ele>899</ele>
        <time>2019-04-19T01:54:45Z</time>
      </trkpt>
      <trkpt lat="44.56989" lon="6.21364">
        <ele>893</ele>
        <time>2019-04-19T01:55:45Z</time>
      </trkpt>
      <trkpt lat="44.56875" lon="6.21061">
        <ele>875</ele>
        <time>2019-04-19T01:56:45Z</time>
      </trkpt>
      <trkpt lat="44.56809" lon="6.20919">
        <ele>869</ele>
        <time>2019-04-19T01:57:45Z</time>
      </trkpt>
      <trkpt lat="44.5678" lon="6.2084">
        <ele>868</ele>
        <time>2019-04-19T01:58:45Z</time>
      </trkpt>
      <trkpt lat="44.56697" lon="6.20491">
        <ele>865</ele>
        <time>2019-04-19T01:59:45Z</time>
      </trkpt>
      <trkpt lat="44.56678" lon="6.20433">
        <ele>864</ele>
        <time>2019-04-19T02:00:45Z</time>
      </trkpt>
      <trkpt lat="44.56664" lon="6.20397">
        <ele>863</ele>
        <time>2019-04-19T02:01:45Z</time>
      </trkpt>
      <trkpt lat="44.56631" lon="6.20329">
        <ele>860</ele>
        <time>2019-04-19T02:02:45Z</time>
      </trkpt>
      <trkpt lat="44.56579" lon="6.20235">
        <ele>860</ele>
        <time>2019-04-19T02:03:45Z</time>
      </trkpt>
      <trkpt lat="44.56539" lon="6.20156">
        <ele>860</ele>
        <time>2019-04-19T02:04:45Z</time>
      </trkpt>
      <trkpt lat="44.56481" lon="6.20005">
        <ele>860</ele>
        <time>2019-04-19T02:05:45Z</time>
      </trkpt>
      <trkpt lat="44.5647" lon="6.19992">
        <ele>860</ele>
        <time>2019-04-19T02:06:45Z</time>
      </trkpt>
      <trkpt lat="44.56468" lon="6.19986">
        <ele>860</ele>
        <time>2019-04-19T02:07:45Z</time>
      </trkpt>
      <trkpt lat="44.56464" lon="6.19981">
        <ele>860</ele>
        <time>2019-04-19T02:08:45Z</time>
      </trkpt>
      <trkpt lat="44.56462" lon="6.19944">
        <ele>859</ele>
        <time>2019-04-19T02:09:45Z</time>
      </trkpt>
      <trkpt lat="44.56479" lon="6.19809">
        <ele>857</ele>
        <time>2019-04-19T02:10:45Z</time>
      </trkpt>
      <trkpt lat="44.56485" lon="6.19783">
        <ele>857</ele>
        <time>2019-04-19T02:11:45Z</time>
      </trkpt>
      <trkpt lat="44.56502" lon="6.19751">
        <ele>857</ele>
        <time>2019-04-19T02:12:45Z</time>
      </trkpt>
      <trkpt lat="44.56593" lon="6.19614">
        <ele>857</ele>
        <time>2019-04-19T02:13:45Z</time>
      </trkpt>
      <trkpt lat="44.56604" lon="6.19586">
        <ele>857</ele>
        <time>2019-04-19T02:14:45Z</time>
      </trkpt>
      <trkpt lat="44.56605" lon="6.1958">
        <ele>857</ele>
        <time>2019-04-19T02:15:45Z</time>
      </trkpt>
      <trkpt lat="44.56625" lon="6.19574">
        <ele>856</ele>
        <time>2019-04-19T02:16:45Z</time>
      </trkpt>
      <trkpt lat="44.56668" lon="6.19591">
        <ele>856</ele>
        <time>2019-04-19T02:17:45Z</time>
      </trkpt>
      <trkpt lat="44.56681" lon="6.19594">
        <ele>856</ele>
        <time>2019-04-19T02:18:45Z</time>
      </trkpt>
      <trkpt lat="44.56693" lon="6.19593">
        <ele>857</ele>
        <time>2019-04-19T02:19:45Z</time>
      </trkpt>
      <trkpt lat="44.56714" lon="6.19586">
        <ele>857</ele>
        <time>2019-04-19T02:20:45Z</time>
      </trkpt>
      <trkpt lat="44.56723" lon="6.19578">
        <ele>857</ele>
        <time>2019-04-19T02:21:45Z</time>
      </trkpt>
      <trkpt lat="44.56737" lon="6.19558">
        <ele>857</ele>
        <time>2019-04-19T02:22:45Z</time>
      </trkpt>
      <trkpt lat="44.56744" lon="6.19543">
        <ele>857</ele>
        <time>2019-04-19T02:23:45Z</time>
      </trkpt>
      <trkpt lat="44.5681" lon="6.19388">
        <ele>857</ele>
        <time>2019-04-19T02:24:45Z</time>
      </trkpt>
      <trkpt lat="44.56885" lon="6.19204">
        <ele>855</ele>
        <time>2019-04-19T02:25:45Z</time>
      </trkpt>
      <trkpt lat="44.56948" lon="6.1909">
        <ele>853</ele>
        <time>2019-04-19T02:26:45Z</time>
      </trkpt>
      <trkpt lat="44.56957" lon="6.19075">
        <ele>853</ele>
        <time>2019-04-19T02:27:45Z</time>
      </trkpt>
      <trkpt lat="44.56979" lon="6.19048">
        <ele>852</ele>
        <time>2019-04-19T02:28:45Z</time>
      </trkpt>
      <trkpt lat="44.57019" lon="6.19012">
        <ele>853</ele>
        <time>2019-04-19T02:29:45Z</time>
      </trkpt>
      <trkpt lat="44.57043" lon="6.18982">
        <ele>853</ele>
        <time>2019-04-19T02:30:45Z</time>
      </trkpt>
      <trkpt lat="44.57064" lon="6.18948">
        <ele>853</ele>
        <time>2019-04-19T02:31:45Z</time>
      </trkpt>
      <trkpt lat="44.57093" lon="6.18894">
        <ele>853</ele>
        <time>2019-04-19T02:32:45Z</time>
      </trkpt>
      <trkpt lat="44.57115" lon="6.18863">
        <ele>853</ele>
        <time>2019-04-19T02:33:45Z</time>
      </trkpt>
      <trkpt lat="44.57128" lon="6.1885">
        <ele>853</ele>
        <time>2019-04-19T02:34:45Z</time>
      </trkpt>
      <trkpt lat="44.57199" lon="6.18808">
        <ele>856</ele>
        <time>2019-04-19T02:35:45Z</time>
      </trkpt>
      <trkpt lat="44.57212" lon="6.18796">
        <ele>856</ele>
        <time>2019-04-19T02:36:45Z</time>
      </trkpt>
      <trkpt lat="44.57222" lon="6.18782">
        <ele>857</ele>
        <time>2019-04-19T02:37:45Z</time>
      </trkpt>
      <trkpt lat="44.57229" lon="6.18765">
        <ele>857</ele>
        <time>2019-04-19T02:38:45Z</time>
      </trkpt>
      <trkpt lat="44.57235" lon="6.1873">
        <ele>856</ele>
        <time>2019-04-19T02:39:45Z</time>
      </trkpt>
      <trkpt lat="44.57233" lon="6.18691">
        <ele>855</ele>
        <time>2019-04-19T02:40:45Z</time>
      </trkpt>
      <trkpt lat="44.57237" lon="6.18668">
        <ele>855</ele>
        <time>2019-04-19T02:41:45Z</time>
      </trkpt>
      <trkpt lat="44.57246" lon="6.18633">
        <ele>856</ele>
        <time>2019-04-19T02:42:45Z</time>
      </trkpt>
      <trkpt lat="44.57273" lon="6.18558">
        <ele>860</ele>
        <time>2019-04-19T02:43:45Z</time>
      </trkpt>
      <trkpt lat="44.57298" lon="6.18462">
        <ele>863</ele>
        <time>2019-04-19T02:44:45Z</time>
      </trkpt>
      <trkpt lat="44.57324" lon="6.18352">
        <ele>865</ele>
        <time>2019-04-19T02:45:45Z</time>
      </trkpt>
      <trkpt lat="44.57332" lon="6.18332">
        <ele>866</ele>
        <time>2019-04-19T02:46:45Z</time>
      </trkpt>
      <trkpt lat="44.57341" lon="6.18316">
        <ele>867</ele>
        <time>2019-04-19T02:47:45Z</time>
      </trkpt>
      <trkpt lat="44.57387" lon="6.18267">
        <ele>873</ele>
        <time>2019-04-19T02:48:45Z</time>
      </trkpt>
      <trkpt lat="44.57429" lon="6.18231">
        <ele>878</ele>
        <time>2019-04-19T02:49:45Z</time>
      </trkpt>
      <trkpt lat="44.57441" lon="6.18217">
        <ele>879</ele>
        <time>2019-04-19T02:50:45Z</time>
      </trkpt>
      <trkpt lat="44.57501" lon="6.18115">
        <ele>885</ele>
        <time>2019-04-19T02:51:45Z</time>
      </trkpt>
      <trkpt lat="44.57513" lon="6.18101">
        <ele>885</ele>
        <time>2019-04-19T02:52:45Z</time>
      </trkpt>
      <trkpt lat="44.57553" lon="6.18071">
        <ele>887</ele>
        <time>2019-04-19T02:53:45Z</time>
      </trkpt>
      <trkpt lat="44.57582" lon="6.18033">
        <ele>888</ele>
        <time>2019-04-19T02:54:45Z</time>
      </trkpt>
      <trkpt lat="44.5761" lon="6.18001">
        <ele>890</ele>
        <time>2019-04-19T02:55:45Z</time>
      </trkpt>
      <trkpt lat="44.57631" lon="6.17983">
        <ele>892</ele>
        <time>2019-04-19T02:56:45Z</time>
      </trkpt>
      <trkpt lat="44.57687" lon="6.17949">
        <ele>895</ele>
        <time>2019-04-19T02:57:45Z</time>
      </trkpt>
      <trkpt lat="44.57703" lon="6.17945">
        <ele>896</ele>
        <time>2019-04-19T02:58:45Z</time>
      </trkpt>
      <trkpt lat="44.57747" lon="6.17937">
        <ele>899</ele>
        <time>2019-04-19T02:59:45Z</time>
      </trkpt>
      <trkpt lat="44.57777" lon="6.17935">
        <ele>902</ele>
        <time>2019-04-19T03:00:45Z</time>
      </trkpt>
      <trkpt lat="44.57789" lon="6.17931">
        <ele>903</ele>
        <time>2019-04-19T03:01:45Z</time>
      </trkpt>
      <trkpt lat="44.57799" lon="6.17923">
        <ele>903</ele>
        <time>2019-04-19T03:02:45Z</time>
      </trkpt>
      <trkpt lat="44.57819" lon="6.17894">
        <ele>904</ele>
        <time>2019-04-19T03:03:45Z</time>
      </trkpt>
      <trkpt lat="44.57827" lon="6.17879">
        <ele>905</ele>
        <time>2019-04-19T03:04:45Z</time>
      </trkpt>
      <trkpt lat="44.57832" lon="6.1786">
        <ele>905</ele>
        <time>2019-04-19T03:05:45Z</time>
      </trkpt>
      <trkpt lat="44.57846" lon="6.17782">
        <ele>908</ele>
        <time>2019-04-19T03:06:45Z</time>
      </trkpt>
      <trkpt lat="44.57851" lon="6.17761">
        <ele>910</ele>
        <time>2019-04-19T03:07:45Z</time>
      </trkpt>
      <trkpt lat="44.57887" lon="6.17662">
        <ele>914</ele>
        <time>2019-04-19T03:08:45Z</time>
      </trkpt>
      <trkpt lat="44.57895" lon="6.17645">
        <ele>914</ele>
        <time>2019-04-19T03:09:45Z</time>
      </trkpt>
      <trkpt lat="44.57905" lon="6.1763">
        <ele>915</ele>
        <time>2019-04-19T03:10:45Z</time>
      </trkpt>
      <trkpt lat="44.57916" lon="6.17617">
        <ele>916</ele>
        <time>2019-04-19T03:11:45Z</time>
      </trkpt>
      <trkpt lat="44.57929" lon="6.17607">
        <ele>917</ele>
        <time>2019-04-19T03:12:45Z</time>
      </trkpt>
      <trkpt lat="44.57941" lon="6.176">
        <ele>918</ele>
        <time>2019-04-19T03:13:45Z</time>
      </trkpt>
      <trkpt lat="44.57952" lon="6.17596">
        <ele>919</ele>
        <time>2019-04-19T03:14:45Z</time>
      </trkpt>
      <trkpt lat="44.57962" lon="6.17597">
        <ele>921</ele>
        <time>2019-04-19T03:15:45Z</time>
      </trkpt>
      <trkpt lat="44.57972" lon="6.17602">
        <ele>923</ele>
        <time>2019-04-19T03:16:45Z</time>
      </trkpt>
      <trkpt lat="44.57988" lon="6.17619">
        <ele>927</ele>
        <time>2019-04-19T03:17:45Z</time>
      </trkpt>
      <trkpt lat="44.57996" lon="6.17622">
        <ele>929</ele>
        <time>2019-04-19T03:18:45Z</time>
      </trkpt>
      <trkpt lat="44.58003" lon="6.17621">
        <ele>931</ele>
        <time>2019-04-19T03:19:45Z</time>
      </trkpt>
      <trkpt lat="44.58009" lon="6.17614">
        <ele>932</ele>
        <time>2019-04-19T03:20:45Z</time>
      </trkpt>
      <trkpt lat="44.58013" lon="6.17604">
        <ele>933</ele>
        <time>2019-04-19T03:21:45Z</time>
      </trkpt>
      <trkpt lat="44.58015" lon="6.17594">
        <ele>933</ele>
        <time>2019-04-19T03:22:45Z</time>
      </trkpt>
      <trkpt lat="44.58015" lon="6.17553">
        <ele>928</ele>
        <time>2019-04-19T03:23:45Z</time>
      </trkpt>
      <trkpt lat="44.58019" lon="6.17539">
        <ele>927</ele>
        <time>2019-04-19T03:24:45Z</time>
      </trkpt>
      <trkpt lat="44.58025" lon="6.17529">
        <ele>928</ele>
        <time>2019-04-19T03:25:45Z</time>
      </trkpt>
      <trkpt lat="44.58033" lon="6.17521">
        <ele>930</ele>
        <time>2019-04-19T03:26:45Z</time>
      </trkpt>
      <trkpt lat="44.58043" lon="6.17517">
        <ele>933</ele>
        <time>2019-04-19T03:27:45Z</time>
      </trkpt>
      <trkpt lat="44.58054" lon="6.17514">
        <ele>936</ele>
        <time>2019-04-19T03:28:45Z</time>
      </trkpt>
      <trkpt lat="44.58082" lon="6.17516">
        <ele>946</ele>
        <time>2019-04-19T03:29:45Z</time>
      </trkpt>
      <trkpt lat="44.58089" lon="6.17515">
        <ele>949</ele>
        <time>2019-04-19T03:30:45Z</time>
      </trkpt>
      <trkpt lat="44.58094" lon="6.1751">
        <ele>950</ele>
        <time>2019-04-19T03:31:45Z</time>
      </trkpt>
      <trkpt lat="44.58097" lon="6.17501">
        <ele>950</ele>
        <time>2019-04-19T03:32:45Z</time>
      </trkpt>
      <trkpt lat="44.58095" lon="6.17491">
        <ele>948</ele>
        <time>2019-04-19T03:33:45Z</time>
      </trkpt>
      <trkpt lat="44.58071" lon="6.17452">
        <ele>937</ele>
        <time>2019-04-19T03:34:45Z</time>
      </trkpt>
      <trkpt lat="44.58067" lon="6.1744">
        <ele>935</ele>
        <time>2019-04-19T03:35:45Z</time>
      </trkpt>
      <trkpt lat="44.58066" lon="6.17428">
        <ele>934</ele>
        <time>2019-04-19T03:36:45Z</time>
      </trkpt>
      <trkpt lat="44.58067" lon="6.17417">
        <ele>934</ele>
        <time>2019-04-19T03:37:45Z</time>
      </trkpt>
      <trkpt lat="44.58072" lon="6.17408">
        <ele>934</ele>
        <time>2019-04-19T03:38:45Z</time>
      </trkpt>
      <trkpt lat="44.58079" lon="6.17401">
        <ele>935</ele>
        <time>2019-04-19T03:39:45Z</time>
      </trkpt>
      <trkpt lat="44.58109" lon="6.17384">
        <ele>940</ele>
        <time>2019-04-19T03:40:45Z</time>
      </trkpt>
      <trkpt lat="44.58132" lon="6.17379">
        <ele>945</ele>
        <time>2019-04-19T03:41:45Z</time>
      </trkpt>
      <trkpt lat="44.58204" lon="6.17387">
        <ele>966</ele>
        <time>2019-04-19T03:42:45Z</time>
      </trkpt>
      <trkpt lat="44.58232" lon="6.17394">
        <ele>974</ele>
        <time>2019-04-19T03:43:45Z</time>
      </trkpt>
      <trkpt lat="44.58237" lon="6.1739">
        <ele>974</ele>
        <time>2019-04-19T03:44:45Z</time>
      </trkpt>
      <trkpt lat="44.58241" lon="6.17382">
        <ele>975</ele>
        <time>2019-04-19T03:45:45Z</time>
      </trkpt>
      <trkpt lat="44.58242" lon="6.17372">
        <ele>974</ele>
        <time>2019-04-19T03:46:45Z</time>
      </trkpt>
      <trkpt lat="44.58241" lon="6.17359">
        <ele>973</ele>
        <time>2019-04-19T03:47:45Z</time>
      </trkpt>
      <trkpt lat="44.58238" lon="6.1735">
        <ele>972</ele>
        <time>2019-04-19T03:48:45Z</time>
      </trkpt>
      <trkpt lat="44.58223" lon="6.17322">
        <ele>964</ele>
        <time>2019-04-19T03:49:45Z</time>
      </trkpt>
      <trkpt lat="44.58206" lon="6.17299">
        <ele>956</ele>
        <time>2019-04-19T03:50:45Z</time>
      </trkpt>
      <trkpt lat="44.582" lon="6.17287">
        <ele>954</ele>
        <time>2019-04-19T03:51:45Z</time>
      </trkpt>
      <trkpt lat="44.58199" lon="6.1728">
        <ele>953</ele>
        <time>2019-04-19T03:52:45Z</time>
      </trkpt>
      <trkpt lat="44.582" lon="6.17273">
        <ele>953</ele>
        <time>2019-04-19T03:53:45Z</time>
      </trkpt>
      <trkpt lat="44.58205" lon="6.17267">
        <ele>954</ele>
        <time>2019-04-19T03:54:45Z</time>
      </trkpt>
      <trkpt lat="44.58212" lon="6.1726">
        <ele>956</ele>
        <time>2019-04-19T03:55:45Z</time>
      </trkpt>
      <trkpt lat="44.58231" lon="6.17254">
        <ele>961</ele>
        <time>2019-04-19T03:56:45Z</time>
      </trkpt>
      <trkpt lat="44.58252" lon="6.17253">
        <ele>967</ele>
        <time>2019-04-19T03:57:45Z</time>
      </trkpt>
      <trkpt lat="44.58268" lon="6.17249">
        <ele>973</ele>
        <time>2019-04-19T03:58:45Z</time>
      </trkpt>
      <trkpt lat="44.58303" lon="6.17231">
        <ele>985</ele>
        <time>2019-04-19T03:59:45Z</time>
      </trkpt>
      <trkpt lat="44.58331" lon="6.17219">
        <ele>994</ele>
        <time>2019-04-19T04:00:45Z</time>
      </trkpt>
      <trkpt lat="44.5834" lon="6.17214">
        <ele>997</ele>
        <time>2019-04-19T04:01:45Z</time>
      </trkpt>
      <trkpt lat="44.58346" lon="6.17207">
        <ele>998</ele>
        <time>2019-04-19T04:02:45Z</time>
      </trkpt>
      <trkpt lat="44.58348" lon="6.17199">
        <ele>998</ele>
        <time>2019-04-19T04:03:45Z</time>
      </trkpt>
      <trkpt lat="44.58347" lon="6.17183">
        <ele>997</ele>
        <time>2019-04-19T04:04:45Z</time>
      </trkpt>
      <trkpt lat="44.58345" lon="6.17177">
        <ele>996</ele>
        <time>2019-04-19T04:05:45Z</time>
      </trkpt>
      <trkpt lat="44.58342" lon="6.17171">
        <ele>995</ele>
        <time>2019-04-19T04:06:45Z</time>
      </trkpt>
      <trkpt lat="44.58258" lon="6.17148">
        <ele>979</ele>
        <time>2019-04-19T04:07:45Z</time>
      </trkpt>
      <trkpt lat="44.58251" lon="6.17142">
        <ele>978</ele>
        <time>2019-04-19T04:08:45Z</time>
      </trkpt>
      <trkpt lat="44.58226" lon="6.17107">
        <ele>978</ele>
        <time>2019-04-19T04:09:45Z</time>
      </trkpt>
      <trkpt lat="44.58223" lon="6.17099">
        <ele>979</ele>
        <time>2019-04-19T04:10:45Z</time>
      </trkpt>
      <trkpt lat="44.58222" lon="6.17089">
        <ele>981</ele>
        <time>2019-04-19T04:11:45Z</time>
      </trkpt>
      <trkpt lat="44.58224" lon="6.17075">
        <ele>983</ele>
        <time>2019-04-19T04:12:45Z</time>
      </trkpt>
      <trkpt lat="44.58228" lon="6.17057">
        <ele>984</ele>
        <time>2019-04-19T04:13:45Z</time>
      </trkpt>
      <trkpt lat="44.58262" lon="6.16928">
        <ele>993</ele>
        <time>2019-04-19T04:14:45Z</time>
      </trkpt>
      <trkpt lat="44.58273" lon="6.16888">
        <ele>994</ele>
        <time>2019-04-19T04:15:45Z</time>
      </trkpt>
      <trkpt lat="44.58281" lon="6.1687">
        <ele>995</ele>
        <time>2019-04-19T04:16:45Z</time>
      </trkpt>
      <trkpt lat="44.58289" lon="6.16861">
        <ele>997</ele>
        <time>2019-04-19T04:17:45Z</time>
      </trkpt>
      <trkpt lat="44.58319" lon="6.16847">
        <ele>1005</ele>
        <time>2019-04-19T04:18:45Z</time>
      </trkpt>
      <trkpt lat="44.58346" lon="6.16816">
        <ele>1011</ele>
        <time>2019-04-19T04:19:45Z</time>
      </trkpt>
      <trkpt lat="44.58352" lon="6.16805">
        <ele>1013</ele>
        <time>2019-04-19T04:20:45Z</time>
      </trkpt>
      <trkpt lat="44.58354" lon="6.1679">
        <ele>1012</ele>
        <time>2019-04-19T04:21:45Z</time>
      </trkpt>
      <trkpt lat="44.58352" lon="6.16771">
        <ele>1010</ele>
        <time>2019-04-19T04:22:45Z</time>
      </trkpt>
      <trkpt lat="44.58356" lon="6.16744">
        <ele>1010</ele>
        <time>2019-04-19T04:23:45Z</time>
      </trkpt>
      <trkpt lat="44.58388" lon="6.16656">
        <ele>1019</ele>
        <time>2019-04-19T04:24:45Z</time>
      </trkpt>
      <trkpt lat="44.58402" lon="6.1661">
        <ele>1023</ele>
        <time>2019-04-19T04:25:45Z</time>
      </trkpt>
      <trkpt lat="44.58414" lon="6.16581">
        <ele>1026</ele>
        <time>2019-04-19T04:26:45Z</time>
      </trkpt>
      <trkpt lat="44.58421" lon="6.16572">
        <ele>1028</ele>
        <time>2019-04-19T04:27:45Z</time>
      </trkpt>
      <trkpt lat="44.58431" lon="6.16567">
        <ele>1031</ele>
        <time>2019-04-19T04:28:45Z</time>
      </trkpt>
      <trkpt lat="44.58443" lon="6.16566">
        <ele>1035</ele>
        <time>2019-04-19T04:29:45Z</time>
      </trkpt>
      <trkpt lat="44.58449" lon="6.16562">
        <ele>1036</ele>
        <time>2019-04-19T04:30:45Z</time>
      </trkpt>
      <trkpt lat="44.58451" lon="6.16557">
        <ele>1037</ele>
        <time>2019-04-19T04:31:45Z</time>
      </trkpt>
      <trkpt lat="44.58451" lon="6.1655">
        <ele>1036</ele>
        <time>2019-04-19T04:32:45Z</time>
      </trkpt>
      <trkpt lat="44.5845" lon="6.16543">
        <ele>1035</ele>
        <time>2019-04-19T04:33:45Z</time>
      </trkpt>
      <trkpt lat="44.58444" lon="6.1653">
        <ele>1032</ele>
        <time>2019-04-19T04:34:45Z</time>
      </trkpt>
      <trkpt lat="44.58442" lon="6.16519">
        <ele>1031</ele>
        <time>2019-04-19T04:35:45Z</time>
      </trkpt>
      <trkpt lat="44.58442" lon="6.16509">
        <ele>1030</ele>
        <time>2019-04-19T04:36:45Z</time>
      </trkpt>
      <trkpt lat="44.58446" lon="6.16491">
        <ele>1030</ele>
        <time>2019-04-19T04:37:45Z</time>
      </trkpt>
      <trkpt lat="44.58477" lon="6.16398">
        <ele>1028</ele>
        <time>2019-04-19T04:38:45Z</time>
      </trkpt>
      <trkpt lat="44.58488" lon="6.16383">
        <ele>1029</ele>
        <time>2019-04-19T04:39:45Z</time>
      </trkpt>
      <trkpt lat="44.58495" lon="6.1638">
        <ele>1030</ele>
        <time>2019-04-19T04:40:45Z</time>
      </trkpt>
      <trkpt lat="44.58509" lon="6.1638">
        <ele>1036</ele>
        <time>2019-04-19T04:41:45Z</time>
      </trkpt>
      <trkpt lat="44.5854" lon="6.1637">
        <ele>1047</ele>
        <time>2019-04-19T04:42:45Z</time>
      </trkpt>
      <trkpt lat="44.58557" lon="6.16361">
        <ele>1053</ele>
        <time>2019-04-19T04:43:45Z</time>
      </trkpt>
      <trkpt lat="44.58561" lon="6.16355">
        <ele>1054</ele>
        <time>2019-04-19T04:44:45Z</time>
      </trkpt>
      <trkpt lat="44.58562" lon="6.16349">
        <ele>1053</ele>
        <time>2019-04-19T04:45:45Z</time>
      </trkpt>
      <trkpt lat="44.58562" lon="6.16341">
        <ele>1052</ele>
        <time>2019-04-19T04:46:45Z</time>
      </trkpt>
      <trkpt lat="44.58559" lon="6.16333">
        <ele>1050</ele>
        <time>2019-04-19T04:47:45Z</time>
      </trkpt>
      <trkpt lat="44.58542" lon="6.1632">
        <ele>1039</ele>
        <time>2019-04-19T04:48:45Z</time>
      </trkpt>
      <trkpt lat="44.58531" lon="6.16308">
        <ele>1032</ele>
        <time>2019-04-19T04:49:45Z</time>
      </trkpt>
      <trkpt lat="44.58529" lon="6.16295">
        <ele>1029</ele>
        <time>2019-04-19T04:50:45Z</time>
      </trkpt>
      <trkpt lat="44.58537" lon="6.16276">
        <ele>1029</ele>
        <time>2019-04-19T04:51:45Z</time>
      </trkpt>
      <trkpt lat="44.58546" lon="6.16266">
        <ele>1031</ele>
        <time>2019-04-19T04:52:45Z</time>
      </trkpt>
      <trkpt lat="44.58559" lon="6.16259">
        <ele>1036</ele>
        <time>2019-04-19T04:53:45Z</time>
      </trkpt>
      <trkpt lat="44.58568" lon="6.16255">
        <ele>1039</ele>
        <time>2019-04-19T04:54:45Z</time>
      </trkpt>
      <trkpt lat="44.58618" lon="6.16261">
        <ele>1058</ele>
        <time>2019-04-19T04:55:45Z</time>
      </trkpt>
      <trkpt lat="44.58625" lon="6.16258">
        <ele>1060</ele>
        <time>2019-04-19T04:56:45Z</time>
      </trkpt>
      <trkpt lat="44.58645" lon="6.1624">
        <ele>1064</ele>
        <time>2019-04-19T04:57:45Z</time>
      </trkpt>
      <trkpt lat="44.58652" lon="6.16236">
        <ele>1066</ele>
        <time>2019-04-19T04:58:45Z</time>
      </trkpt>
      <trkpt lat="44.58672" lon="6.16237">
        <ele>1073</ele>
        <time>2019-04-19T04:59:45Z</time>
      </trkpt>
      <trkpt lat="44.58676" lon="6.16233">
        <ele>1074</ele>
        <time>2019-04-19T05:00:45Z</time>
      </trkpt>
      <trkpt lat="44.5868" lon="6.1622">
        <ele>1076</ele>
        <time>2019-04-19T05:01:45Z</time>
      </trkpt>
      <trkpt lat="44.58677" lon="6.16205">
        <ele>1075</ele>
        <time>2019-04-19T05:02:45Z</time>
      </trkpt>
      <trkpt lat="44.58673" lon="6.16199">
        <ele>1074</ele>
        <time>2019-04-19T05:03:45Z</time>
      </trkpt>
      <trkpt lat="44.58649" lon="6.16181">
        <ele>1066</ele>
        <time>2019-04-19T05:04:45Z</time>
      </trkpt>
      <trkpt lat="44.58639" lon="6.1617">
        <ele>1061</ele>
        <time>2019-04-19T05:05:45Z</time>
      </trkpt>
      <trkpt lat="44.58631" lon="6.16153">
        <ele>1059</ele>
        <time>2019-04-19T05:06:45Z</time>
      </trkpt>
      <trkpt lat="44.58627" lon="6.16141">
        <ele>1058</ele>
        <time>2019-04-19T05:07:45Z</time>
      </trkpt>
      <trkpt lat="44.58627" lon="6.16132">
        <ele>1059</ele>
        <time>2019-04-19T05:08:45Z</time>
      </trkpt>
      <trkpt lat="44.5863" lon="6.16123">
        <ele>1061</ele>
        <time>2019-04-19T05:09:45Z</time>
      </trkpt>
      <trkpt lat="44.58635" lon="6.16114">
        <ele>1064</ele>
        <time>2019-04-19T05:10:45Z</time>
      </trkpt>
      <trkpt lat="44.58649" lon="6.16095">
        <ele>1070</ele>
        <time>2019-04-19T05:11:45Z</time>
      </trkpt>
      <trkpt lat="44.58663" lon="6.16072">
        <ele>1074</ele>
        <time>2019-04-19T05:12:45Z</time>
      </trkpt>
      <trkpt lat="44.58697" lon="6.15991">
        <ele>1077</ele>
        <time>2019-04-19T05:13:45Z</time>
      </trkpt>
      <trkpt lat="44.58703" lon="6.1598">
        <ele>1078</ele>
        <time>2019-04-19T05:14:45Z</time>
      </trkpt>
      <trkpt lat="44.58711" lon="6.15974">
        <ele>1079</ele>
        <time>2019-04-19T05:15:45Z</time>
      </trkpt>
      <trkpt lat="44.58719" lon="6.15973">
        <ele>1081</ele>
        <time>2019-04-19T05:16:45Z</time>
      </trkpt>
      <trkpt lat="44.58732" lon="6.15975">
        <ele>1085</ele>
        <time>2019-04-19T05:17:45Z</time>
      </trkpt>
      <trkpt lat="44.58736" lon="6.15974">
        <ele>1086</ele>
        <time>2019-04-19T05:18:45Z</time>
      </trkpt>
      <trkpt lat="44.58739" lon="6.15969">
        <ele>1086</ele>
        <time>2019-04-19T05:19:45Z</time>
      </trkpt>
      <trkpt lat="44.58741" lon="6.15954">
        <ele>1086</ele>
        <time>2019-04-19T05:20:45Z</time>
      </trkpt>
      <trkpt lat="44.58735" lon="6.15924">
        <ele>1082</ele>
        <time>2019-04-19T05:21:45Z</time>
      </trkpt>
      <trkpt lat="44.58735" lon="6.15913">
        <ele>1082</ele>
        <time>2019-04-19T05:22:45Z</time>
      </trkpt>
      <trkpt lat="44.58738" lon="6.15904">
        <ele>1082</ele>
        <time>2019-04-19T05:23:45Z</time>
      </trkpt>
      <trkpt lat="44.58758" lon="6.15876">
        <ele>1086</ele>
        <time>2019-04-19T05:24:45Z</time>
      </trkpt>
      <trkpt lat="44.58768" lon="6.15857">
        <ele>1088</ele>
        <time>2019-04-19T05:25:45Z</time>
      </trkpt>
      <trkpt lat="44.58779" lon="6.15817">
        <ele>1088</ele>
        <time>2019-04-19T05:26:45Z</time>
      </trkpt>
      <trkpt lat="44.5879" lon="6.15803">
        <ele>1090</ele>
        <time>2019-04-19T05:27:45Z</time>
      </trkpt>
      <trkpt lat="44.58798" lon="6.15798">
        <ele>1091</ele>
        <time>2019-04-19T05:28:45Z</time>
      </trkpt>
      <trkpt lat="44.58808" lon="6.15796">
        <ele>1093</ele>
        <time>2019-04-19T05:29:45Z</time>
      </trkpt>
      <trkpt lat="44.58839" lon="6.15796">
        <ele>1101</ele>
        <time>2019-04-19T05:30:45Z</time>
      </trkpt>
      <trkpt lat="44.58851" lon="6.15789">
        <ele>1103</ele>
        <time>2019-04-19T05:31:45Z</time>
      </trkpt>
      <trkpt lat="44.58854" lon="6.15779">
        <ele>1103</ele>
        <time>2019-04-19T05:32:45Z</time>
      </trkpt>
      <trkpt lat="44.58851" lon="6.15758">
        <ele>1101</ele>
        <time>2019-04-19T05:33:45Z</time>
      </trkpt>
      <trkpt lat="44.58851" lon="6.15748">
        <ele>1100</ele>
        <time>2019-04-19T05:34:45Z</time>
      </trkpt>
      <trkpt lat="44.58852" lon="6.1574">
        <ele>1100</ele>
        <time>2019-04-19T05:35:45Z</time>
      </trkpt>
      <trkpt lat="44.58854" lon="6.15733">
        <ele>1100</ele>
        <time>2019-04-19T05:36:45Z</time>
      </trkpt>
      <trkpt lat="44.58858" lon="6.15728">
        <ele>1100</ele>
        <time>2019-04-19T05:37:45Z</time>
      </trkpt>
      <trkpt lat="44.5888" lon="6.15708">
        <ele>1104</ele>
        <time>2019-04-19T05:38:45Z</time>
      </trkpt>
      <trkpt lat="44.58893" lon="6.15701">
        <ele>1107</ele>
        <time>2019-04-19T05:39:45Z</time>
      </trkpt>
      <trkpt lat="44.58907" lon="6.15697">
        <ele>1110</ele>
        <time>2019-04-19T05:40:45Z</time>
      </trkpt>
      <trkpt lat="44.58914" lon="6.15691">
        <ele>1112</ele>
        <time>2019-04-19T05:41:45Z</time>
      </trkpt>
      <trkpt lat="44.5892" lon="6.15679">
        <ele>1112</ele>
        <time>2019-04-19T05:42:45Z</time>
      </trkpt>
      <trkpt lat="44.58931" lon="6.15637">
        <ele>1112</ele>
        <time>2019-04-19T05:43:45Z</time>
      </trkpt>
      <trkpt lat="44.58943" lon="6.1561">
        <ele>1112</ele>
        <time>2019-04-19T05:44:45Z</time>
      </trkpt>
      <trkpt lat="44.58958" lon="6.1559">
        <ele>1114</ele>
        <time>2019-04-19T05:45:45Z</time>
      </trkpt>
      <trkpt lat="44.58965" lon="6.15583">
        <ele>1115</ele>
        <time>2019-04-19T05:46:45Z</time>
      </trkpt>
      <trkpt lat="44.5899" lon="6.15577">
        <ele>1120</ele>
        <time>2019-04-19T05:47:45Z</time>
      </trkpt>
      <trkpt lat="44.58992" lon="6.15572">
        <ele>1120</ele>
        <time>2019-04-19T05:48:45Z</time>
      </trkpt>
      <trkpt lat="44.59003" lon="6.15517">
        <ele>1118</ele>
        <time>2019-04-19T05:49:45Z</time>
      </trkpt>
      <trkpt lat="44.59008" lon="6.15506">
        <ele>1118</ele>
        <time>2019-04-19T05:50:45Z</time>
      </trkpt>
      <trkpt lat="44.59014" lon="6.15495">
        <ele>1119</ele>
        <time>2019-04-19T05:51:45Z</time>
      </trkpt>
      <trkpt lat="44.59039" lon="6.15469">
        <ele>1122</ele>
        <time>2019-04-19T05:52:45Z</time>
      </trkpt>
      <trkpt lat="44.59076" lon="6.1544">
        <ele>1127</ele>
        <time>2019-04-19T05:53:45Z</time>
      </trkpt>
      <trkpt lat="44.59098" lon="6.15415">
        <ele>1130</ele>
        <time>2019-04-19T05:54:45Z</time>
      </trkpt>
      <trkpt lat="44.59109" lon="6.15405">
        <ele>1131</ele>
        <time>2019-04-19T05:55:45Z</time>
      </trkpt>
      <trkpt lat="44.5914" lon="6.15387">
        <ele>1134</ele>
        <time>2019-04-19T05:56:45Z</time>
      </trkpt>
      <trkpt lat="44.59151" lon="6.15375">
        <ele>1136</ele>
        <time>2019-04-19T05:57:45Z</time>
      </trkpt>
      <trkpt lat="44.59177" lon="6.15335">
        <ele>1139</ele>
        <time>2019-04-19T05:58:45Z</time>
      </trkpt>
      <trkpt lat="44.59191" lon="6.15325">
        <ele>1140</ele>
        <time>2019-04-19T05:59:45Z</time>
      </trkpt>
      <trkpt lat="44.59234" lon="6.15317">
        <ele>1145</ele>
        <time>2019-04-19T06:00:45Z</time>
      </trkpt>
      <trkpt lat="44.59255" lon="6.15311">
        <ele>1147</ele>
        <time>2019-04-19T06:01:45Z</time>
      </trkpt>
      <trkpt lat="44.59299" lon="6.15274">
        <ele>1151</ele>
        <time>2019-04-19T06:02:45Z</time>
      </trkpt>
      <trkpt lat="44.59334" lon="6.15233">
        <ele>1154</ele>
        <time>2019-04-19T06:03:45Z</time>
      </trkpt>
      <trkpt lat="44.59353" lon="6.15218">
        <ele>1156</ele>
        <time>2019-04-19T06:04:45Z</time>
      </trkpt>
      <trkpt lat="44.59376" lon="6.15204">
        <ele>1159</ele>
        <time>2019-04-19T06:05:45Z</time>
      </trkpt>
      <trkpt lat="44.59407" lon="6.1517">
        <ele>1161</ele>
        <time>2019-04-19T06:06:45Z</time>
      </trkpt>
      <trkpt lat="44.59414" lon="6.15165">
        <ele>1162</ele>
        <time>2019-04-19T06:07:45Z</time>
      </trkpt>
      <trkpt lat="44.59446" lon="6.15162">
        <ele>1166</ele>
        <time>2019-04-19T06:08:45Z</time>
      </trkpt>
      <trkpt lat="44.59514" lon="6.15126">
        <ele>1173</ele>
        <time>2019-04-19T06:09:45Z</time>
      </trkpt>
      <trkpt lat="44.59529" lon="6.15115">
        <ele>1175</ele>
        <time>2019-04-19T06:10:45Z</time>
      </trkpt>
      <trkpt lat="44.59581" lon="6.15071">
        <ele>1177</ele>
        <time>2019-04-19T06:11:45Z</time>
      </trkpt>
      <trkpt lat="44.59606" lon="6.15048">
        <ele>1182</ele>
        <time>2019-04-19T06:12:45Z</time>
      </trkpt>
      <trkpt lat="44.59664" lon="6.14973">
        <ele>1187</ele>
        <time>2019-04-19T06:13:45Z</time>
      </trkpt>
      <trkpt lat="44.59671" lon="6.14961">
        <ele>1188</ele>
        <time>2019-04-19T06:14:45Z</time>
      </trkpt>
      <trkpt lat="44.59677" lon="6.14947">
        <ele>1189</ele>
        <time>2019-04-19T06:15:45Z</time>
      </trkpt>
      <trkpt lat="44.59686" lon="6.14913">
        <ele>1189</ele>
        <time>2019-04-19T06:16:45Z</time>
      </trkpt>
      <trkpt lat="44.59694" lon="6.14893">
        <ele>1189</ele>
        <time>2019-04-19T06:17:45Z</time>
      </trkpt>
      <trkpt lat="44.59734" lon="6.14815">
        <ele>1192</ele>
        <time>2019-04-19T06:18:45Z</time>
      </trkpt>
      <trkpt lat="44.59816" lon="6.14697">
        <ele>1197</ele>
        <time>2019-04-19T06:19:45Z</time>
      </trkpt>
      <trkpt lat="44.5986" lon="6.14638">
        <ele>1196</ele>
        <time>2019-04-19T06:20:45Z</time>
      </trkpt>
      <trkpt lat="44.59901" lon="6.14591">
        <ele>1196</ele>
        <time>2019-04-19T06:21:45Z</time>
      </trkpt>
      <trkpt lat="44.59932" lon="6.14566">
        <ele>1196</ele>
        <time>2019-04-19T06:22:45Z</time>
      </trkpt>
      <trkpt lat="44.59943" lon="6.14563">
        <ele>1196</ele>
        <time>2019-04-19T06:23:45Z</time>
      </trkpt>
      <trkpt lat="44.59954" lon="6.14564">
        <ele>1197</ele>
        <time>2019-04-19T06:24:45Z</time>
      </trkpt>
      <trkpt lat="44.59963" lon="6.14572">
        <ele>1199</ele>
        <time>2019-04-19T06:25:45Z</time>
      </trkpt>
      <trkpt lat="44.59979" lon="6.14601">
        <ele>1204</ele>
        <time>2019-04-19T06:26:45Z</time>
      </trkpt>
      <trkpt lat="44.59985" lon="6.14607">
        <ele>1205</ele>
        <time>2019-04-19T06:27:45Z</time>
      </trkpt>
      <trkpt lat="44.59994" lon="6.14608">
        <ele>1206</ele>
        <time>2019-04-19T06:28:45Z</time>
      </trkpt>
      <trkpt lat="44.60051" lon="6.1459">
        <ele>1213</ele>
        <time>2019-04-19T06:29:45Z</time>
      </trkpt>
      <trkpt lat="44.6006" lon="6.14582">
        <ele>1214</ele>
        <time>2019-04-19T06:30:45Z</time>
      </trkpt>
      <trkpt lat="44.60066" lon="6.14569">
        <ele>1212</ele>
        <time>2019-04-19T06:31:45Z</time>
      </trkpt>
      <trkpt lat="44.60072" lon="6.14548">
        <ele>1210</ele>
        <time>2019-04-19T06:32:45Z</time>
      </trkpt>
      <trkpt lat="44.60078" lon="6.14533">
        <ele>1209</ele>
        <time>2019-04-19T06:33:45Z</time>
      </trkpt>
      <trkpt lat="44.60086" lon="6.14522">
        <ele>1208</ele>
        <time>2019-04-19T06:34:45Z</time>
      </trkpt>
      <trkpt lat="44.60172" lon="6.14447">
        <ele>1219</ele>
        <time>2019-04-19T06:35:45Z</time>
      </trkpt>
      <trkpt lat="44.60198" lon="6.14415">
        <ele>1220</ele>
        <time>2019-04-19T06:36:45Z</time>
      </trkpt>
      <trkpt lat="44.60253" lon="6.14334">
        <ele>1221</ele>
        <time>2019-04-19T06:37:45Z</time>
      </trkpt>
      <trkpt lat="44.60266" lon="6.14326">
        <ele>1222</ele>
        <time>2019-04-19T06:38:45Z</time>
      </trkpt>
      <trkpt lat="44.60294" lon="6.14322">
        <ele>1225</ele>
        <time>2019-04-19T06:39:45Z</time>
      </trkpt>
      <trkpt lat="44.60304" lon="6.14318">
        <ele>1226</ele>
        <time>2019-04-19T06:40:45Z</time>
      </trkpt>
      <trkpt lat="44.60316" lon="6.14308">
        <ele>1227</ele>
        <time>2019-04-19T06:41:45Z</time>
      </trkpt>
      <trkpt lat="44.60351" lon="6.14262">
        <ele>1227</ele>
        <time>2019-04-19T06:42:45Z</time>
      </trkpt>
      <trkpt lat="44.60359" lon="6.14256">
        <ele>1228</ele>
        <time>2019-04-19T06:43:45Z</time>
      </trkpt>
      <trkpt lat="44.60402" lon="6.1424">
        <ele>1232</ele>
        <time>2019-04-19T06:44:45Z</time>
      </trkpt>
      <trkpt lat="44.6045" lon="6.14217">
        <ele>1236</ele>
        <time>2019-04-19T06:45:45Z</time>
      </trkpt>
      <trkpt lat="44.60468" lon="6.14214">
        <ele>1237</ele>
        <time>2019-04-19T06:46:45Z</time>
      </trkpt>
      <trkpt lat="44.60564" lon="6.14206">
        <ele>1246</ele>
        <time>2019-04-19T06:47:45Z</time>
      </trkpt>
      <trkpt lat="44.60636" lon="6.1419">
        <ele>1251</ele>
        <time>2019-04-19T06:48:45Z</time>
      </trkpt>
      <trkpt lat="44.60677" lon="6.14179">
        <ele>1254</ele>
        <time>2019-04-19T06:49:45Z</time>
      </trkpt>
      <trkpt lat="44.60699" lon="6.1417">
        <ele>1255</ele>
        <time>2019-04-19T06:50:45Z</time>
      </trkpt>
      <trkpt lat="44.60817" lon="6.14105">
        <ele>1258</ele>
        <time>2019-04-19T06:51:45Z</time>
      </trkpt>
      <trkpt lat="44.60837" lon="6.14098">
        <ele>1259</ele>
        <time>2019-04-19T06:52:45Z</time>
      </trkpt>
      <trkpt lat="44.60883" lon="6.14087">
        <ele>1262</ele>
        <time>2019-04-19T06:53:45Z</time>
      </trkpt>
      <trkpt lat="44.6091" lon="6.14077">
        <ele>1264</ele>
        <time>2019-04-19T06:54:45Z</time>
      </trkpt>
      <trkpt lat="44.60936" lon="6.14063">
        <ele>1266</ele>
        <time>2019-04-19T06:55:45Z</time>
      </trkpt>
      <trkpt lat="44.60961" lon="6.14047">
        <ele>1267</ele>
        <time>2019-04-19T06:56:45Z</time>
      </trkpt>
      <trkpt lat="44.61041" lon="6.13976">
        <ele>1270</ele>
        <time>2019-04-19T06:57:45Z</time>
      </trkpt>
      <trkpt lat="44.61055" lon="6.1396">
        <ele>1271</ele>
        <time>2019-04-19T06:58:45Z</time>
      </trkpt>
      <trkpt lat="44.61074" lon="6.13928">
        <ele>1272</ele>
        <time>2019-04-19T06:59:45Z</time>
      </trkpt>
      <trkpt lat="44.61087" lon="6.13914">
        <ele>1272</ele>
        <time>2019-04-19T07:00:45Z</time>
      </trkpt>
      <trkpt lat="44.611" lon="6.13905">
        <ele>1272</ele>
        <time>2019-04-19T07:01:45Z</time>
      </trkpt>
      <trkpt lat="44.61113" lon="6.13902">
        <ele>1272</ele>
        <time>2019-04-19T07:02:45Z</time>
      </trkpt>
      <trkpt lat="44.61152" lon="6.139">
        <ele>1271</ele>
        <time>2019-04-19T07:03:45Z</time>
      </trkpt>
      <trkpt lat="44.61224" lon="6.13891">
        <ele>1270</ele>
        <time>2019-04-19T07:04:45Z</time>
      </trkpt>
      <trkpt lat="44.61294" lon="6.13871">
        <ele>1268</ele>
        <time>2019-04-19T07:05:45Z</time>
      </trkpt>
      <trkpt lat="44.61317" lon="6.13861">
        <ele>1267</ele>
        <time>2019-04-19T07:06:45Z</time>
      </trkpt>
      <trkpt lat="44.61358" lon="6.13838">
        <ele>1266</ele>
        <time>2019-04-19T07:07:45Z</time>
      </trkpt>
      <trkpt lat="44.61416" lon="6.13793">
        <ele>1265</ele>
        <time>2019-04-19T07:08:45Z</time>
      </trkpt>
      <trkpt lat="44.61442" lon="6.13782">
        <ele>1263</ele>
        <time>2019-04-19T07:09:45Z</time>
      </trkpt>
      <trkpt lat="44.61455" lon="6.13786">
        <ele>1263</ele>
        <time>2019-04-19T07:10:45Z</time>
      </trkpt>
      <trkpt lat="44.6146" lon="6.13785">
        <ele>1262</ele>
        <time>2019-04-19T07:11:45Z</time>
      </trkpt>
      <trkpt lat="44.61468" lon="6.13777">
        <ele>1262</ele>
        <time>2019-04-19T07:12:45Z</time>
      </trkpt>
      <trkpt lat="44.61471" lon="6.13767">
        <ele>1262</ele>
        <time>2019-04-19T07:13:45Z</time>
      </trkpt>
      <trkpt lat="44.61469" lon="6.13755">
        <ele>1262</ele>
        <time>2019-04-19T07:14:45Z</time>
      </trkpt>
      <trkpt lat="44.61467" lon="6.1375">
        <ele>1263</ele>
        <time>2019-04-19T07:15:45Z</time>
      </trkpt>
      <trkpt lat="44.6146" lon="6.13743">
        <ele>1263</ele>
        <time>2019-04-19T07:16:45Z</time>
      </trkpt>
      <trkpt lat="44.61453" lon="6.13742">
        <ele>1263</ele>
        <time>2019-04-19T07:17:45Z</time>
      </trkpt>
      <trkpt lat="44.61448" lon="6.13744">
        <ele>1264</ele>
        <time>2019-04-19T07:18:45Z</time>
      </trkpt>
      <trkpt lat="44.61442" lon="6.13751">
        <ele>1264</ele>
        <time>2019-04-19T07:19:45Z</time>
      </trkpt>
      <trkpt lat="44.6144" lon="6.13763">
        <ele>1264</ele>
        <time>2019-04-19T07:20:45Z</time>
      </trkpt>
      <trkpt lat="44.61441" lon="6.13772">
        <ele>1264</ele>
        <time>2019-04-19T07:21:45Z</time>
      </trkpt>
      <trkpt lat="44.61444" lon="6.1378">
        <ele>1263</ele>
        <time>2019-04-19T07:22:45Z</time>
      </trkpt>
      <trkpt lat="44.61448" lon="6.13783">
        <ele>1263</ele>
        <time>2019-04-19T07:23:45Z</time>
      </trkpt>
      <trkpt lat="44.61455" lon="6.13786">
        <ele>1263</ele>
        <time>2019-04-19T07:24:45Z</time>
      </trkpt>
      <trkpt lat="44.6146" lon="6.13785">
        <ele>1262</ele>
        <time>2019-04-19T07:25:45Z</time>
      </trkpt>
      <trkpt lat="44.61468" lon="6.13777">
        <ele>1262</ele>
        <time>2019-04-19T07:26:45Z</time>
      </trkpt>
      <trkpt lat="44.6147" lon="6.13771">
        <ele>1262</ele>
        <time>2019-04-19T07:27:45Z</time>
      </trkpt>
      <trkpt lat="44.61471" lon="6.13761">
        <ele>1262</ele>
        <time>2019-04-19T07:28:45Z</time>
      </trkpt>
      <trkpt lat="44.61467" lon="6.1375">
        <ele>1263</ele>
        <time>2019-04-19T07:29:45Z</time>
      </trkpt>
      <trkpt lat="44.6146" lon="6.13743">
        <ele>1263</ele>
        <time>2019-04-19T07:30:45Z</time>
      </trkpt>
      <trkpt lat="44.61453" lon="6.13742">
        <ele>1263</ele>
        <time>2019-04-19T07:31:45Z</time>
      </trkpt>
      <trkpt lat="44.61442" lon="6.13735">
        <ele>1264</ele>
        <time>2019-04-19T07:32:45Z</time>
      </trkpt>
      <trkpt lat="44.61421" lon="6.13709">
        <ele>1265</ele>
        <time>2019-04-19T07:33:45Z</time>
      </trkpt>
      <trkpt lat="44.61297" lon="6.13509">
        <ele>1271</ele>
        <time>2019-04-19T07:34:45Z</time>
      </trkpt>
      <trkpt lat="44.6128" lon="6.13484">
        <ele>1272</ele>
        <time>2019-04-19T07:35:45Z</time>
      </trkpt>
      <trkpt lat="44.61264" lon="6.13466">
        <ele>1272</ele>
        <time>2019-04-19T07:36:45Z</time>
      </trkpt>
      <trkpt lat="44.61205" lon="6.13411">
        <ele>1271</ele>
        <time>2019-04-19T07:37:45Z</time>
      </trkpt>
      <trkpt lat="44.61194" lon="6.13395">
        <ele>1272</ele>
        <time>2019-04-19T07:38:45Z</time>
      </trkpt>
      <trkpt lat="44.61179" lon="6.13367">
        <ele>1273</ele>
        <time>2019-04-19T07:39:45Z</time>
      </trkpt>
      <trkpt lat="44.61174" lon="6.13344">
        <ele>1274</ele>
        <time>2019-04-19T07:40:45Z</time>
      </trkpt>
      <trkpt lat="44.61171" lon="6.13316">
        <ele>1275</ele>
        <time>2019-04-19T07:41:45Z</time>
      </trkpt>
      <trkpt lat="44.61173" lon="6.13209">
        <ele>1272</ele>
        <time>2019-04-19T07:42:45Z</time>
      </trkpt>
      <trkpt lat="44.61167" lon="6.13164">
        <ele>1271</ele>
        <time>2019-04-19T07:43:45Z</time>
      </trkpt>
      <trkpt lat="44.61162" lon="6.13148">
        <ele>1270</ele>
        <time>2019-04-19T07:44:45Z</time>
      </trkpt>
      <trkpt lat="44.61148" lon="6.13117">
        <ele>1268</ele>
        <time>2019-04-19T07:45:45Z</time>
      </trkpt>
      <trkpt lat="44.61092" lon="6.1302">
        <ele>1264</ele>
        <time>2019-04-19T07:46:45Z</time>
      </trkpt>
      <trkpt lat="44.61081" lon="6.12995">
        <ele>1264</ele>
        <time>2019-04-19T07:47:45Z</time>
      </trkpt>
      <trkpt lat="44.61066" lon="6.1295">
        <ele>1261</ele>
        <time>2019-04-19T07:48:45Z</time>
      </trkpt>
      <trkpt lat="44.61063" lon="6.12934">
        <ele>1260</ele>
        <time>2019-04-19T07:49:45Z</time>
      </trkpt>
      <trkpt lat="44.61058" lon="6.12887">
        <ele>1258</ele>
        <time>2019-04-19T07:50:45Z</time>
      </trkpt>
      <trkpt lat="44.61051" lon="6.1279">
        <ele>1256</ele>
        <time>2019-04-19T07:51:45Z</time>
      </trkpt>
      <trkpt lat="44.61047" lon="6.12695">
        <ele>1255</ele>
        <time>2019-04-19T07:52:45Z</time>
      </trkpt>
      <trkpt lat="44.61049" lon="6.12664">
        <ele>1255</ele>
        <time>2019-04-19T07:53:45Z</time>
      </trkpt>
      <trkpt lat="44.61052" lon="6.12651">
        <ele>1254</ele>
        <time>2019-04-19T07:54:45Z</time>
      </trkpt>
      <trkpt lat="44.61057" lon="6.12642">
        <ele>1254</ele>
        <time>2019-04-19T07:55:45Z</time>
      </trkpt>
      <trkpt lat="44.61067" lon="6.12628">
        <ele>1253</ele>
        <time>2019-04-19T07:56:45Z</time>
      </trkpt>
      <trkpt lat="44.61102" lon="6.12601">
        <ele>1254</ele>
        <time>2019-04-19T07:57:45Z</time>
      </trkpt>
      <trkpt lat="44.61124" lon="6.12577">
        <ele>1254</ele>
        <time>2019-04-19T07:58:45Z</time>
      </trkpt>
      <trkpt lat="44.61133" lon="6.12562">
        <ele>1254</ele>
        <time>2019-04-19T07:59:45Z</time>
      </trkpt>
      <trkpt lat="44.61145" lon="6.12534">
        <ele>1254</ele>
        <time>2019-04-19T08:00:45Z</time>
      </trkpt>
      <trkpt lat="44.61153" lon="6.12505">
        <ele>1253</ele>
        <time>2019-04-19T08:01:45Z</time>
      </trkpt>
      <trkpt lat="44.61155" lon="6.12439">
        <ele>1249</ele>
        <time>2019-04-19T08:02:45Z</time>
      </trkpt>
      <trkpt lat="44.61146" lon="6.12244">
        <ele>1244</ele>
        <time>2019-04-19T08:03:45Z</time>
      </trkpt>
      <trkpt lat="44.61141" lon="6.12206">
        <ele>1243</ele>
        <time>2019-04-19T08:04:45Z</time>
      </trkpt>
      <trkpt lat="44.61136" lon="6.12183">
        <ele>1243</ele>
        <time>2019-04-19T08:05:45Z</time>
      </trkpt>
      <trkpt lat="44.61059" lon="6.11994">
        <ele>1233</ele>
        <time>2019-04-19T08:06:45Z</time>
      </trkpt>
      <trkpt lat="44.61048" lon="6.11977">
        <ele>1232</ele>
        <time>2019-04-19T08:07:45Z</time>
      </trkpt>
      <trkpt lat="44.61038" lon="6.11964">
        <ele>1231</ele>
        <time>2019-04-19T08:08:45Z</time>
      </trkpt>
      <trkpt lat="44.61021" lon="6.11948">
        <ele>1229</ele>
        <time>2019-04-19T08:09:45Z</time>
      </trkpt>
      <trkpt lat="44.60919" lon="6.11876">
        <ele>1221</ele>
        <time>2019-04-19T08:10:45Z</time>
      </trkpt>
      <trkpt lat="44.60878" lon="6.11851">
        <ele>1218</ele>
        <time>2019-04-19T08:11:45Z</time>
      </trkpt>
      <trkpt lat="44.60862" lon="6.11845">
        <ele>1217</ele>
        <time>2019-04-19T08:12:45Z</time>
      </trkpt>
      <trkpt lat="44.60839" lon="6.11839">
        <ele>1215</ele>
        <time>2019-04-19T08:13:45Z</time>
      </trkpt>
      <trkpt lat="44.60714" lon="6.11819">
        <ele>1206</ele>
        <time>2019-04-19T08:14:45Z</time>
      </trkpt>
      <trkpt lat="44.60649" lon="6.11807">
        <ele>1200</ele>
        <time>2019-04-19T08:15:45Z</time>
      </trkpt>
      <trkpt lat="44.60638" lon="6.11803">
        <ele>1199</ele>
        <time>2019-04-19T08:16:45Z</time>
      </trkpt>
      <trkpt lat="44.60618" lon="6.11788">
        <ele>1199</ele>
        <time>2019-04-19T08:17:45Z</time>
      </trkpt>
      <trkpt lat="44.60605" lon="6.11774">
        <ele>1198</ele>
        <time>2019-04-19T08:18:45Z</time>
      </trkpt>
      <trkpt lat="44.60548" lon="6.11695">
        <ele>1197</ele>
        <time>2019-04-19T08:19:45Z</time>
      </trkpt>
      <trkpt lat="44.60526" lon="6.1167">
        <ele>1196</ele>
        <time>2019-04-19T08:20:45Z</time>
      </trkpt>
      <trkpt lat="44.60499" lon="6.1165">
        <ele>1193</ele>
        <time>2019-04-19T08:21:45Z</time>
      </trkpt>
      <trkpt lat="44.60446" lon="6.11621">
        <ele>1187</ele>
        <time>2019-04-19T08:22:45Z</time>
      </trkpt>
      <trkpt lat="44.60419" lon="6.116">
        <ele>1185</ele>
        <time>2019-04-19T08:23:45Z</time>
      </trkpt>
      <trkpt lat="44.60402" lon="6.11578">
        <ele>1183</ele>
        <time>2019-04-19T08:24:45Z</time>
      </trkpt>
      <trkpt lat="44.60395" lon="6.11565">
        <ele>1182</ele>
        <time>2019-04-19T08:25:45Z</time>
      </trkpt>
      <trkpt lat="44.60383" lon="6.1153">
        <ele>1180</ele>
        <time>2019-04-19T08:26:45Z</time>
      </trkpt>
      <trkpt lat="44.60362" lon="6.11421">
        <ele>1174</ele>
        <time>2019-04-19T08:27:45Z</time>
      </trkpt>
      <trkpt lat="44.60352" lon="6.11381">
        <ele>1171</ele>
        <time>2019-04-19T08:28:45Z</time>
      </trkpt>
      <trkpt lat="44.6034" lon="6.11351">
        <ele>1168</ele>
        <time>2019-04-19T08:29:45Z</time>
      </trkpt>
      <trkpt lat="44.60324" lon="6.11327">
        <ele>1165</ele>
        <time>2019-04-19T08:30:45Z</time>
      </trkpt>
      <trkpt lat="44.60311" lon="6.11313">
        <ele>1163</ele>
        <time>2019-04-19T08:31:45Z</time>
      </trkpt>
      <trkpt lat="44.60285" lon="6.11295">
        <ele>1159</ele>
        <time>2019-04-19T08:32:45Z</time>
      </trkpt>
      <trkpt lat="44.60236" lon="6.11267">
        <ele>1155</ele>
        <time>2019-04-19T08:33:45Z</time>
      </trkpt>
      <trkpt lat="44.60205" lon="6.11247">
        <ele>1153</ele>
        <time>2019-04-19T08:34:45Z</time>
      </trkpt>
      <trkpt lat="44.6019" lon="6.11231">
        <ele>1151</ele>
        <time>2019-04-19T08:35:45Z</time>
      </trkpt>
      <trkpt lat="44.60184" lon="6.11221">
        <ele>1150</ele>
        <time>2019-04-19T08:36:45Z</time>
      </trkpt>
      <trkpt lat="44.60179" lon="6.11203">
        <ele>1149</ele>
        <time>2019-04-19T08:37:45Z</time>
      </trkpt>
      <trkpt lat="44.60179" lon="6.11178">
        <ele>1148</ele>
        <time>2019-04-19T08:38:45Z</time>
      </trkpt>
      <trkpt lat="44.60181" lon="6.11165">
        <ele>1148</ele>
        <time>2019-04-19T08:39:45Z</time>
      </trkpt>
      <trkpt lat="44.60186" lon="6.11151">
        <ele>1148</ele>
        <time>2019-04-19T08:40:45Z</time>
      </trkpt>
      <trkpt lat="44.60199" lon="6.11135">
        <ele>1149</ele>
        <time>2019-04-19T08:41:45Z</time>
      </trkpt>
      <trkpt lat="44.60217" lon="6.11118">
        <ele>1150</ele>
        <time>2019-04-19T08:42:45Z</time>
      </trkpt>
      <trkpt lat="44.60223" lon="6.11104">
        <ele>1150</ele>
        <time>2019-04-19T08:43:45Z</time>
      </trkpt>
      <trkpt lat="44.60222" lon="6.11086">
        <ele>1149</ele>
        <time>2019-04-19T08:44:45Z</time>
      </trkpt>
      <trkpt lat="44.60216" lon="6.11072">
        <ele>1150</ele>
        <time>2019-04-19T08:45:45Z</time>
      </trkpt>
      <trkpt lat="44.60208" lon="6.11066">
        <ele>1149</ele>
        <time>2019-04-19T08:46:45Z</time>
      </trkpt>
      <trkpt lat="44.60204" lon="6.11065">
        <ele>1149</ele>
        <time>2019-04-19T08:47:45Z</time>
      </trkpt>
      <trkpt lat="44.60153" lon="6.11074">
        <ele>1146</ele>
        <time>2019-04-19T08:48:45Z</time>
      </trkpt>
      <trkpt lat="44.60118" lon="6.11077">
        <ele>1142</ele>
        <time>2019-04-19T08:49:45Z</time>
      </trkpt>
      <trkpt lat="44.60111" lon="6.11075">
        <ele>1141</ele>
        <time>2019-04-19T08:50:45Z</time>
      </trkpt>
      <trkpt lat="44.60101" lon="6.11068">
        <ele>1141</ele>
        <time>2019-04-19T08:51:45Z</time>
      </trkpt>
      <trkpt lat="44.59958" lon="6.10903">
        <ele>1134</ele>
        <time>2019-04-19T08:52:45Z</time>
      </trkpt>
      <trkpt lat="44.59919" lon="6.10865">
        <ele>1131</ele>
        <time>2019-04-19T08:53:45Z</time>
      </trkpt>
      <trkpt lat="44.59872" lon="6.10829">
        <ele>1125</ele>
        <time>2019-04-19T08:54:45Z</time>
      </trkpt>
      <trkpt lat="44.59861" lon="6.10818">
        <ele>1124</ele>
        <time>2019-04-19T08:55:45Z</time>
      </trkpt>
      <trkpt lat="44.59851" lon="6.10803">
        <ele>1122</ele>
        <time>2019-04-19T08:56:45Z</time>
      </trkpt>
      <trkpt lat="44.59838" lon="6.10773">
        <ele>1120</ele>
        <time>2019-04-19T08:57:45Z</time>
      </trkpt>
      <trkpt lat="44.59813" lon="6.10664">
        <ele>1117</ele>
        <time>2019-04-19T08:58:45Z</time>
      </trkpt>
      <trkpt lat="44.59795" lon="6.10579">
        <ele>1111</ele>
        <time>2019-04-19T08:59:45Z</time>
      </trkpt>
      <trkpt lat="44.59775" lon="6.10435">
        <ele>1107</ele>
        <time>2019-04-19T09:00:45Z</time>
      </trkpt>
      <trkpt lat="44.5977" lon="6.10416">
        <ele>1106</ele>
        <time>2019-04-19T09:01:45Z</time>
      </trkpt>
      <trkpt lat="44.59691" lon="6.10154">
        <ele>1095</ele>
        <time>2019-04-19T09:02:45Z</time>
      </trkpt>
      <trkpt lat="44.59682" lon="6.1013">
        <ele>1093</ele>
        <time>2019-04-19T09:03:45Z</time>
      </trkpt>
      <trkpt lat="44.59675" lon="6.10119">
        <ele>1092</ele>
        <time>2019-04-19T09:04:45Z</time>
      </trkpt>
      <trkpt lat="44.5964" lon="6.10082">
        <ele>1086</ele>
        <time>2019-04-19T09:05:45Z</time>
      </trkpt>
      <trkpt lat="44.59632" lon="6.10068">
        <ele>1086</ele>
        <time>2019-04-19T09:06:45Z</time>
      </trkpt>
      <trkpt lat="44.5961" lon="6.09968">
        <ele>1085</ele>
        <time>2019-04-19T09:07:45Z</time>
      </trkpt>
      <trkpt lat="44.59605" lon="6.09939">
        <ele>1085</ele>
        <time>2019-04-19T09:08:45Z</time>
      </trkpt>
      <trkpt lat="44.59606" lon="6.09917">
        <ele>1085</ele>
        <time>2019-04-19T09:09:45Z</time>
      </trkpt>
      <trkpt lat="44.59611" lon="6.09895">
        <ele>1084</ele>
        <time>2019-04-19T09:10:45Z</time>
      </trkpt>
      <trkpt lat="44.59635" lon="6.09837">
        <ele>1085</ele>
        <time>2019-04-19T09:11:45Z</time>
      </trkpt>
      <trkpt lat="44.59641" lon="6.09816">
        <ele>1084</ele>
        <time>2019-04-19T09:12:45Z</time>
      </trkpt>
      <trkpt lat="44.59647" lon="6.0978">
        <ele>1080</ele>
        <time>2019-04-19T09:13:45Z</time>
      </trkpt>
      <trkpt lat="44.59655" lon="6.09757">
        <ele>1078</ele>
        <time>2019-04-19T09:14:45Z</time>
      </trkpt>
      <trkpt lat="44.59669" lon="6.09741">
        <ele>1081</ele>
        <time>2019-04-19T09:15:45Z</time>
      </trkpt>
      <trkpt lat="44.59699" lon="6.09718">
        <ele>1086</ele>
        <time>2019-04-19T09:16:45Z</time>
      </trkpt>
      <trkpt lat="44.59714" lon="6.09702">
        <ele>1087</ele>
        <time>2019-04-19T09:17:45Z</time>
      </trkpt>
      <trkpt lat="44.59739" lon="6.09652">
        <ele>1089</ele>
        <time>2019-04-19T09:18:45Z</time>
      </trkpt>
      <trkpt lat="44.59743" lon="6.09633">
        <ele>1094</ele>
        <time>2019-04-19T09:19:45Z</time>
      </trkpt>
      <trkpt lat="44.59742" lon="6.09624">
        <ele>1095</ele>
        <time>2019-04-19T09:20:45Z</time>
      </trkpt>
      <trkpt lat="44.5974" lon="6.09619">
        <ele>1096</ele>
        <time>2019-04-19T09:21:45Z</time>
      </trkpt>
      <trkpt lat="44.59734" lon="6.09612">
        <ele>1096</ele>
        <time>2019-04-19T09:22:45Z</time>
      </trkpt>
      <trkpt lat="44.5973" lon="6.0961">
        <ele>1096</ele>
        <time>2019-04-19T09:23:45Z</time>
      </trkpt>
      <trkpt lat="44.59719" lon="6.0961">
        <ele>1095</ele>
        <time>2019-04-19T09:24:45Z</time>
      </trkpt>
      <trkpt lat="44.59696" lon="6.09618">
        <ele>1090</ele>
        <time>2019-04-19T09:25:45Z</time>
      </trkpt>
      <trkpt lat="44.59686" lon="6.09619">
        <ele>1088</ele>
        <time>2019-04-19T09:26:45Z</time>
      </trkpt>
      <trkpt lat="44.59647" lon="6.09609">
        <ele>1086</ele>
        <time>2019-04-19T09:27:45Z</time>
      </trkpt>
      <trkpt lat="44.5957" lon="6.09603">
        <ele>1080</ele>
        <time>2019-04-19T09:28:45Z</time>
      </trkpt>
      <trkpt lat="44.59562" lon="6.09604">
        <ele>1079</ele>
        <time>2019-04-19T09:29:45Z</time>
      </trkpt>
      <trkpt lat="44.59531" lon="6.09617">
        <ele>1074</ele>
        <time>2019-04-19T09:30:45Z</time>
      </trkpt>
      <trkpt lat="44.59514" lon="6.09616">
        <ele>1073</ele>
        <time>2019-04-19T09:31:45Z</time>
      </trkpt>
      <trkpt lat="44.59499" lon="6.09607">
        <ele>1073</ele>
        <time>2019-04-19T09:32:45Z</time>
      </trkpt>
      <trkpt lat="44.59477" lon="6.09576">
        <ele>1074</ele>
        <time>2019-04-19T09:33:45Z</time>
      </trkpt>
      <trkpt lat="44.59348" lon="6.09378">
        <ele>1065</ele>
        <time>2019-04-19T09:34:45Z</time>
      </trkpt>
      <trkpt lat="44.59337" lon="6.09356">
        <ele>1063</ele>
        <time>2019-04-19T09:35:45Z</time>
      </trkpt>
      <trkpt lat="44.5933" lon="6.09335">
        <ele>1063</ele>
        <time>2019-04-19T09:36:45Z</time>
      </trkpt>
      <trkpt lat="44.59322" lon="6.09298">
        <ele>1061</ele>
        <time>2019-04-19T09:37:45Z</time>
      </trkpt>
      <trkpt lat="44.59315" lon="6.09227">
        <ele>1058</ele>
        <time>2019-04-19T09:38:45Z</time>
      </trkpt>
      <trkpt lat="44.59314" lon="6.09181">
        <ele>1056</ele>
        <time>2019-04-19T09:39:45Z</time>
      </trkpt>
      <trkpt lat="44.59318" lon="6.09129">
        <ele>1055</ele>
        <time>2019-04-19T09:40:45Z</time>
      </trkpt>
      <trkpt lat="44.59318" lon="6.09101">
        <ele>1054</ele>
        <time>2019-04-19T09:41:45Z</time>
      </trkpt>
      <trkpt lat="44.59316" lon="6.09074">
        <ele>1054</ele>
        <time>2019-04-19T09:42:45Z</time>
      </trkpt>
      <trkpt lat="44.59308" lon="6.09047">
        <ele>1052</ele>
        <time>2019-04-19T09:43:45Z</time>
      </trkpt>
      <trkpt lat="44.59297" lon="6.09024">
        <ele>1050</ele>
        <time>2019-04-19T09:44:45Z</time>
      </trkpt>
      <trkpt lat="44.59185" lon="6.08821">
        <ele>1040</ele>
        <time>2019-04-19T09:45:45Z</time>
      </trkpt>
      <trkpt lat="44.59161" lon="6.08771">
        <ele>1038</ele>
        <time>2019-04-19T09:46:45Z</time>
      </trkpt>
      <trkpt lat="44.59141" lon="6.08725">
        <ele>1037</ele>
        <time>2019-04-19T09:47:45Z</time>
      </trkpt>
      <trkpt lat="44.59113" lon="6.08649">
        <ele>1036</ele>
        <time>2019-04-19T09:48:45Z</time>
      </trkpt>
      <trkpt lat="44.5903" lon="6.0839">
        <ele>1025</ele>
        <time>2019-04-19T09:49:45Z</time>
      </trkpt>
      <trkpt lat="44.58907" lon="6.08129">
        <ele>1015</ele>
        <time>2019-04-19T09:50:45Z</time>
      </trkpt>
      <trkpt lat="44.58907" lon="6.08109">
        <ele>1015</ele>
        <time>2019-04-19T09:51:45Z</time>
      </trkpt>
      <trkpt lat="44.5892" lon="6.08088">
        <ele>1017</ele>
        <time>2019-04-19T09:52:45Z</time>
      </trkpt>
      <trkpt lat="44.58937" lon="6.08042">
        <ele>1022</ele>
        <time>2019-04-19T09:53:45Z</time>
      </trkpt>
      <trkpt lat="44.58941" lon="6.08036">
        <ele>1023</ele>
        <time>2019-04-19T09:54:45Z</time>
      </trkpt>
      <trkpt lat="44.58947" lon="6.08031">
        <ele>1024</ele>
        <time>2019-04-19T09:55:45Z</time>
      </trkpt>
      <trkpt lat="44.58954" lon="6.0803">
        <ele>1025</ele>
        <time>2019-04-19T09:56:45Z</time>
      </trkpt>
      <trkpt lat="44.58961" lon="6.08034">
        <ele>1027</ele>
        <time>2019-04-19T09:57:45Z</time>
      </trkpt>
      <trkpt lat="44.58968" lon="6.08044">
        <ele>1027</ele>
        <time>2019-04-19T09:58:45Z</time>
      </trkpt>
      <trkpt lat="44.58982" lon="6.08082">
        <ele>1029</ele>
        <time>2019-04-19T09:59:45Z</time>
      </trkpt>
      <trkpt lat="44.59031" lon="6.08191">
        <ele>1035</ele>
        <time>2019-04-19T10:00:45Z</time>
      </trkpt>
      <trkpt lat="44.59041" lon="6.08199">
        <ele>1037</ele>
        <time>2019-04-19T10:01:45Z</time>
      </trkpt>
      <trkpt lat="44.59049" lon="6.08198">
        <ele>1038</ele>
        <time>2019-04-19T10:02:45Z</time>
      </trkpt>
      <trkpt lat="44.59057" lon="6.08191">
        <ele>1040</ele>
        <time>2019-04-19T10:03:45Z</time>
      </trkpt>
      <trkpt lat="44.5906" lon="6.08185">
        <ele>1041</ele>
        <time>2019-04-19T10:04:45Z</time>
      </trkpt>
      <trkpt lat="44.59064" lon="6.08171">
        <ele>1041</ele>
        <time>2019-04-19T10:05:45Z</time>
      </trkpt>
      <trkpt lat="44.59082" lon="6.0803">
        <ele>1048</ele>
        <time>2019-04-19T10:06:45Z</time>
      </trkpt>
      <trkpt lat="44.59087" lon="6.08019">
        <ele>1050</ele>
        <time>2019-04-19T10:07:45Z</time>
      </trkpt>
      <trkpt lat="44.59094" lon="6.08013">
        <ele>1051</ele>
        <time>2019-04-19T10:08:45Z</time>
      </trkpt>
      <trkpt lat="44.59102" lon="6.08013">
        <ele>1053</ele>
        <time>2019-04-19T10:09:45Z</time>
      </trkpt>
      <trkpt lat="44.5911" lon="6.08018">
        <ele>1055</ele>
        <time>2019-04-19T10:10:45Z</time>
      </trkpt>
      <trkpt lat="44.59115" lon="6.08025">
        <ele>1056</ele>
        <time>2019-04-19T10:11:45Z</time>
      </trkpt>
      <trkpt lat="44.59192" lon="6.08174">
        <ele>1065</ele>
        <time>2019-04-19T10:12:45Z</time>
      </trkpt>
      <trkpt lat="44.59201" lon="6.08186">
        <ele>1066</ele>
        <time>2019-04-19T10:13:45Z</time>
      </trkpt>
      <trkpt lat="44.59206" lon="6.0819">
        <ele>1067</ele>
        <time>2019-04-19T10:14:45Z</time>
      </trkpt>
      <trkpt lat="44.59214" lon="6.08191">
        <ele>1068</ele>
        <time>2019-04-19T10:15:45Z</time>
      </trkpt>
      <trkpt lat="44.59222" lon="6.08185">
        <ele>1070</ele>
        <time>2019-04-19T10:16:45Z</time>
      </trkpt>
      <trkpt lat="44.59226" lon="6.08169">
        <ele>1071</ele>
        <time>2019-04-19T10:17:45Z</time>
      </trkpt>
      <trkpt lat="44.59226" lon="6.08124">
        <ele>1073</ele>
        <time>2019-04-19T10:18:45Z</time>
      </trkpt>
      <trkpt lat="44.59227" lon="6.08115">
        <ele>1073</ele>
        <time>2019-04-19T10:19:45Z</time>
      </trkpt>
      <trkpt lat="44.59233" lon="6.08097">
        <ele>1075</ele>
        <time>2019-04-19T10:20:45Z</time>
      </trkpt>
      <trkpt lat="44.5924" lon="6.08085">
        <ele>1076</ele>
        <time>2019-04-19T10:21:45Z</time>
      </trkpt>
      <trkpt lat="44.59246" lon="6.0808">
        <ele>1077</ele>
        <time>2019-04-19T10:22:45Z</time>
      </trkpt>
      <trkpt lat="44.59252" lon="6.08076">
        <ele>1077</ele>
        <time>2019-04-19T10:23:45Z</time>
      </trkpt>
      <trkpt lat="44.59264" lon="6.08074">
        <ele>1078</ele>
        <time>2019-04-19T10:24:45Z</time>
      </trkpt>
      <trkpt lat="44.59284" lon="6.08073">
        <ele>1080</ele>
        <time>2019-04-19T10:25:45Z</time>
      </trkpt>
      <trkpt lat="44.59299" lon="6.08054">
        <ele>1078</ele>
        <time>2019-04-19T10:26:45Z</time>
      </trkpt>
      <trkpt lat="44.59311" lon="6.08043">
        <ele>1076</ele>
        <time>2019-04-19T10:27:45Z</time>
      </trkpt>
      <trkpt lat="44.59367" lon="6.08033">
        <ele>1079</ele>
        <time>2019-04-19T10:28:45Z</time>
      </trkpt>
      <trkpt lat="44.59399" lon="6.08021">
        <ele>1081</ele>
        <time>2019-04-19T10:29:45Z</time>
      </trkpt>
      <trkpt lat="44.59471" lon="6.07988">
        <ele>1086</ele>
        <time>2019-04-19T10:30:45Z</time>
      </trkpt>
      <trkpt lat="44.59507" lon="6.07988">
        <ele>1090</ele>
        <time>2019-04-19T10:31:45Z</time>
      </trkpt>
      <trkpt lat="44.59514" lon="6.07985">
        <ele>1091</ele>
        <time>2019-04-19T10:32:45Z</time>
      </trkpt>
      <trkpt lat="44.59521" lon="6.0798">
        <ele>1092</ele>
        <time>2019-04-19T10:33:45Z</time>
      </trkpt>
      <trkpt lat="44.59526" lon="6.07973">
        <ele>1092</ele>
        <time>2019-04-19T10:34:45Z</time>
      </trkpt>
      <trkpt lat="44.59534" lon="6.07956">
        <ele>1092</ele>
        <time>2019-04-19T10:35:45Z</time>
      </trkpt>
      <trkpt lat="44.59536" lon="6.07948">
        <ele>1092</ele>
        <time>2019-04-19T10:36:45Z</time>
      </trkpt>
      <trkpt lat="44.59538" lon="6.07926">
        <ele>1090</ele>
        <time>2019-04-19T10:37:45Z</time>
      </trkpt>
      <trkpt lat="44.59533" lon="6.07911">
        <ele>1090</ele>
        <time>2019-04-19T10:38:45Z</time>
      </trkpt>
      <trkpt lat="44.59529" lon="6.07904">
        <ele>1090</ele>
        <time>2019-04-19T10:39:45Z</time>
      </trkpt>
      <trkpt lat="44.59522" lon="6.079">
        <ele>1090</ele>
        <time>2019-04-19T10:40:45Z</time>
      </trkpt>
      <trkpt lat="44.59473" lon="6.07878">
        <ele>1091</ele>
        <time>2019-04-19T10:41:45Z</time>
      </trkpt>
      <trkpt lat="44.59449" lon="6.0787">
        <ele>1093</ele>
        <time>2019-04-19T10:42:45Z</time>
      </trkpt>
      <trkpt lat="44.5944" lon="6.07873">
        <ele>1092</ele>
        <time>2019-04-19T10:43:45Z</time>
      </trkpt>
      <trkpt lat="44.59428" lon="6.0788">
        <ele>1090</ele>
        <time>2019-04-19T10:44:45Z</time>
      </trkpt>
      <trkpt lat="44.59419" lon="6.07877">
        <ele>1090</ele>
        <time>2019-04-19T10:45:45Z</time>
      </trkpt>
      <trkpt lat="44.59417" lon="6.07873">
        <ele>1092</ele>
        <time>2019-04-19T10:46:45Z</time>
      </trkpt>
      <trkpt lat="44.59417" lon="6.07864">
        <ele>1094</ele>
        <time>2019-04-19T10:47:45Z</time>
      </trkpt>
      <trkpt lat="44.59421" lon="6.07858">
        <ele>1096</ele>
        <time>2019-04-19T10:48:45Z</time>
      </trkpt>
      <trkpt lat="44.59425" lon="6.07857">
        <ele>1096</ele>
        <time>2019-04-19T10:49:45Z</time>
      </trkpt>
      <trkpt lat="44.59431" lon="6.07856">
        <ele>1097</ele>
        <time>2019-04-19T10:50:45Z</time>
      </trkpt>
      <trkpt lat="44.59448" lon="6.07859">
        <ele>1096</ele>
        <time>2019-04-19T10:51:45Z</time>
      </trkpt>
      <trkpt lat="44.59486" lon="6.07857">
        <ele>1097</ele>
        <time>2019-04-19T10:52:45Z</time>
      </trkpt>
      <trkpt lat="44.59501" lon="6.0785">
        <ele>1098</ele>
        <time>2019-04-19T10:53:45Z</time>
      </trkpt>
      <trkpt lat="44.5951" lon="6.07838">
        <ele>1102</ele>
        <time>2019-04-19T10:54:45Z</time>
      </trkpt>
      <trkpt lat="44.59513" lon="6.07829">
        <ele>1104</ele>
        <time>2019-04-19T10:55:45Z</time>
      </trkpt>
      <trkpt lat="44.59515" lon="6.0779">
        <ele>1109</ele>
        <time>2019-04-19T10:56:45Z</time>
      </trkpt>
      <trkpt lat="44.5951" lon="6.07752">
        <ele>1115</ele>
        <time>2019-04-19T10:57:45Z</time>
      </trkpt>
      <trkpt lat="44.59501" lon="6.07648">
        <ele>1118</ele>
        <time>2019-04-19T10:58:45Z</time>
      </trkpt>
      <trkpt lat="44.59502" lon="6.07628">
        <ele>1118</ele>
        <time>2019-04-19T10:59:45Z</time>
      </trkpt>
      <trkpt lat="44.59507" lon="6.0761">
        <ele>1118</ele>
        <time>2019-04-19T11:00:45Z</time>
      </trkpt>
      <trkpt lat="44.59511" lon="6.07602">
        <ele>1118</ele>
        <time>2019-04-19T11:01:45Z</time>
      </trkpt>
      <trkpt lat="44.59526" lon="6.07586">
        <ele>1119</ele>
        <time>2019-04-19T11:02:45Z</time>
      </trkpt>
      <trkpt lat="44.59542" lon="6.07576">
        <ele>1119</ele>
        <time>2019-04-19T11:03:45Z</time>
      </trkpt>
      <trkpt lat="44.59587" lon="6.07555">
        <ele>1122</ele>
        <time>2019-04-19T11:04:45Z</time>
      </trkpt>
      <trkpt lat="44.59608" lon="6.07552">
        <ele>1123</ele>
        <time>2019-04-19T11:05:45Z</time>
      </trkpt>
      <trkpt lat="44.59648" lon="6.07552">
        <ele>1125</ele>
        <time>2019-04-19T11:06:45Z</time>
      </trkpt>
      <trkpt lat="44.59663" lon="6.07549">
        <ele>1126</ele>
        <time>2019-04-19T11:07:45Z</time>
      </trkpt>
      <trkpt lat="44.59801" lon="6.07465">
        <ele>1146</ele>
        <time>2019-04-19T11:08:45Z</time>
      </trkpt>
      <trkpt lat="44.59807" lon="6.07458">
        <ele>1148</ele>
        <time>2019-04-19T11:09:45Z</time>
      </trkpt>
      <trkpt lat="44.5981" lon="6.07451">
        <ele>1148</ele>
        <time>2019-04-19T11:10:45Z</time>
      </trkpt>
      <trkpt lat="44.59811" lon="6.07437">
        <ele>1149</ele>
        <time>2019-04-19T11:11:45Z</time>
      </trkpt>
      <trkpt lat="44.59805" lon="6.07422">
        <ele>1150</ele>
        <time>2019-04-19T11:12:45Z</time>
      </trkpt>
      <trkpt lat="44.59802" lon="6.07417">
        <ele>1150</ele>
        <time>2019-04-19T11:13:45Z</time>
      </trkpt>
      <trkpt lat="44.59796" lon="6.07415">
        <ele>1150</ele>
        <time>2019-04-19T11:14:45Z</time>
      </trkpt>
      <trkpt lat="44.59786" lon="6.07414">
        <ele>1149</ele>
        <time>2019-04-19T11:15:45Z</time>
      </trkpt>
      <trkpt lat="44.5975" lon="6.07418">
        <ele>1145</ele>
        <time>2019-04-19T11:16:45Z</time>
      </trkpt>
      <trkpt lat="44.59748" lon="6.07415">
        <ele>1145</ele>
        <time>2019-04-19T11:17:45Z</time>
      </trkpt>
      <trkpt lat="44.59708" lon="6.07415">
        <ele>1143</ele>
        <time>2019-04-19T11:18:45Z</time>
      </trkpt>
      <trkpt lat="44.59665" lon="6.07399">
        <ele>1144</ele>
        <time>2019-04-19T11:19:45Z</time>
      </trkpt>
      <trkpt lat="44.59618" lon="6.07397">
        <ele>1142</ele>
        <time>2019-04-19T11:20:45Z</time>
      </trkpt>
      <trkpt lat="44.59597" lon="6.07391">
        <ele>1142</ele>
        <time>2019-04-19T11:21:45Z</time>
      </trkpt>
      <trkpt lat="44.59581" lon="6.07382">
        <ele>1143</ele>
        <time>2019-04-19T11:22:45Z</time>
      </trkpt>
      <trkpt lat="44.59566" lon="6.0737">
        <ele>1143</ele>
        <time>2019-04-19T11:23:45Z</time>
      </trkpt>
      <trkpt lat="44.59551" lon="6.07347">
        <ele>1146</ele>
        <time>2019-04-19T11:24:45Z</time>
      </trkpt>
      <trkpt lat="44.59424" lon="6.07305">
        <ele>1139</ele>
        <time>2019-04-19T11:25:45Z</time>
      </trkpt>
      <trkpt lat="44.5941" lon="6.07294">
        <ele>1138</ele>
        <time>2019-04-19T11:26:45Z</time>
      </trkpt>
      <trkpt lat="44.59392" lon="6.0725">
        <ele>1139</ele>
        <time>2019-04-19T11:27:45Z</time>
      </trkpt>
      <trkpt lat="44.59379" lon="6.07227">
        <ele>1136</ele>
        <time>2019-04-19T11:28:45Z</time>
      </trkpt>
      <trkpt lat="44.59373" lon="6.07205">
        <ele>1134</ele>
        <time>2019-04-19T11:29:45Z</time>
      </trkpt>
      <trkpt lat="44.59374" lon="6.07189">
        <ele>1134</ele>
        <time>2019-04-19T11:30:45Z</time>
      </trkpt>
      <trkpt lat="44.59402" lon="6.07105">
        <ele>1135</ele>
        <time>2019-04-19T11:31:45Z</time>
      </trkpt>
      <trkpt lat="44.5943" lon="6.07037">
        <ele>1139</ele>
        <time>2019-04-19T11:32:45Z</time>
      </trkpt>
      <trkpt lat="44.59442" lon="6.07021">
        <ele>1142</ele>
        <time>2019-04-19T11:33:45Z</time>
      </trkpt>
      <trkpt lat="44.59474" lon="6.06996">
        <ele>1149</ele>
        <time>2019-04-19T11:34:45Z</time>
      </trkpt>
      <trkpt lat="44.5947" lon="6.06988">
        <ele>1150</ele>
        <time>2019-04-19T11:35:45Z</time>
      </trkpt>
      <trkpt lat="44.59442" lon="6.06973">
        <ele>1146</ele>
        <time>2019-04-19T11:36:45Z</time>
      </trkpt>
      <trkpt lat="44.59405" lon="6.06957">
        <ele>1142</ele>
        <time>2019-04-19T11:37:45Z</time>
      </trkpt>
      <trkpt lat="44.59349" lon="6.06953">
        <ele>1134</ele>
        <time>2019-04-19T11:38:45Z</time>
      </trkpt>
      <trkpt lat="44.59323" lon="6.06933">
        <ele>1134</ele>
        <time>2019-04-19T11:39:45Z</time>
      </trkpt>
      <trkpt lat="44.59324" lon="6.06905">
        <ele>1140</ele>
        <time>2019-04-19T11:40:45Z</time>
      </trkpt>
      <trkpt lat="44.59359" lon="6.06862">
        <ele>1153</ele>
        <time>2019-04-19T11:41:45Z</time>
      </trkpt>
      <trkpt lat="44.59317" lon="6.06841">
        <ele>1151</ele>
        <time>2019-04-19T11:42:45Z</time>
      </trkpt>
      <trkpt lat="44.59281" lon="6.06841">
        <ele>1147</ele>
        <time>2019-04-19T11:43:45Z</time>
      </trkpt>
      <trkpt lat="44.59257" lon="6.06857">
        <ele>1141</ele>
        <time>2019-04-19T11:44:45Z</time>
      </trkpt>
      <trkpt lat="44.59223" lon="6.0686">
        <ele>1132</ele>
        <time>2019-04-19T11:45:45Z</time>
      </trkpt>
      <trkpt lat="44.5921" lon="6.06836">
        <ele>1133</ele>
        <time>2019-04-19T11:46:45Z</time>
      </trkpt>
      <trkpt lat="44.59205" lon="6.06823">
        <ele>1133</ele>
        <time>2019-04-19T11:47:45Z</time>
      </trkpt>
      <trkpt lat="44.59197" lon="6.06752">
        <ele>1138</ele>
        <time>2019-04-19T11:48:45Z</time>
      </trkpt>
      <trkpt lat="44.59185" lon="6.06695">
        <ele>1138</ele>
        <time>2019-04-19T11:49:45Z</time>
      </trkpt>
      <trkpt lat="44.59182" lon="6.0666">
        <ele>1139</ele>
        <time>2019-04-19T11:50:45Z</time>
      </trkpt>
      <trkpt lat="44.59184" lon="6.06563">
        <ele>1146</ele>
        <time>2019-04-19T11:51:45Z</time>
      </trkpt>
      <trkpt lat="44.5918" lon="6.06542">
        <ele>1148</ele>
        <time>2019-04-19T11:52:45Z</time>
      </trkpt>
      <trkpt lat="44.59164" lon="6.06518">
        <ele>1146</ele>
        <time>2019-04-19T11:53:45Z</time>
      </trkpt>
      <trkpt lat="44.59154" lon="6.06476">
        <ele>1153</ele>
        <time>2019-04-19T11:54:45Z</time>
      </trkpt>
      <trkpt lat="44.59129" lon="6.06459">
        <ele>1153</ele>
        <time>2019-04-19T11:55:45Z</time>
      </trkpt>
      <trkpt lat="44.59097" lon="6.0646">
        <ele>1148</ele>
        <time>2019-04-19T11:56:45Z</time>
      </trkpt>
      <trkpt lat="44.59063" lon="6.06505">
        <ele>1137</ele>
        <time>2019-04-19T11:57:45Z</time>
      </trkpt>
      <trkpt lat="44.59021" lon="6.06528">
        <ele>1136</ele>
        <time>2019-04-19T11:58:45Z</time>
      </trkpt>
      <trkpt lat="44.5899" lon="6.06542">
        <ele>1135</ele>
        <time>2019-04-19T11:59:45Z</time>
      </trkpt>
      <trkpt lat="44.58975" lon="6.06543">
        <ele>1133</ele>
        <time>2019-04-19T12:00:45Z</time>
      </trkpt>
      <trkpt lat="44.58957" lon="6.06532">
        <ele>1133</ele>
        <time>2019-04-19T12:01:45Z</time>
      </trkpt>
      <trkpt lat="44.58916" lon="6.06477">
        <ele>1136</ele>
        <time>2019-04-19T12:02:45Z</time>
      </trkpt>
      <trkpt lat="44.58913" lon="6.06458">
        <ele>1137</ele>
        <time>2019-04-19T12:03:45Z</time>
      </trkpt>
      <trkpt lat="44.589" lon="6.06415">
        <ele>1139</ele>
        <time>2019-04-19T12:04:45Z</time>
      </trkpt>
      <trkpt lat="44.58847" lon="6.06327">
        <ele>1138</ele>
        <time>2019-04-19T12:05:45Z</time>
      </trkpt>
      <trkpt lat="44.58839" lon="6.06286">
        <ele>1139</ele>
        <time>2019-04-19T12:06:45Z</time>
      </trkpt>
      <trkpt lat="44.58834" lon="6.06269">
        <ele>1140</ele>
        <time>2019-04-19T12:07:45Z</time>
      </trkpt>
      <trkpt lat="44.58787" lon="6.06154">
        <ele>1141</ele>
        <time>2019-04-19T12:08:45Z</time>
      </trkpt>
      <trkpt lat="44.58779" lon="6.06133">
        <ele>1142</ele>
        <time>2019-04-19T12:09:45Z</time>
      </trkpt>
      <trkpt lat="44.58771" lon="6.06102">
        <ele>1145</ele>
        <time>2019-04-19T12:10:45Z</time>
      </trkpt>
      <trkpt lat="44.58764" lon="6.06093">
        <ele>1145</ele>
        <time>2019-04-19T12:11:45Z</time>
      </trkpt>
      <trkpt lat="44.58697" lon="6.06048">
        <ele>1138</ele>
        <time>2019-04-19T12:12:45Z</time>
      </trkpt>
      <trkpt lat="44.5869" lon="6.0604">
        <ele>1138</ele>
        <time>2019-04-19T12:13:45Z</time>
      </trkpt>
      <trkpt lat="44.58663" lon="6.05972">
        <ele>1145</ele>
        <time>2019-04-19T12:14:45Z</time>
      </trkpt>
      <trkpt lat="44.58649" lon="6.05951">
        <ele>1145</ele>
        <time>2019-04-19T12:15:45Z</time>
      </trkpt>
      <trkpt lat="44.58605" lon="6.0591">
        <ele>1140</ele>
        <time>2019-04-19T12:16:45Z</time>
      </trkpt>
      <trkpt lat="44.58597" lon="6.05898">
        <ele>1140</ele>
        <time>2019-04-19T12:17:45Z</time>
      </trkpt>
      <trkpt lat="44.58591" lon="6.05876">
        <ele>1142</ele>
        <time>2019-04-19T12:18:45Z</time>
      </trkpt>
      <trkpt lat="44.58587" lon="6.05854">
        <ele>1145</ele>
        <time>2019-04-19T12:19:45Z</time>
      </trkpt>
      <trkpt lat="44.58561" lon="6.05813">
        <ele>1148</ele>
        <time>2019-04-19T12:20:45Z</time>
      </trkpt>
      <trkpt lat="44.58544" lon="6.05807">
        <ele>1147</ele>
        <time>2019-04-19T12:21:45Z</time>
      </trkpt>
      <trkpt lat="44.58521" lon="6.05814">
        <ele>1143</ele>
        <time>2019-04-19T12:22:45Z</time>
      </trkpt>
      <trkpt lat="44.58487" lon="6.05795">
        <ele>1140</ele>
        <time>2019-04-19T12:23:45Z</time>
      </trkpt>
      <trkpt lat="44.58475" lon="6.05782">
        <ele>1139</ele>
        <time>2019-04-19T12:24:45Z</time>
      </trkpt>
      <trkpt lat="44.5844" lon="6.05721">
        <ele>1140</ele>
        <time>2019-04-19T12:25:45Z</time>
      </trkpt>
      <trkpt lat="44.58399" lon="6.05668">
        <ele>1142</ele>
        <time>2019-04-19T12:26:45Z</time>
      </trkpt>
      <trkpt lat="44.5839" lon="6.05647">
        <ele>1143</ele>
        <time>2019-04-19T12:27:45Z</time>
      </trkpt>
      <trkpt lat="44.58352" lon="6.05597">
        <ele>1141</ele>
        <time>2019-04-19T12:28:45Z</time>
      </trkpt>
      <trkpt lat="44.58327" lon="6.05543">
        <ele>1143</ele>
        <time>2019-04-19T12:29:45Z</time>
      </trkpt>
      <trkpt lat="44.58294" lon="6.05455">
        <ele>1147</ele>
        <time>2019-04-19T12:30:45Z</time>
      </trkpt>
      <trkpt lat="44.5828" lon="6.05424">
        <ele>1146</ele>
        <time>2019-04-19T12:31:45Z</time>
      </trkpt>
      <trkpt lat="44.58242" lon="6.05378">
        <ele>1142</ele>
        <time>2019-04-19T12:32:45Z</time>
      </trkpt>
      <trkpt lat="44.58163" lon="6.05239">
        <ele>1145</ele>
        <time>2019-04-19T12:33:45Z</time>
      </trkpt>
      <trkpt lat="44.58111" lon="6.05173">
        <ele>1142</ele>
        <time>2019-04-19T12:34:45Z</time>
      </trkpt>
      <trkpt lat="44.58086" lon="6.05135">
        <ele>1144</ele>
        <time>2019-04-19T12:35:45Z</time>
      </trkpt>
      <trkpt lat="44.58059" lon="6.05109">
        <ele>1142</ele>
        <time>2019-04-19T12:36:45Z</time>
      </trkpt>
      <trkpt lat="44.58037" lon="6.05067">
        <ele>1146</ele>
        <time>2019-04-19T12:37:45Z</time>
      </trkpt>
      <trkpt lat="44.58019" lon="6.0506">
        <ele>1142</ele>
        <time>2019-04-19T12:38:45Z</time>
      </trkpt>
      <trkpt lat="44.57981" lon="6.04987">
        <ele>1144</ele>
        <time>2019-04-19T12:39:45Z</time>
      </trkpt>
      <trkpt lat="44.57954" lon="6.04965">
        <ele>1140</ele>
        <time>2019-04-19T12:40:45Z</time>
      </trkpt>
      <trkpt lat="44.57934" lon="6.04932">
        <ele>1140</ele>
        <time>2019-04-19T12:41:45Z</time>
      </trkpt>
      <trkpt lat="44.57909" lon="6.04863">
        <ele>1144</ele>
        <time>2019-04-19T12:42:45Z</time>
      </trkpt>
      <trkpt lat="44.57896" lon="6.04838">
        <ele>1146</ele>
        <time>2019-04-19T12:43:45Z</time>
      </trkpt>
      <trkpt lat="44.57841" lon="6.04776">
        <ele>1147</ele>
        <time>2019-04-19T12:44:45Z</time>
      </trkpt>
      <trkpt lat="44.57811" lon="6.04758">
        <ele>1144</ele>
        <time>2019-04-19T12:45:45Z</time>
      </trkpt>
      <trkpt lat="44.57793" lon="6.04706">
        <ele>1153</ele>
        <time>2019-04-19T12:46:45Z</time>
      </trkpt>
      <trkpt lat="44.57757" lon="6.04697">
        <ele>1148</ele>
        <time>2019-04-19T12:47:45Z</time>
      </trkpt>
      <trkpt lat="44.57707" lon="6.04678">
        <ele>1141</ele>
        <time>2019-04-19T12:48:45Z</time>
      </trkpt>
      <trkpt lat="44.57701" lon="6.04662">
        <ele>1143</ele>
        <time>2019-04-19T12:49:45Z</time>
      </trkpt>
      <trkpt lat="44.57683" lon="6.04586">
        <ele>1149</ele>
        <time>2019-04-19T12:50:45Z</time>
      </trkpt>
      <trkpt lat="44.57675" lon="6.04572">
        <ele>1149</ele>
        <time>2019-04-19T12:51:45Z</time>
      </trkpt>
      <trkpt lat="44.57623" lon="6.04555">
        <ele>1142</ele>
        <time>2019-04-19T12:52:45Z</time>
      </trkpt>
      <trkpt lat="44.57615" lon="6.04547">
        <ele>1142</ele>
        <time>2019-04-19T12:53:45Z</time>
      </trkpt>
      <trkpt lat="44.57611" lon="6.04526">
        <ele>1144</ele>
        <time>2019-04-19T12:54:45Z</time>
      </trkpt>
      <trkpt lat="44.5757" lon="6.04456">
        <ele>1143</ele>
        <time>2019-04-19T12:55:45Z</time>
      </trkpt>
      <trkpt lat="44.57526" lon="6.04374">
        <ele>1144</ele>
        <time>2019-04-19T12:56:45Z</time>
      </trkpt>
      <trkpt lat="44.57515" lon="6.04317">
        <ele>1150</ele>
        <time>2019-04-19T12:57:45Z</time>
      </trkpt>
      <trkpt lat="44.57493" lon="6.04247">
        <ele>1150</ele>
        <time>2019-04-19T12:58:45Z</time>
      </trkpt>
      <trkpt lat="44.57465" lon="6.04206">
        <ele>1145</ele>
        <time>2019-04-19T12:59:45Z</time>
      </trkpt>
      <trkpt lat="44.57455" lon="6.04195">
        <ele>1143</ele>
        <time>2019-04-19T13:00:45Z</time>
      </trkpt>
      <trkpt lat="44.57445" lon="6.04178">
        <ele>1142</ele>
        <time>2019-04-19T13:01:45Z</time>
      </trkpt>
      <trkpt lat="44.57392" lon="6.04055">
        <ele>1143</ele>
        <time>2019-04-19T13:02:45Z</time>
      </trkpt>
      <trkpt lat="44.57372" lon="6.04014">
        <ele>1143</ele>
        <time>2019-04-19T13:03:45Z</time>
      </trkpt>
      <trkpt lat="44.57367" lon="6.03987">
        <ele>1146</ele>
        <time>2019-04-19T13:04:45Z</time>
      </trkpt>
      <trkpt lat="44.57337" lon="6.03937">
        <ele>1145</ele>
        <time>2019-04-19T13:05:45Z</time>
      </trkpt>
      <trkpt lat="44.5732" lon="6.03921">
        <ele>1143</ele>
        <time>2019-04-19T13:06:45Z</time>
      </trkpt>
      <trkpt lat="44.57288" lon="6.03873">
        <ele>1144</ele>
        <time>2019-04-19T13:07:45Z</time>
      </trkpt>
      <trkpt lat="44.57259" lon="6.03844">
        <ele>1141</ele>
        <time>2019-04-19T13:08:45Z</time>
      </trkpt>
      <trkpt lat="44.57214" lon="6.03818">
        <ele>1132</ele>
        <time>2019-04-19T13:09:45Z</time>
      </trkpt>
      <trkpt lat="44.57203" lon="6.03802">
        <ele>1129</ele>
        <time>2019-04-19T13:10:45Z</time>
      </trkpt>
      <trkpt lat="44.57201" lon="6.03787">
        <ele>1128</ele>
        <time>2019-04-19T13:11:45Z</time>
      </trkpt>
      <trkpt lat="44.57235" lon="6.03759">
        <ele>1137</ele>
        <time>2019-04-19T13:12:45Z</time>
      </trkpt>
      <trkpt lat="44.57247" lon="6.03736">
        <ele>1139</ele>
        <time>2019-04-19T13:13:45Z</time>
      </trkpt>
      <trkpt lat="44.5726" lon="6.0372">
        <ele>1142</ele>
        <time>2019-04-19T13:14:45Z</time>
      </trkpt>
      <trkpt lat="44.57308" lon="6.03692">
        <ele>1155</ele>
        <time>2019-04-19T13:15:45Z</time>
      </trkpt>
      <trkpt lat="44.57308" lon="6.03685">
        <ele>1154</ele>
        <time>2019-04-19T13:16:45Z</time>
      </trkpt>
      <trkpt lat="44.57294" lon="6.03661">
        <ele>1150</ele>
        <time>2019-04-19T13:17:45Z</time>
      </trkpt>
      <trkpt lat="44.57278" lon="6.03627">
        <ele>1149</ele>
        <time>2019-04-19T13:18:45Z</time>
      </trkpt>
      <trkpt lat="44.57271" lon="6.0362">
        <ele>1147</ele>
        <time>2019-04-19T13:19:45Z</time>
      </trkpt>
      <trkpt lat="44.57242" lon="6.03609">
        <ele>1141</ele>
        <time>2019-04-19T13:20:45Z</time>
      </trkpt>
      <trkpt lat="44.57236" lon="6.03602">
        <ele>1140</ele>
        <time>2019-04-19T13:21:45Z</time>
      </trkpt>
      <trkpt lat="44.57232" lon="6.03592">
        <ele>1140</ele>
        <time>2019-04-19T13:22:45Z</time>
      </trkpt>
      <trkpt lat="44.57221" lon="6.03549">
        <ele>1146</ele>
        <time>2019-04-19T13:23:45Z</time>
      </trkpt>
      <trkpt lat="44.57208" lon="6.03504">
        <ele>1154</ele>
        <time>2019-04-19T13:24:45Z</time>
      </trkpt>
      <trkpt lat="44.57173" lon="6.03506">
        <ele>1154</ele>
        <time>2019-04-19T13:25:45Z</time>
      </trkpt>
      <trkpt lat="44.57136" lon="6.03547">
        <ele>1141</ele>
        <time>2019-04-19T13:26:45Z</time>
      </trkpt>
      <trkpt lat="44.57086" lon="6.03554">
        <ele>1138</ele>
        <time>2019-04-19T13:27:45Z</time>
      </trkpt>
      <trkpt lat="44.57075" lon="6.03552">
        <ele>1137</ele>
        <time>2019-04-19T13:28:45Z</time>
      </trkpt>
      <trkpt lat="44.5705" lon="6.03514">
        <ele>1141</ele>
        <time>2019-04-19T13:29:45Z</time>
      </trkpt>
      <trkpt lat="44.57024" lon="6.03454">
        <ele>1147</ele>
        <time>2019-04-19T13:30:45Z</time>
      </trkpt>
      <trkpt lat="44.57015" lon="6.03442">
        <ele>1147</ele>
        <time>2019-04-19T13:31:45Z</time>
      </trkpt>
      <trkpt lat="44.56981" lon="6.0342">
        <ele>1142</ele>
        <time>2019-04-19T13:32:45Z</time>
      </trkpt>
      <trkpt lat="44.56936" lon="6.03355">
        <ele>1146</ele>
        <time>2019-04-19T13:33:45Z</time>
      </trkpt>
      <trkpt lat="44.56907" lon="6.03336">
        <ele>1144</ele>
        <time>2019-04-19T13:34:45Z</time>
      </trkpt>
      <trkpt lat="44.56852" lon="6.03275">
        <ele>1141</ele>
        <time>2019-04-19T13:35:45Z</time>
      </trkpt>
      <trkpt lat="44.56845" lon="6.03261">
        <ele>1140</ele>
        <time>2019-04-19T13:36:45Z</time>
      </trkpt>
      <trkpt lat="44.56834" lon="6.03201">
        <ele>1148</ele>
        <time>2019-04-19T13:37:45Z</time>
      </trkpt>
      <trkpt lat="44.56803" lon="6.03159">
        <ele>1148</ele>
        <time>2019-04-19T13:38:45Z</time>
      </trkpt>
      <trkpt lat="44.56785" lon="6.03139">
        <ele>1149</ele>
        <time>2019-04-19T13:39:45Z</time>
      </trkpt>
      <trkpt lat="44.56744" lon="6.03108">
        <ele>1148</ele>
        <time>2019-04-19T13:40:45Z</time>
      </trkpt>
      <trkpt lat="44.5669" lon="6.03037">
        <ele>1152</ele>
        <time>2019-04-19T13:41:45Z</time>
      </trkpt>
      <trkpt lat="44.56652" lon="6.03025">
        <ele>1146</ele>
        <time>2019-04-19T13:42:45Z</time>
      </trkpt>
      <trkpt lat="44.56648" lon="6.03008">
        <ele>1150</ele>
        <time>2019-04-19T13:43:45Z</time>
      </trkpt>
      <trkpt lat="44.56626" lon="6.03016">
        <ele>1144</ele>
        <time>2019-04-19T13:44:45Z</time>
      </trkpt>
      <trkpt lat="44.56601" lon="6.02985">
        <ele>1148</ele>
        <time>2019-04-19T13:45:45Z</time>
      </trkpt>
      <trkpt lat="44.5656" lon="6.02944">
        <ele>1149</ele>
        <time>2019-04-19T13:46:45Z</time>
      </trkpt>
      <trkpt lat="44.56554" lon="6.02935">
        <ele>1150</ele>
        <time>2019-04-19T13:47:45Z</time>
      </trkpt>
      <trkpt lat="44.56548" lon="6.02908">
        <ele>1155</ele>
        <time>2019-04-19T13:48:45Z</time>
      </trkpt>
      <trkpt lat="44.56499" lon="6.02913">
        <ele>1144</ele>
        <time>2019-04-19T13:49:45Z</time>
      </trkpt>
      <trkpt lat="44.56478" lon="6.02902">
        <ele>1143</ele>
        <time>2019-04-19T13:50:45Z</time>
      </trkpt>
      <trkpt lat="44.56432" lon="6.02858">
        <ele>1145</ele>
        <time>2019-04-19T13:51:45Z</time>
      </trkpt>
      <trkpt lat="44.56325" lon="6.02737">
        <ele>1143</ele>
        <time>2019-04-19T13:52:45Z</time>
      </trkpt>
      <trkpt lat="44.56312" lon="6.02693">
        <ele>1146</ele>
        <time>2019-04-19T13:53:45Z</time>
      </trkpt>
      <trkpt lat="44.56305" lon="6.02657">
        <ele>1151</ele>
        <time>2019-04-19T13:54:45Z</time>
      </trkpt>
      <trkpt lat="44.56279" lon="6.02628">
        <ele>1149</ele>
        <time>2019-04-19T13:55:45Z</time>
      </trkpt>
      <trkpt lat="44.56255" lon="6.02634">
        <ele>1142</ele>
        <time>2019-04-19T13:56:45Z</time>
      </trkpt>
      <trkpt lat="44.56242" lon="6.02631">
        <ele>1139</ele>
        <time>2019-04-19T13:57:45Z</time>
      </trkpt>
      <trkpt lat="44.56227" lon="6.02625">
        <ele>1137</ele>
        <time>2019-04-19T13:58:45Z</time>
      </trkpt>
      <trkpt lat="44.56178" lon="6.02534">
        <ele>1139</ele>
        <time>2019-04-19T13:59:45Z</time>
      </trkpt>
      <trkpt lat="44.56164" lon="6.02497">
        <ele>1140</ele>
        <time>2019-04-19T14:00:45Z</time>
      </trkpt>
      <trkpt lat="44.56147" lon="6.02462">
        <ele>1140</ele>
        <time>2019-04-19T14:01:45Z</time>
      </trkpt>
      <trkpt lat="44.56102" lon="6.02378">
        <ele>1138</ele>
        <time>2019-04-19T14:02:45Z</time>
      </trkpt>
      <trkpt lat="44.56061" lon="6.02273">
        <ele>1137</ele>
        <time>2019-04-19T14:03:45Z</time>
      </trkpt>
      <trkpt lat="44.56023" lon="6.02159">
        <ele>1137</ele>
        <time>2019-04-19T14:04:45Z</time>
      </trkpt>
      <trkpt lat="44.5601" lon="6.02089">
        <ele>1135</ele>
        <time>2019-04-19T14:05:45Z</time>
      </trkpt>
      <trkpt lat="44.56008" lon="6.02049">
        <ele>1136</ele>
        <time>2019-04-19T14:06:45Z</time>
      </trkpt>
      <trkpt lat="44.55986" lon="6.01882">
        <ele>1136</ele>
        <time>2019-04-19T14:07:45Z</time>
      </trkpt>
      <trkpt lat="44.55982" lon="6.0184">
        <ele>1136</ele>
        <time>2019-04-19T14:08:45Z</time>
      </trkpt>
      <trkpt lat="44.55986" lon="6.01791">
        <ele>1138</ele>
        <time>2019-04-19T14:09:45Z</time>
      </trkpt>
      <trkpt lat="44.55981" lon="6.01786">
        <ele>1137</ele>
        <time>2019-04-19T14:10:45Z</time>
      </trkpt>
      <trkpt lat="44.56013" lon="6.01644">
        <ele>1145</ele>
        <time>2019-04-19T14:11:45Z</time>
      </trkpt>
      <trkpt lat="44.56024" lon="6.01579">
        <ele>1150</ele>
        <time>2019-04-19T14:12:45Z</time>
      </trkpt>
      <trkpt lat="44.56043" lon="6.01385">
        <ele>1162</ele>
        <time>2019-04-19T14:13:45Z</time>
      </trkpt>
      <trkpt lat="44.5605" lon="6.01331">
        <ele>1166</ele>
        <time>2019-04-19T14:14:45Z</time>
      </trkpt>
      <trkpt lat="44.56056" lon="6.01275">
        <ele>1169</ele>
        <time>2019-04-19T14:15:45Z</time>
      </trkpt>
      <trkpt lat="44.56057" lon="6.01258">
        <ele>1169</ele>
        <time>2019-04-19T14:16:45Z</time>
      </trkpt>
      <trkpt lat="44.56052" lon="6.01165">
        <ele>1170</ele>
        <time>2019-04-19T14:17:45Z</time>
      </trkpt>
      <trkpt lat="44.56038" lon="6.0109">
        <ele>1171</ele>
        <time>2019-04-19T14:18:45Z</time>
      </trkpt>
      <trkpt lat="44.56031" lon="6.01031">
        <ele>1171</ele>
        <time>2019-04-19T14:19:45Z</time>
      </trkpt>
      <trkpt lat="44.56024" lon="6.00948">
        <ele>1170</ele>
        <time>2019-04-19T14:20:45Z</time>
      </trkpt>
      <trkpt lat="44.56022" lon="6.00905">
        <ele>1170</ele>
        <time>2019-04-19T14:21:45Z</time>
      </trkpt>
      <trkpt lat="44.56022" lon="6.00797">
        <ele>1168</ele>
        <time>2019-04-19T14:22:45Z</time>
      </trkpt>
      <trkpt lat="44.56024" lon="6.00762">
        <ele>1168</ele>
        <time>2019-04-19T14:23:45Z</time>
      </trkpt>
      <trkpt lat="44.56052" lon="6.00653">
        <ele>1172</ele>
        <time>2019-04-19T14:24:45Z</time>
      </trkpt>
      <trkpt lat="44.56092" lon="6.00524">
        <ele>1173</ele>
        <time>2019-04-19T14:25:45Z</time>
      </trkpt>
      <trkpt lat="44.56104" lon="6.00504">
        <ele>1174</ele>
        <time>2019-04-19T14:26:45Z</time>
      </trkpt>
      <trkpt lat="44.56113" lon="6.00496">
        <ele>1175</ele>
        <time>2019-04-19T14:27:45Z</time>
      </trkpt>
      <trkpt lat="44.5616" lon="6.00462">
        <ele>1181</ele>
        <time>2019-04-19T14:28:45Z</time>
      </trkpt>
      <trkpt lat="44.5617" lon="6.00451">
        <ele>1182</ele>
        <time>2019-04-19T14:29:45Z</time>
      </trkpt>
      <trkpt lat="44.56167" lon="6.0044">
        <ele>1181</ele>
        <time>2019-04-19T14:30:45Z</time>
      </trkpt>
      <trkpt lat="44.56164" lon="6.00422">
        <ele>1180</ele>
        <time>2019-04-19T14:31:45Z</time>
      </trkpt>
      <trkpt lat="44.56163" lon="6.004">
        <ele>1179</ele>
        <time>2019-04-19T14:32:45Z</time>
      </trkpt>
      <trkpt lat="44.56164" lon="6.00385">
        <ele>1179</ele>
        <time>2019-04-19T14:33:45Z</time>
      </trkpt>
      <trkpt lat="44.56172" lon="6.00355">
        <ele>1180</ele>
        <time>2019-04-19T14:34:45Z</time>
      </trkpt>
      <trkpt lat="44.56184" lon="6.00316">
        <ele>1180</ele>
        <time>2019-04-19T14:35:45Z</time>
      </trkpt>
      <trkpt lat="44.56192" lon="6.00281">
        <ele>1180</ele>
        <time>2019-04-19T14:36:45Z</time>
      </trkpt>
      <trkpt lat="44.56213" lon="6.00148">
        <ele>1179</ele>
        <time>2019-04-19T14:37:45Z</time>
      </trkpt>
      <trkpt lat="44.56215" lon="6.00062">
        <ele>1177</ele>
        <time>2019-04-19T14:38:45Z</time>
      </trkpt>
      <trkpt lat="44.5622" lon="6.00021">
        <ele>1174</ele>
        <time>2019-04-19T14:39:45Z</time>
      </trkpt>
      <trkpt lat="44.56229" lon="5.99993">
        <ele>1173</ele>
        <time>2019-04-19T14:40:45Z</time>
      </trkpt>
      <trkpt lat="44.56289" lon="5.99872">
        <ele>1171</ele>
        <time>2019-04-19T14:41:45Z</time>
      </trkpt>
      <trkpt lat="44.56295" lon="5.99851">
        <ele>1171</ele>
        <time>2019-04-19T14:42:45Z</time>
      </trkpt>
      <trkpt lat="44.56294" lon="5.99843">
        <ele>1170</ele>
        <time>2019-04-19T14:43:45Z</time>
      </trkpt>
      <trkpt lat="44.56292" lon="5.99836">
        <ele>1170</ele>
        <time>2019-04-19T14:44:45Z</time>
      </trkpt>
      <trkpt lat="44.56281" lon="5.99829">
        <ele>1170</ele>
        <time>2019-04-19T14:45:45Z</time>
      </trkpt>
      <trkpt lat="44.56188" lon="5.99797">
        <ele>1165</ele>
        <time>2019-04-19T14:46:45Z</time>
      </trkpt>
      <trkpt lat="44.56142" lon="5.99768">
        <ele>1162</ele>
        <time>2019-04-19T14:47:45Z</time>
      </trkpt>
      <trkpt lat="44.56101" lon="5.99735">
        <ele>1160</ele>
        <time>2019-04-19T14:48:45Z</time>
      </trkpt>
      <trkpt lat="44.56057" lon="5.99691">
        <ele>1157</ele>
        <time>2019-04-19T14:49:45Z</time>
      </trkpt>
      <trkpt lat="44.56032" lon="5.99669">
        <ele>1155</ele>
        <time>2019-04-19T14:50:45Z</time>
      </trkpt>
      <trkpt lat="44.55968" lon="5.99622">
        <ele>1151</ele>
        <time>2019-04-19T14:51:45Z</time>
      </trkpt>
      <trkpt lat="44.55926" lon="5.996">
        <ele>1148</ele>
        <time>2019-04-19T14:52:45Z</time>
      </trkpt>
      <trkpt lat="44.55916" lon="5.99596">
        <ele>1147</ele>
        <time>2019-04-19T14:53:45Z</time>
      </trkpt>
      <trkpt lat="44.55876" lon="5.9959">
        <ele>1143</ele>
        <time>2019-04-19T14:54:45Z</time>
      </trkpt>
      <trkpt lat="44.55856" lon="5.99584">
        <ele>1140</ele>
        <time>2019-04-19T14:55:45Z</time>
      </trkpt>
      <trkpt lat="44.55848" lon="5.99579">
        <ele>1139</ele>
        <time>2019-04-19T14:56:45Z</time>
      </trkpt>
      <trkpt lat="44.55841" lon="5.9957">
        <ele>1138</ele>
        <time>2019-04-19T14:57:45Z</time>
      </trkpt>
      <trkpt lat="44.5583" lon="5.99546">
        <ele>1136</ele>
        <time>2019-04-19T14:58:45Z</time>
      </trkpt>
      <trkpt lat="44.55765" lon="5.99047">
        <ele>1121</ele>
        <time>2019-04-19T14:59:45Z</time>
      </trkpt>
      <trkpt lat="44.55761" lon="5.99006">
        <ele>1119</ele>
        <time>2019-04-19T15:00:45Z</time>
      </trkpt>
      <trkpt lat="44.55762" lon="5.98954">
        <ele>1119</ele>
        <time>2019-04-19T15:01:45Z</time>
      </trkpt>
      <trkpt lat="44.55774" lon="5.98862">
        <ele>1120</ele>
        <time>2019-04-19T15:02:45Z</time>
      </trkpt>
      <trkpt lat="44.55775" lon="5.98813">
        <ele>1119</ele>
        <time>2019-04-19T15:03:45Z</time>
      </trkpt>
      <trkpt lat="44.55762" lon="5.98558">
        <ele>1111</ele>
        <time>2019-04-19T15:04:45Z</time>
      </trkpt>
      <trkpt lat="44.55763" lon="5.9848">
        <ele>1109</ele>
        <time>2019-04-19T15:05:45Z</time>
      </trkpt>
      <trkpt lat="44.55785" lon="5.98176">
        <ele>1101</ele>
        <time>2019-04-19T15:06:45Z</time>
      </trkpt>
      <trkpt lat="44.55781" lon="5.98156">
        <ele>1101</ele>
        <time>2019-04-19T15:07:45Z</time>
      </trkpt>
      <trkpt lat="44.55725" lon="5.98015">
        <ele>1093</ele>
        <time>2019-04-19T15:08:45Z</time>
      </trkpt>
      <trkpt lat="44.55719" lon="5.97994">
        <ele>1092</ele>
        <time>2019-04-19T15:09:45Z</time>
      </trkpt>
      <trkpt lat="44.55708" lon="5.97918">
        <ele>1088</ele>
        <time>2019-04-19T15:10:45Z</time>
      </trkpt>
      <trkpt lat="44.55692" lon="5.97852">
        <ele>1085</ele>
        <time>2019-04-19T15:11:45Z</time>
      </trkpt>
      <trkpt lat="44.55685" lon="5.97815">
        <ele>1083</ele>
        <time>2019-04-19T15:12:45Z</time>
      </trkpt>
      <trkpt lat="44.55673" lon="5.9769">
        <ele>1074</ele>
        <time>2019-04-19T15:13:45Z</time>
      </trkpt>
      <trkpt lat="44.55673" lon="5.97673">
        <ele>1073</ele>
        <time>2019-04-19T15:14:45Z</time>
      </trkpt>
      <trkpt lat="44.55677" lon="5.97642">
        <ele>1071</ele>
        <time>2019-04-19T15:15:45Z</time>
      </trkpt>
      <trkpt lat="44.55687" lon="5.97595">
        <ele>1069</ele>
        <time>2019-04-19T15:16:45Z</time>
      </trkpt>
      <trkpt lat="44.55692" lon="5.97549">
        <ele>1068</ele>
        <time>2019-04-19T15:17:45Z</time>
      </trkpt>
      <trkpt lat="44.55693" lon="5.97506">
        <ele>1067</ele>
        <time>2019-04-19T15:18:45Z</time>
      </trkpt>
      <trkpt lat="44.5566" lon="5.97419">
        <ele>1058</ele>
        <time>2019-04-19T15:19:45Z</time>
      </trkpt>
      <trkpt lat="44.55655" lon="5.97402">
        <ele>1057</ele>
        <time>2019-04-19T15:20:45Z</time>
      </trkpt>
      <trkpt lat="44.55653" lon="5.97391">
        <ele>1057</ele>
        <time>2019-04-19T15:21:45Z</time>
      </trkpt>
      <trkpt lat="44.55655" lon="5.97373">
        <ele>1056</ele>
        <time>2019-04-19T15:22:45Z</time>
      </trkpt>
      <trkpt lat="44.55664" lon="5.97324">
        <ele>1054</ele>
        <time>2019-04-19T15:23:45Z</time>
      </trkpt>
      <trkpt lat="44.55671" lon="5.97306">
        <ele>1054</ele>
        <time>2019-04-19T15:24:45Z</time>
      </trkpt>
      <trkpt lat="44.55691" lon="5.97275">
        <ele>1053</ele>
        <time>2019-04-19T15:25:45Z</time>
      </trkpt>
      <trkpt lat="44.55712" lon="5.97232">
        <ele>1050</ele>
        <time>2019-04-19T15:26:45Z</time>
      </trkpt>
      <trkpt lat="44.5573" lon="5.97193">
        <ele>1048</ele>
        <time>2019-04-19T15:27:45Z</time>
      </trkpt>
      <trkpt lat="44.55744" lon="5.97145">
        <ele>1044</ele>
        <time>2019-04-19T15:28:45Z</time>
      </trkpt>
      <trkpt lat="44.55754" lon="5.97125">
        <ele>1043</ele>
        <time>2019-04-19T15:29:45Z</time>
      </trkpt>
      <trkpt lat="44.55771" lon="5.97098">
        <ele>1041</ele>
        <time>2019-04-19T15:30:45Z</time>
      </trkpt>
      <trkpt lat="44.558" lon="5.97069">
        <ele>1038</ele>
        <time>2019-04-19T15:31:45Z</time>
      </trkpt>
      <trkpt lat="44.55824" lon="5.97051">
        <ele>1037</ele>
        <time>2019-04-19T15:32:45Z</time>
      </trkpt>
      <trkpt lat="44.55836" lon="5.97035">
        <ele>1037</ele>
        <time>2019-04-19T15:33:45Z</time>
      </trkpt>
      <trkpt lat="44.55841" lon="5.97008">
        <ele>1036</ele>
        <time>2019-04-19T15:34:45Z</time>
      </trkpt>
      <trkpt lat="44.55847" lon="5.96933">
        <ele>1033</ele>
        <time>2019-04-19T15:35:45Z</time>
      </trkpt>
      <trkpt lat="44.55846" lon="5.96847">
        <ele>1028</ele>
        <time>2019-04-19T15:36:45Z</time>
      </trkpt>
      <trkpt lat="44.55849" lon="5.96805">
        <ele>1025</ele>
        <time>2019-04-19T15:37:45Z</time>
      </trkpt>
      <trkpt lat="44.55826" lon="5.96673">
        <ele>1016</ele>
        <time>2019-04-19T15:38:45Z</time>
      </trkpt>
      <trkpt lat="44.55823" lon="5.96641">
        <ele>1014</ele>
        <time>2019-04-19T15:39:45Z</time>
      </trkpt>
      <trkpt lat="44.55821" lon="5.96586">
        <ele>1010</ele>
        <time>2019-04-19T15:40:45Z</time>
      </trkpt>
      <trkpt lat="44.55823" lon="5.96558">
        <ele>1007</ele>
        <time>2019-04-19T15:41:45Z</time>
      </trkpt>
      <trkpt lat="44.5583" lon="5.96521">
        <ele>1003</ele>
        <time>2019-04-19T15:42:45Z</time>
      </trkpt>
      <trkpt lat="44.55842" lon="5.96479">
        <ele>1000</ele>
        <time>2019-04-19T15:43:45Z</time>
      </trkpt>
      <trkpt lat="44.55894" lon="5.9638">
        <ele>997</ele>
        <time>2019-04-19T15:44:45Z</time>
      </trkpt>
      <trkpt lat="44.55897" lon="5.96361">
        <ele>996</ele>
        <time>2019-04-19T15:45:45Z</time>
      </trkpt>
      <trkpt lat="44.55896" lon="5.96341">
        <ele>994</ele>
        <time>2019-04-19T15:46:45Z</time>
      </trkpt>
      <trkpt lat="44.55891" lon="5.96325">
        <ele>992</ele>
        <time>2019-04-19T15:47:45Z</time>
      </trkpt>
      <trkpt lat="44.5587" lon="5.96286">
        <ele>987</ele>
        <time>2019-04-19T15:48:45Z</time>
      </trkpt>
      <trkpt lat="44.55851" lon="5.96259">
        <ele>983</ele>
        <time>2019-04-19T15:49:45Z</time>
      </trkpt>
      <trkpt lat="44.5584" lon="5.9625">
        <ele>982</ele>
        <time>2019-04-19T15:50:45Z</time>
      </trkpt>
      <trkpt lat="44.5582" lon="5.96244">
        <ele>979</ele>
        <time>2019-04-19T15:51:45Z</time>
      </trkpt>
      <trkpt lat="44.55812" lon="5.96236">
        <ele>977</ele>
        <time>2019-04-19T15:52:45Z</time>
      </trkpt>
      <trkpt lat="44.55806" lon="5.96222">
        <ele>974</ele>
        <time>2019-04-19T15:53:45Z</time>
      </trkpt>
      <trkpt lat="44.55804" lon="5.96205">
        <ele>972</ele>
        <time>2019-04-19T15:54:45Z</time>
      </trkpt>
      <trkpt lat="44.55807" lon="5.96189">
        <ele>971</ele>
        <time>2019-04-19T15:55:45Z</time>
      </trkpt>
      <trkpt lat="44.55822" lon="5.9616">
        <ele>970</ele>
        <time>2019-04-19T15:56:45Z</time>
      </trkpt>
      <trkpt lat="44.55889" lon="5.96044">
        <ele>966</ele>
        <time>2019-04-19T15:57:45Z</time>
      </trkpt>
      <trkpt lat="44.55933" lon="5.95988">
        <ele>962</ele>
        <time>2019-04-19T15:58:45Z</time>
      </trkpt>
      <trkpt lat="44.56026" lon="5.95831">
        <ele>946</ele>
        <time>2019-04-19T15:59:45Z</time>
      </trkpt>
      <trkpt lat="44.56042" lon="5.9581">
        <ele>944</ele>
        <time>2019-04-19T16:00:45Z</time>
      </trkpt>
      <trkpt lat="44.56066" lon="5.95788">
        <ele>942</ele>
        <time>2019-04-19T16:01:45Z</time>
      </trkpt>
      <trkpt lat="44.56075" lon="5.95711">
        <ele>938</ele>
        <time>2019-04-19T16:02:45Z</time>
      </trkpt>
      <trkpt lat="44.5609" lon="5.95656">
        <ele>937</ele>
        <time>2019-04-19T16:03:45Z</time>
      </trkpt>
      <trkpt lat="44.56091" lon="5.95621">
        <ele>936</ele>
        <time>2019-04-19T16:04:45Z</time>
      </trkpt>
      <trkpt lat="44.5616" lon="5.95587">
        <ele>935</ele>
        <time>2019-04-19T16:05:45Z</time>
      </trkpt>
      <trkpt lat="44.56172" lon="5.95577">
        <ele>935</ele>
        <time>2019-04-19T16:06:45Z</time>
      </trkpt>
      <trkpt lat="44.56184" lon="5.95554">
        <ele>935</ele>
        <time>2019-04-19T16:07:45Z</time>
      </trkpt>
      <trkpt lat="44.56188" lon="5.95534">
        <ele>935</ele>
        <time>2019-04-19T16:08:45Z</time>
      </trkpt>
      <trkpt lat="44.56189" lon="5.95471">
        <ele>934</ele>
        <time>2019-04-19T16:09:45Z</time>
      </trkpt>
      <trkpt lat="44.56188" lon="5.95247">
        <ele>931</ele>
        <time>2019-04-19T16:10:45Z</time>
      </trkpt>
      <trkpt lat="44.5619" lon="5.95213">
        <ele>930</ele>
        <time>2019-04-19T16:11:45Z</time>
      </trkpt>
      <trkpt lat="44.56189" lon="5.94799">
        <ele>925</ele>
        <time>2019-04-19T16:12:45Z</time>
      </trkpt>
      <trkpt lat="44.56186" lon="5.947">
        <ele>923</ele>
        <time>2019-04-19T16:13:45Z</time>
      </trkpt>
      <trkpt lat="44.56189" lon="5.92161">
        <ele>906</ele>
        <time>2019-04-19T16:14:45Z</time>
      </trkpt>
      <trkpt lat="44.56189" lon="5.90411">
        <ele>879</ele>
        <time>2019-04-19T16:15:45Z</time>
      </trkpt>
      <trkpt lat="44.56191" lon="5.90278">
        <ele>879</ele>
        <time>2019-04-19T16:16:45Z</time>
      </trkpt>
      <trkpt lat="44.56192" lon="5.89133">
        <ele>873</ele>
        <time>2019-04-19T16:17:45Z</time>
      </trkpt>
      <trkpt lat="44.5619" lon="5.89094">
        <ele>873</ele>
        <time>2019-04-19T16:18:45Z</time>
      </trkpt>
      <trkpt lat="44.56186" lon="5.89049">
        <ele>874</ele>
        <time>2019-04-19T16:19:45Z</time>
      </trkpt>
      <trkpt lat="44.56179" lon="5.89002">
        <ele>874</ele>
        <time>2019-04-19T16:20:45Z</time>
      </trkpt>
      <trkpt lat="44.56167" lon="5.88942">
        <ele>875</ele>
        <time>2019-04-19T16:21:45Z</time>
      </trkpt>
      <trkpt lat="44.56149" lon="5.88881">
        <ele>876</ele>
        <time>2019-04-19T16:22:45Z</time>
      </trkpt>
      <trkpt lat="44.56125" lon="5.88815">
        <ele>878</ele>
        <time>2019-04-19T16:23:45Z</time>
      </trkpt>
      <trkpt lat="44.56097" lon="5.88753">
        <ele>879</ele>
        <time>2019-04-19T16:24:45Z</time>
      </trkpt>
      <trkpt lat="44.55794" lon="5.87993">
        <ele>866</ele>
        <time>2019-04-19T16:25:45Z</time>
      </trkpt>
      <trkpt lat="44.55244" lon="5.86622">
        <ele>857</ele>
        <time>2019-04-19T16:26:45Z</time>
      </trkpt>
      <trkpt lat="44.55214" lon="5.86537">
        <ele>858</ele>
        <time>2019-04-19T16:27:45Z</time>
      </trkpt>
      <trkpt lat="44.55186" lon="5.86466">
        <ele>858</ele>
        <time>2019-04-19T16:28:45Z</time>
      </trkpt>
      <trkpt lat="44.55124" lon="5.8632">
        <ele>856</ele>
        <time>2019-04-19T16:29:45Z</time>
      </trkpt>
      <trkpt lat="44.5493" lon="5.8584">
        <ele>852</ele>
        <time>2019-04-19T16:30:45Z</time>
      </trkpt>
      <trkpt lat="44.54827" lon="5.85579">
        <ele>852</ele>
        <time>2019-04-19T16:31:45Z</time>
      </trkpt>
      <trkpt lat="44.54806" lon="5.85532">
        <ele>853</ele>
        <time>2019-04-19T16:32:45Z</time>
      </trkpt>
      <trkpt lat="44.54643" lon="5.85216">
        <ele>853</ele>
        <time>2019-04-19T16:33:45Z</time>
      </trkpt>
      <trkpt lat="44.54411" lon="5.84773">
        <ele>845</ele>
        <time>2019-04-19T16:34:45Z</time>
      </trkpt>
      <trkpt lat="44.54371" lon="5.84685">
        <ele>846</ele>
        <time>2019-04-19T16:35:45Z</time>
      </trkpt>
      <trkpt lat="44.5431" lon="5.84564">
        <ele>849</ele>
        <time>2019-04-19T16:36:45Z</time>
      </trkpt>
      <trkpt lat="44.54275" lon="5.84509">
        <ele>849</ele>
        <time>2019-04-19T16:37:45Z</time>
      </trkpt>
      <trkpt lat="44.54255" lon="5.84469">
        <ele>849</ele>
        <time>2019-04-19T16:38:45Z</time>
      </trkpt>
      <trkpt lat="44.54223" lon="5.84412">
        <ele>848</ele>
        <time>2019-04-19T16:39:45Z</time>
      </trkpt>
      <trkpt lat="44.53998" lon="5.83974">
        <ele>837</ele>
        <time>2019-04-19T16:40:45Z</time>
      </trkpt>
      <trkpt lat="44.53775" lon="5.83555">
        <ele>824</ele>
        <time>2019-04-19T16:41:45Z</time>
      </trkpt>
      <trkpt lat="44.53755" lon="5.83508">
        <ele>823</ele>
        <time>2019-04-19T16:42:45Z</time>
      </trkpt>
      <trkpt lat="44.53739" lon="5.83462">
        <ele>822</ele>
        <time>2019-04-19T16:43:45Z</time>
      </trkpt>
      <trkpt lat="44.53683" lon="5.83239">
        <ele>824</ele>
        <time>2019-04-19T16:44:45Z</time>
      </trkpt>
      <trkpt lat="44.53679" lon="5.83215">
        <ele>825</ele>
        <time>2019-04-19T16:45:45Z</time>
      </trkpt>
      <trkpt lat="44.5366" lon="5.83139">
        <ele>825</ele>
        <time>2019-04-19T16:46:45Z</time>
      </trkpt>
      <trkpt lat="44.53652" lon="5.83116">
        <ele>826</ele>
        <time>2019-04-19T16:47:45Z</time>
      </trkpt>
      <trkpt lat="44.53623" lon="5.83004">
        <ele>832</ele>
        <time>2019-04-19T16:48:45Z</time>
      </trkpt>
      <trkpt lat="44.53618" lon="5.82988">
        <ele>832</ele>
        <time>2019-04-19T16:49:45Z</time>
      </trkpt>
      <trkpt lat="44.53605" lon="5.82957">
        <ele>831</ele>
        <time>2019-04-19T16:50:45Z</time>
      </trkpt>
      <trkpt lat="44.53538" lon="5.82848">
        <ele>828</ele>
        <time>2019-04-19T16:51:45Z</time>
      </trkpt>
      <trkpt lat="44.53494" lon="5.82766">
        <ele>826</ele>
        <time>2019-04-19T16:52:45Z</time>
      </trkpt>
      <trkpt lat="44.53479" lon="5.82728">
        <ele>826</ele>
        <time>2019-04-19T16:53:45Z</time>
      </trkpt>
      <trkpt lat="44.53453" lon="5.82654">
        <ele>825</ele>
        <time>2019-04-19T16:54:45Z</time>
      </trkpt>
      <trkpt lat="44.53404" lon="5.82522">
        <ele>825</ele>
        <time>2019-04-19T16:55:45Z</time>
      </trkpt>
      <trkpt lat="44.53361" lon="5.82403">
        <ele>827</ele>
        <time>2019-04-19T16:56:45Z</time>
      </trkpt>
      <trkpt lat="44.53345" lon="5.8235">
        <ele>825</ele>
        <time>2019-04-19T16:57:45Z</time>
      </trkpt>
      <trkpt lat="44.53341" lon="5.82334">
        <ele>824</ele>
        <time>2019-04-19T16:58:45Z</time>
      </trkpt>
      <trkpt lat="44.53343" lon="5.82332">
        <ele>824</ele>
        <time>2019-04-19T16:59:45Z</time>
      </trkpt>
      <trkpt lat="44.53345" lon="5.82323">
        <ele>825</ele>
        <time>2019-04-19T17:00:45Z</time>
      </trkpt>
      <trkpt lat="44.53342" lon="5.82318">
        <ele>824</ele>
        <time>2019-04-19T17:01:45Z</time>
      </trkpt>
      <trkpt lat="44.53339" lon="5.82317">
        <ele>824</ele>
        <time>2019-04-19T17:02:45Z</time>
      </trkpt>
      <trkpt lat="44.53316" lon="5.82174">
        <ele>823</ele>
        <time>2019-04-19T17:03:45Z</time>
      </trkpt>
      <trkpt lat="44.53315" lon="5.82152">
        <ele>824</ele>
        <time>2019-04-19T17:04:45Z</time>
      </trkpt>
      <trkpt lat="44.53315" lon="5.82134">
        <ele>824</ele>
        <time>2019-04-19T17:05:45Z</time>
      </trkpt>
      <trkpt lat="44.5332" lon="5.821">
        <ele>825</ele>
        <time>2019-04-19T17:06:45Z</time>
      </trkpt>
      <trkpt lat="44.53322" lon="5.82093">
        <ele>825</ele>
        <time>2019-04-19T17:07:45Z</time>
      </trkpt>
      <trkpt lat="44.53328" lon="5.82084">
        <ele>826</ele>
        <time>2019-04-19T17:08:45Z</time>
      </trkpt>
      <trkpt lat="44.53336" lon="5.82077">
        <ele>826</ele>
        <time>2019-04-19T17:09:45Z</time>
      </trkpt>
      <trkpt lat="44.5334" lon="5.82071">
        <ele>826</ele>
        <time>2019-04-19T17:10:45Z</time>
      </trkpt>
      <trkpt lat="44.53339" lon="5.82061">
        <ele>826</ele>
        <time>2019-04-19T17:11:45Z</time>
      </trkpt>
      <trkpt lat="44.53323" lon="5.82045">
        <ele>824</ele>
        <time>2019-04-19T17:12:45Z</time>
      </trkpt>
      <trkpt lat="44.53297" lon="5.81995">
        <ele>821</ele>
        <time>2019-04-19T17:13:45Z</time>
      </trkpt>
      <trkpt lat="44.53285" lon="5.81978">
        <ele>820</ele>
        <time>2019-04-19T17:14:45Z</time>
      </trkpt>
      <trkpt lat="44.53241" lon="5.81928">
        <ele>818</ele>
        <time>2019-04-19T17:15:45Z</time>
      </trkpt>
      <trkpt lat="44.53225" lon="5.81901">
        <ele>817</ele>
        <time>2019-04-19T17:16:45Z</time>
      </trkpt>
      <trkpt lat="44.53218" lon="5.81882">
        <ele>816</ele>
        <time>2019-04-19T17:17:45Z</time>
      </trkpt>
      <trkpt lat="44.53186" lon="5.81783">
        <ele>815</ele>
        <time>2019-04-19T17:18:45Z</time>
      </trkpt>
      <trkpt lat="44.53177" lon="5.81762">
        <ele>814</ele>
        <time>2019-04-19T17:19:45Z</time>
      </trkpt>
      <trkpt lat="44.53155" lon="5.81718">
        <ele>815</ele>
        <time>2019-04-19T17:20:45Z</time>
      </trkpt>
      <trkpt lat="44.53049" lon="5.81521">
        <ele>813</ele>
        <time>2019-04-19T17:21:45Z</time>
      </trkpt>
      <trkpt lat="44.5301" lon="5.81444">
        <ele>812</ele>
        <time>2019-04-19T17:22:45Z</time>
      </trkpt>
      <trkpt lat="44.52971" lon="5.81372">
        <ele>812</ele>
        <time>2019-04-19T17:23:45Z</time>
      </trkpt>
      <trkpt lat="44.52495" lon="5.80452">
        <ele>801</ele>
        <time>2019-04-19T17:24:45Z</time>
      </trkpt>
      <trkpt lat="44.52432" lon="5.80338">
        <ele>802</ele>
        <time>2019-04-19T17:25:45Z</time>
      </trkpt>
      <trkpt lat="44.52392" lon="5.80257">
        <ele>801</ele>
        <time>2019-04-19T17:26:45Z</time>
      </trkpt>
      <trkpt lat="44.52135" lon="5.79756">
        <ele>790</ele>
        <time>2019-04-19T17:27:45Z</time>
      </trkpt>
      <trkpt lat="44.51882" lon="5.79249">
        <ele>788</ele>
        <time>2019-04-19T17:28:45Z</time>
      </trkpt>
      <trkpt lat="44.5174" lon="5.78971">
        <ele>787</ele>
        <time>2019-04-19T17:29:45Z</time>
      </trkpt>
      <trkpt lat="44.5166" lon="5.78826">
        <ele>786</ele>
        <time>2019-04-19T17:30:45Z</time>
      </trkpt>
      <trkpt lat="44.51513" lon="5.78571">
        <ele>778</ele>
        <time>2019-04-19T17:31:45Z</time>
      </trkpt>
      <trkpt lat="44.51437" lon="5.78446">
        <ele>775</ele>
        <time>2019-04-19T17:32:45Z</time>
      </trkpt>
      <trkpt lat="44.51354" lon="5.78295">
        <ele>774</ele>
        <time>2019-04-19T17:33:45Z</time>
      </trkpt>
      <trkpt lat="44.51254" lon="5.78118">
        <ele>774</ele>
        <time>2019-04-19T17:34:45Z</time>
      </trkpt>
      <trkpt lat="44.51202" lon="5.78033">
        <ele>774</ele>
        <time>2019-04-19T17:35:45Z</time>
      </trkpt>
      <trkpt lat="44.51195" lon="5.78017">
        <ele>774</ele>
        <time>2019-04-19T17:36:45Z</time>
      </trkpt>
      <trkpt lat="44.51106" lon="5.77877">
        <ele>775</ele>
        <time>2019-04-19T17:37:45Z</time>
      </trkpt>
      <trkpt lat="44.51075" lon="5.7782">
        <ele>775</ele>
        <time>2019-04-19T17:38:45Z</time>
      </trkpt>
      <trkpt lat="44.51082" lon="5.77809">
        <ele>774</ele>
        <time>2019-04-19T17:39:45Z</time>
      </trkpt>
      <trkpt lat="44.51085" lon="5.77798">
        <ele>774</ele>
        <time>2019-04-19T17:40:45Z</time>
      </trkpt>
      <trkpt lat="44.51101" lon="5.77766">
        <ele>774</ele>
        <time>2019-04-19T17:41:45Z</time>
      </trkpt>
      <trkpt lat="44.51175" lon="5.7762">
        <ele>778</ele>
        <time>2019-04-19T17:42:45Z</time>
      </trkpt>
      <trkpt lat="44.51184" lon="5.77596">
        <ele>779</ele>
        <time>2019-04-19T17:43:45Z</time>
      </trkpt>
      <trkpt lat="44.5119" lon="5.77571">
        <ele>780</ele>
        <time>2019-04-19T17:44:45Z</time>
      </trkpt>
      <trkpt lat="44.51193" lon="5.77546">
        <ele>781</ele>
        <time>2019-04-19T17:45:45Z</time>
      </trkpt>
      <trkpt lat="44.51192" lon="5.7752">
        <ele>781</ele>
        <time>2019-04-19T17:46:45Z</time>
      </trkpt>
      <trkpt lat="44.51189" lon="5.77495">
        <ele>781</ele>
        <time>2019-04-19T17:47:45Z</time>
      </trkpt>
      <trkpt lat="44.51174" lon="5.77445">
        <ele>782</ele>
        <time>2019-04-19T17:48:45Z</time>
      </trkpt>
      <trkpt lat="44.51106" lon="5.77247">
        <ele>790</ele>
        <time>2019-04-19T17:49:45Z</time>
      </trkpt>
      <trkpt lat="44.51055" lon="5.77093">
        <ele>797</ele>
        <time>2019-04-19T17:50:45Z</time>
      </trkpt>
      <trkpt lat="44.51032" lon="5.76995">
        <ele>803</ele>
        <time>2019-04-19T17:51:45Z</time>
      </trkpt>
      <trkpt lat="44.51024" lon="5.76972">
        <ele>804</ele>
        <time>2019-04-19T17:52:45Z</time>
      </trkpt>
      <trkpt lat="44.51005" lon="5.76929">
        <ele>803</ele>
        <time>2019-04-19T17:53:45Z</time>
      </trkpt>
      <trkpt lat="44.50997" lon="5.76907">
        <ele>803</ele>
        <time>2019-04-19T17:54:45Z</time>
      </trkpt>
      <trkpt lat="44.50992" lon="5.76883">
        <ele>804</ele>
        <time>2019-04-19T17:55:45Z</time>
      </trkpt>
      <trkpt lat="44.50989" lon="5.76859">
        <ele>805</ele>
        <time>2019-04-19T17:56:45Z</time>
      </trkpt>
      <trkpt lat="44.50989" lon="5.76835">
        <ele>807</ele>
        <time>2019-04-19T17:57:45Z</time>
      </trkpt>
      <trkpt lat="44.50992" lon="5.76786">
        <ele>809</ele>
        <time>2019-04-19T17:58:45Z</time>
      </trkpt>
      <trkpt lat="44.50987" lon="5.76737">
        <ele>811</ele>
        <time>2019-04-19T17:59:45Z</time>
      </trkpt>
      <trkpt lat="44.50967" lon="5.76648">
        <ele>814</ele>
        <time>2019-04-19T18:00:45Z</time>
      </trkpt>
      <trkpt lat="44.50952" lon="5.76566">
        <ele>816</ele>
        <time>2019-04-19T18:01:45Z</time>
      </trkpt>
      <trkpt lat="44.50941" lon="5.76533">
        <ele>818</ele>
        <time>2019-04-19T18:02:45Z</time>
      </trkpt>
      <trkpt lat="44.50935" lon="5.76518">
        <ele>820</ele>
        <time>2019-04-19T18:03:45Z</time>
      </trkpt>
      <trkpt lat="44.50926" lon="5.76505">
        <ele>820</ele>
        <time>2019-04-19T18:04:45Z</time>
      </trkpt>
      <trkpt lat="44.50915" lon="5.76494">
        <ele>821</ele>
        <time>2019-04-19T18:05:45Z</time>
      </trkpt>
      <trkpt lat="44.5089" lon="5.76477">
        <ele>821</ele>
        <time>2019-04-19T18:06:45Z</time>
      </trkpt>
      <trkpt lat="44.50851" lon="5.76459">
        <ele>820</ele>
        <time>2019-04-19T18:07:45Z</time>
      </trkpt>
      <trkpt lat="44.50839" lon="5.76451">
        <ele>821</ele>
        <time>2019-04-19T18:08:45Z</time>
      </trkpt>
      <trkpt lat="44.50829" lon="5.76441">
        <ele>821</ele>
        <time>2019-04-19T18:09:45Z</time>
      </trkpt>
      <trkpt lat="44.50814" lon="5.76415">
        <ele>823</ele>
        <time>2019-04-19T18:10:45Z</time>
      </trkpt>
      <trkpt lat="44.50791" lon="5.76347">
        <ele>822</ele>
        <time>2019-04-19T18:11:45Z</time>
      </trkpt>
      <trkpt lat="44.50774" lon="5.76324">
        <ele>821</ele>
        <time>2019-04-19T18:12:45Z</time>
      </trkpt>
      <trkpt lat="44.50594" lon="5.76149">
        <ele>819</ele>
        <time>2019-04-19T18:13:45Z</time>
      </trkpt>
      <trkpt lat="44.50584" lon="5.76134">
        <ele>819</ele>
        <time>2019-04-19T18:14:45Z</time>
      </trkpt>
      <trkpt lat="44.50575" lon="5.76117">
        <ele>818</ele>
        <time>2019-04-19T18:15:45Z</time>
      </trkpt>
      <trkpt lat="44.50569" lon="5.76099">
        <ele>817</ele>
        <time>2019-04-19T18:16:45Z</time>
      </trkpt>
      <trkpt lat="44.50565" lon="5.76079">
        <ele>815</ele>
        <time>2019-04-19T18:17:45Z</time>
      </trkpt>
      <trkpt lat="44.50563" lon="5.7606">
        <ele>814</ele>
        <time>2019-04-19T18:18:45Z</time>
      </trkpt>
      <trkpt lat="44.50563" lon="5.7604">
        <ele>813</ele>
        <time>2019-04-19T18:19:45Z</time>
      </trkpt>
      <trkpt lat="44.50565" lon="5.76022">
        <ele>811</ele>
        <time>2019-04-19T18:20:45Z</time>
      </trkpt>
      <trkpt lat="44.50575" lon="5.75989">
        <ele>809</ele>
        <time>2019-04-19T18:21:45Z</time>
      </trkpt>
      <trkpt lat="44.50592" lon="5.7596">
        <ele>809</ele>
        <time>2019-04-19T18:22:45Z</time>
      </trkpt>
      <trkpt lat="44.50637" lon="5.75902">
        <ele>805</ele>
        <time>2019-04-19T18:23:45Z</time>
      </trkpt>
      <trkpt lat="44.50661" lon="5.75874">
        <ele>803</ele>
        <time>2019-04-19T18:24:45Z</time>
      </trkpt>
      <trkpt lat="44.50682" lon="5.75853">
        <ele>802</ele>
        <time>2019-04-19T18:25:45Z</time>
      </trkpt>
      <trkpt lat="44.50724" lon="5.75824">
        <ele>801</ele>
        <time>2019-04-19T18:26:45Z</time>
      </trkpt>
      <trkpt lat="44.50756" lon="5.75808">
        <ele>799</ele>
        <time>2019-04-19T18:27:45Z</time>
      </trkpt>
      <trkpt lat="44.50789" lon="5.75797">
        <ele>796</ele>
        <time>2019-04-19T18:28:45Z</time>
      </trkpt>
      <trkpt lat="44.50823" lon="5.75791">
        <ele>792</ele>
        <time>2019-04-19T18:29:45Z</time>
      </trkpt>
      <trkpt lat="44.51145" lon="5.75814">
        <ele>779</ele>
        <time>2019-04-19T18:30:45Z</time>
      </trkpt>
      <trkpt lat="44.51181" lon="5.75815">
        <ele>778</ele>
        <time>2019-04-19T18:31:45Z</time>
      </trkpt>
      <trkpt lat="44.51199" lon="5.75813">
        <ele>778</ele>
        <time>2019-04-19T18:32:45Z</time>
      </trkpt>
      <trkpt lat="44.51247" lon="5.75797">
        <ele>778</ele>
        <time>2019-04-19T18:33:45Z</time>
      </trkpt>
      <trkpt lat="44.51287" lon="5.75779">
        <ele>777</ele>
        <time>2019-04-19T18:34:45Z</time>
      </trkpt>
      <trkpt lat="44.5131" lon="5.75763">
        <ele>776</ele>
        <time>2019-04-19T18:35:45Z</time>
      </trkpt>
      <trkpt lat="44.51319" lon="5.75751">
        <ele>775</ele>
        <time>2019-04-19T18:36:45Z</time>
      </trkpt>
      <trkpt lat="44.51351" lon="5.757">
        <ele>777</ele>
        <time>2019-04-19T18:37:45Z</time>
      </trkpt>
      <trkpt lat="44.51361" lon="5.75689">
        <ele>776</ele>
        <time>2019-04-19T18:38:45Z</time>
      </trkpt>
      <trkpt lat="44.51372" lon="5.7568">
        <ele>776</ele>
        <time>2019-04-19T18:39:45Z</time>
      </trkpt>
      <trkpt lat="44.51413" lon="5.7566">
        <ele>772</ele>
        <time>2019-04-19T18:40:45Z</time>
      </trkpt>
      <trkpt lat="44.51471" lon="5.75612">
        <ele>766</ele>
        <time>2019-04-19T18:41:45Z</time>
      </trkpt>
      <trkpt lat="44.5148" lon="5.75607">
        <ele>764</ele>
        <time>2019-04-19T18:42:45Z</time>
      </trkpt>
      <trkpt lat="44.51489" lon="5.75605">
        <ele>763</ele>
        <time>2019-04-19T18:43:45Z</time>
      </trkpt>
      <trkpt lat="44.51498" lon="5.75606">
        <ele>762</ele>
        <time>2019-04-19T18:44:45Z</time>
      </trkpt>
      <trkpt lat="44.51524" lon="5.75617">
        <ele>762</ele>
        <time>2019-04-19T18:45:45Z</time>
      </trkpt>
      <trkpt lat="44.51535" lon="5.75616">
        <ele>761</ele>
        <time>2019-04-19T18:46:45Z</time>
      </trkpt>
      <trkpt lat="44.51568" lon="5.75596">
        <ele>757</ele>
        <time>2019-04-19T18:47:45Z</time>
      </trkpt>
      <trkpt lat="44.51583" lon="5.75584">
        <ele>755</ele>
        <time>2019-04-19T18:48:45Z</time>
      </trkpt>
      <trkpt lat="44.51611" lon="5.75538">
        <ele>755</ele>
        <time>2019-04-19T18:49:45Z</time>
      </trkpt>
      <trkpt lat="44.51638" lon="5.75506">
        <ele>755</ele>
        <time>2019-04-19T18:50:45Z</time>
      </trkpt>
      <trkpt lat="44.51663" lon="5.75488">
        <ele>755</ele>
        <time>2019-04-19T18:51:45Z</time>
      </trkpt>
      <trkpt lat="44.51717" lon="5.75455">
        <ele>756</ele>
        <time>2019-04-19T18:52:45Z</time>
      </trkpt>
      <trkpt lat="44.51901" lon="5.75345">
        <ele>758</ele>
        <time>2019-04-19T18:53:45Z</time>
      </trkpt>
      <trkpt lat="44.52038" lon="5.75257">
        <ele>764</ele>
        <time>2019-04-19T18:54:45Z</time>
      </trkpt>
      <trkpt lat="44.52046" lon="5.75244">
        <ele>765</ele>
        <time>2019-04-19T18:55:45Z</time>
      </trkpt>
      <trkpt lat="44.52049" lon="5.75234">
        <ele>765</ele>
        <time>2019-04-19T18:56:45Z</time>
      </trkpt>
      <trkpt lat="44.52053" lon="5.75214">
        <ele>766</ele>
        <time>2019-04-19T18:57:45Z</time>
      </trkpt>
      <trkpt lat="44.52057" lon="5.7515">
        <ele>767</ele>
        <time>2019-04-19T18:58:45Z</time>
      </trkpt>
      <trkpt lat="44.52064" lon="5.7513">
        <ele>767</ele>
        <time>2019-04-19T18:59:45Z</time>
      </trkpt>
      <trkpt lat="44.52074" lon="5.75113">
        <ele>768</ele>
        <time>2019-04-19T19:00:45Z</time>
      </trkpt>
      <trkpt lat="44.52066" lon="5.75099">
        <ele>767</ele>
        <time>2019-04-19T19:01:45Z</time>
      </trkpt>
      <trkpt lat="44.52049" lon="5.7505">
        <ele>767</ele>
        <time>2019-04-19T19:02:45Z</time>
      </trkpt>
      <trkpt lat="44.52041" lon="5.75033">
        <ele>767</ele>
        <time>2019-04-19T19:03:45Z</time>
      </trkpt>
      <trkpt lat="44.52107" lon="5.74937">
        <ele>772</ele>
        <time>2019-04-19T19:04:45Z</time>
      </trkpt>
      <trkpt lat="44.52124" lon="5.74917">
        <ele>773</ele>
        <time>2019-04-19T19:05:45Z</time>
      </trkpt>
      <trkpt lat="44.52165" lon="5.74886">
        <ele>776</ele>
        <time>2019-04-19T19:06:45Z</time>
      </trkpt>
      <trkpt lat="44.5237" lon="5.7478">
        <ele>785</ele>
        <time>2019-04-19T19:07:45Z</time>
      </trkpt>
      <trkpt lat="44.5238" lon="5.74773">
        <ele>785</ele>
        <time>2019-04-19T19:08:45Z</time>
      </trkpt>
      <trkpt lat="44.5239" lon="5.74761">
        <ele>786</ele>
        <time>2019-04-19T19:09:45Z</time>
      </trkpt>
      <trkpt lat="44.524" lon="5.74743">
        <ele>786</ele>
        <time>2019-04-19T19:10:45Z</time>
      </trkpt>
      <trkpt lat="44.52422" lon="5.74693">
        <ele>787</ele>
        <time>2019-04-19T19:11:45Z</time>
      </trkpt>
      <trkpt lat="44.52426" lon="5.74673">
        <ele>787</ele>
        <time>2019-04-19T19:12:45Z</time>
      </trkpt>
      <trkpt lat="44.52427" lon="5.74657">
        <ele>788</ele>
        <time>2019-04-19T19:13:45Z</time>
      </trkpt>
      <trkpt lat="44.52288" lon="5.72983">
        <ele>820</ele>
        <time>2019-04-19T19:14:45Z</time>
      </trkpt>
      <trkpt lat="44.52284" lon="5.72961">
        <ele>820</ele>
        <time>2019-04-19T19:15:45Z</time>
      </trkpt>
      <trkpt lat="44.52277" lon="5.7294">
        <ele>820</ele>
        <time>2019-04-19T19:16:45Z</time>
      </trkpt>
      <trkpt lat="44.52268" lon="5.72923">
        <ele>820</ele>
        <time>2019-04-19T19:17:45Z</time>
      </trkpt>
      <trkpt lat="44.52258" lon="5.72908">
        <ele>821</ele>
        <time>2019-04-19T19:18:45Z</time>
      </trkpt>
      <trkpt lat="44.52246" lon="5.72896">
        <ele>821</ele>
        <time>2019-04-19T19:19:45Z</time>
      </trkpt>
      <trkpt lat="44.52232" lon="5.72887">
        <ele>820</ele>
        <time>2019-04-19T19:20:45Z</time>
      </trkpt>
      <trkpt lat="44.52214" lon="5.7288">
        <ele>819</ele>
        <time>2019-04-19T19:21:45Z</time>
      </trkpt>
      <trkpt lat="44.52214" lon="5.72971">
        <ele>820</ele>
        <time>2019-04-19T19:22:45Z</time>
      </trkpt>
      <trkpt lat="44.52207" lon="5.73027">
        <ele>821</ele>
        <time>2019-04-19T19:23:45Z</time>
      </trkpt>
      <trkpt lat="44.52198" lon="5.73168">
        <ele>823</ele>
        <time>2019-04-19T19:24:45Z</time>
      </trkpt>
      <trkpt lat="44.52151" lon="5.73247">
        <ele>829</ele>
        <time>2019-04-19T19:25:45Z</time>
      </trkpt>
      <trkpt lat="44.52124" lon="5.73403">
        <ele>832</ele>
        <time>2019-04-19T19:26:45Z</time>
      </trkpt>
      <trkpt lat="44.52119" lon="5.73421">
        <ele>833</ele>
        <time>2019-04-19T19:27:45Z</time>
      </trkpt>
    </trkseg>
  </trk>
</gpx>